[[{"header":{"parameterUnit":"m.s-1","parameterCategory":1,"la1":30.6,"la2":29.2853,"lo1":-89.7004,"lo2":-87.6739,"dx":0.0162,"dy":0.0183,"nx":112,"ny":82,"refTime":"2022-11-04T12:00:00:Z","depth":0,"parameterNumber":2,"parameterNumberName":"U-component_of_WINDS"},"data":[0.0,0.0,0.0,0.0,0.0,0.0,0.0,0.0,0.0,0.0,0.0,0.0,0.0,0.0,0.0,0.0,0.0,0.0,0.0,0.0,0.0,0.0,0.0,0.0,0.0,0.0,0.0,0.0,0.0,0.0,0.0,0.0,0.0,0.0,0.0,0.0,0.0,0.0,0.0,0.0,0.0,0.0,0.0,0.0,0.0,0.0,0.0,0.0,0.0,0.0,0.0,0.0,0.0,0.0,0.0,0.0,0.0,0.0,0.0,0.0,0.0,0.0,0.0,0.0,0.0,0.0,0.0,0.0,0.0,0.0,0.0,0.0,0.0,0.0,0.0,0.0,0.0,0.0,0.0,0.0,0.0,0.0,0.0,0.0,0.0,0.0,0.0,0.0,0.0,0.0,3.301,3.2804,3.2966,3.349,3.4502,3.3562,3.2197,3.0522,0.0,0.0,0.0,0.0,0.0,0.0,0.0,0.0,0.0,0.0,0.0,0.0,0.0,0.0,0.0,0.0,0.0,0.0,0.0,0.0,0.0,0.0,0.0,0.0,0.0,0.0,0.0,0.0,0.0,0.0,0.0,0.0,0.0,0.0,0.0,0.0,0.0,0.0,0.0,0.0,0.0,0.0,0.0,0.0,0.0,0.0,0.0,0.0,0.0,0.0,0.0,0.0,0.0,0.0,0.0,0.0,0.0,0.0,0.0,0.0,0.0,0.0,0.0,0.0,0.0,0.0,0.0,0.0,0.0,0.0,0.0,0.0,0.0,0.0,0.0,0.0,0.0,0.0,0.0,0.0,0.0,0.0,0.0,0.0,0.0,0.0,0.0,0.0,0.0,0.0,0.0,0.0,0.0,0.0,0.0,0.0,0.0,0.0,0.0,0.0,0.0,0.0,0.0,0.0,3.3774,3.5559,3.417,3.3343,3.3973,3.4237,3.3245,3.0584,0.0,0.0,0.0,0.0,0.0,0.0,0.0,0.0,0.0,0.0,0.0,0.0,0.0,0.0,0.0,0.0,0.0,0.0,0.0,0.0,0.0,0.0,0.0,0.0,0.0,0.0,0.0,0.0,0.0,0.0,0.0,0.0,0.0,0.0,0.0,0.0,0.0,0.0,0.0,0.0,0.0,0.0,0.0,0.0,0.0,0.0,0.0,0.0,0.0,0.0,0.0,0.0,0.0,0.0,0.0,0.0,0.0,0.0,0.0,0.0,0.0,0.0,0.0,0.0,0.0,0.0,0.0,0.0,0.0,0.0,0.0,0.0,0.0,0.0,0.0,0.0,0.0,0.0,0.0,0.0,0.0,0.0,0.0,0.0,0.0,0.0,0.0,0.0,0.0,0.0,0.0,0.0,0.0,0.0,0.0,0.0,0.0,0.0,0.0,0.0,0.0,0.0,0.0,3.3451,3.518,3.7307,3.5608,3.452,3.4998,3.4897,3.356,3.0597,3.0109,0.0,0.0,0.0,0.0,0.0,0.0,0.0,0.0,0.0,0.0,0.0,0.0,0.0,0.0,0.0,0.0,0.0,0.0,0.0,0.0,0.0,0.0,0.0,0.0,0.0,0.0,0.0,0.0,0.0,0.0,0.0,0.0,0.0,0.0,0.0,0.0,0.0,0.0,0.0,0.0,0.0,0.0,0.0,0.0,0.0,0.0,0.0,0.0,0.0,0.0,0.0,0.0,0.0,0.0,0.0,0.0,0.0,0.0,0.0,0.0,0.0,0.0,0.0,0.0,0.0,0.0,0.0,0.0,0.0,0.0,0.0,0.0,0.0,0.0,0.0,0.0,0.0,0.0,0.0,0.0,0.0,0.0,0.0,0.0,0.0,0.0,0.0,0.0,0.0,0.0,0.0,0.0,0.0,0.0,0.0,0.0,0.0,0.0,0.0,0.0,0.0,0.0,3.5218,3.6311,3.8081,3.6532,3.5594,3.6008,3.5483,3.3861,3.0878,3.0505,0.0,0.0,0.0,0.0,0.0,0.0,0.0,0.0,0.0,0.0,0.0,0.0,0.0,0.0,0.0,0.0,0.0,0.0,0.0,0.0,0.0,0.0,0.0,0.0,0.0,0.0,0.0,0.0,0.0,0.0,0.0,0.0,0.0,0.0,0.0,0.0,0.0,0.0,0.0,0.0,0.0,0.0,0.0,0.0,0.0,0.0,0.0,0.0,0.0,0.0,0.0,0.0,0.0,0.0,0.0,0.0,0.0,0.0,0.0,0.0,0.0,0.0,0.0,0.0,0.0,0.0,0.0,0.0,0.0,0.0,0.0,0.0,0.0,0.0,0.0,0.0,0.0,0.0,0.0,0.0,0.0,0.0,0.0,0.0,0.0,0.0,0.0,0.0,0.0,0.0,0.0,0.0,0.0,0.0,0.0,0.0,0.0,0.0,0.0,0.0,0.0,0.0,3.5124,3.6644,3.7495,3.6262,3.5591,3.6154,3.5964,3.4634,3.1787,3.086,0.0,0.0,0.0,0.0,0.0,0.0,0.0,0.0,0.0,0.0,0.0,0.0,0.0,0.0,0.0,0.0,0.0,0.0,0.0,0.0,0.0,0.0,0.0,0.0,0.0,0.0,0.0,0.0,0.0,0.0,0.0,0.0,0.0,0.0,0.0,0.0,0.0,0.0,0.0,0.0,0.0,0.0,0.0,0.0,0.0,0.0,0.0,0.0,0.0,0.0,0.0,0.0,0.0,0.0,0.0,0.0,0.0,0.0,0.0,0.0,0.0,0.0,0.0,0.0,0.0,0.0,0.0,0.0,0.0,0.0,0.0,0.0,0.0,0.0,0.0,0.0,0.0,0.0,0.0,0.0,0.0,0.0,0.0,0.0,0.0,0.0,0.0,0.0,0.0,0.0,0.0,0.0,0.0,0.0,0.0,0.0,0.0,0.0,0.0,0.0,0.0,0.0,3.6121,3.7512,3.8633,3.7527,3.6741,3.68,3.6684,3.5194,3.1894,0.0,0.0,0.0,0.0,0.0,0.0,0.0,0.0,0.0,0.0,0.0,0.0,0.0,0.0,0.0,0.0,0.0,0.0,0.0,0.0,0.0,0.0,0.0,0.0,0.0,0.0,0.0,0.0,0.0,0.0,0.0,0.0,0.0,0.0,0.0,0.0,0.0,0.0,0.0,0.0,0.0,0.0,0.0,0.0,0.0,0.0,0.0,0.0,0.0,0.0,0.0,0.0,0.0,0.0,0.0,0.0,0.0,0.0,0.0,0.0,0.0,0.0,0.0,0.0,0.0,0.0,0.0,0.0,0.0,0.0,0.0,0.0,0.0,0.0,0.0,0.0,0.0,0.0,0.0,0.0,0.0,0.0,0.0,0.0,0.0,0.0,0.0,0.0,0.0,0.0,0.0,0.0,0.0,0.0,0.0,0.0,0.0,0.0,0.0,0.0,0.0,0.0,3.4967,3.6529,3.7938,3.906,3.8365,3.7766,3.7614,3.7479,3.6062,3.2911,0.0,0.0,0.0,0.0,0.0,0.0,0.0,0.0,0.0,0.0,0.0,0.0,0.0,0.0,0.0,0.0,0.0,0.0,0.0,0.0,0.0,0.0,0.0,0.0,0.0,0.0,0.0,0.0,0.0,0.0,0.0,0.0,0.0,0.0,0.0,0.0,0.0,0.0,0.0,0.0,0.0,0.0,0.0,0.0,0.0,0.0,0.0,0.0,0.0,0.0,0.0,0.0,0.0,0.0,0.0,0.0,0.0,0.0,0.0,0.0,0.0,0.0,0.0,0.0,0.0,0.0,0.0,0.0,0.0,0.0,0.0,0.0,0.0,0.0,0.0,0.0,0.0,0.0,0.0,0.0,0.0,0.0,0.0,0.0,0.0,0.0,0.0,0.0,0.0,0.0,0.0,0.0,0.0,0.0,0.0,0.0,0.0,0.0,0.0,0.0,0.0,0.0,3.4056,3.6065,3.778,3.8445,3.8508,3.8508,3.8508,3.837,3.7353,0.0,0.0,0.0,0.0,0.0,0.0,0.0,0.0,0.0,0.0,0.0,0.0,0.0,0.0,0.0,0.0,0.0,0.0,0.0,0.0,0.0,0.0,0.0,0.0,0.0,0.0,0.0,0.0,0.0,0.0,0.0,0.0,0.0,0.0,0.0,0.0,0.0,0.0,0.0,0.0,0.0,0.0,0.0,0.0,0.0,0.0,0.0,0.0,0.0,0.0,0.0,0.0,0.0,0.0,0.0,0.0,0.0,0.0,0.0,0.0,0.0,0.0,0.0,0.0,0.0,0.0,0.0,0.0,0.0,0.0,0.0,0.0,0.0,0.0,0.0,0.0,0.0,0.0,0.0,0.0,0.0,0.0,0.0,0.0,0.0,0.0,0.0,0.0,0.0,0.0,0.0,0.0,0.0,0.0,0.0,0.0,0.0,0.0,0.0,0.0,0.0,0.0,0.0,3.4395,3.663,3.846,3.9123,3.9218,3.9439,3.9945,3.9361,3.8246,3.6468,0.0,0.0,0.0,0.0,0.0,0.0,0.0,0.0,0.0,0.0,0.0,0.0,0.0,0.0,0.0,0.0,0.0,0.0,0.0,0.0,0.0,0.0,0.0,0.0,0.0,0.0,0.0,0.0,0.0,0.0,0.0,0.0,0.0,0.0,0.0,0.0,0.0,0.0,0.0,0.0,0.0,0.0,0.0,0.0,0.0,0.0,0.0,0.0,0.0,0.0,0.0,0.0,0.0,0.0,0.0,0.0,0.0,0.0,0.0,0.0,0.0,0.0,0.0,0.0,0.0,0.0,0.0,0.0,0.0,0.0,0.0,0.0,0.0,0.0,0.0,0.0,0.0,0.0,0.0,0.0,0.0,0.0,0.0,0.0,0.0,0.0,0.0,0.0,0.0,0.0,0.0,0.0,0.0,0.0,0.0,0.0,0.0,0.0,0.0,0.0,0.0,0.0,3.5062,3.7066,3.876,3.9439,3.9756,4.0135,4.0546,3.9866,3.8842,3.7605,0.0,0.0,0.0,0.0,0.0,0.0,0.0,0.0,0.0,0.0,0.0,0.0,0.0,0.0,0.0,0.0,0.0,0.0,0.0,0.0,0.0,0.0,0.0,0.0,0.0,0.0,0.0,0.0,0.0,0.0,0.0,0.0,0.0,0.0,0.0,0.0,0.0,0.0,0.0,0.0,0.0,0.0,0.0,0.0,0.0,0.0,0.0,0.0,0.0,0.0,0.0,0.0,0.0,0.0,0.0,0.0,0.0,0.0,0.0,0.0,0.0,0.0,0.0,0.0,0.0,0.0,0.0,0.0,0.0,0.0,0.0,0.0,0.0,0.0,0.0,0.0,0.0,0.0,0.0,0.0,0.0,0.0,0.0,0.0,0.0,0.0,0.0,0.0,0.0,0.0,0.0,0.0,0.0,0.0,0.0,0.0,0.0,0.0,0.0,0.0,0.0,0.0,3.6092,3.7623,3.895,3.9629,4.0293,4.0704,4.0704,4.0135,3.944,3.8622,0.0,0.0,0.0,0.0,0.0,0.0,0.0,0.0,0.0,0.0,0.0,0.0,0.0,0.0,0.0,0.0,0.0,0.0,0.0,0.0,0.0,0.0,0.0,0.0,0.0,0.0,0.0,0.0,0.0,0.0,0.0,0.0,0.0,0.0,0.0,0.0,0.0,0.0,0.0,0.0,0.0,0.0,0.0,0.0,0.0,0.0,0.0,0.0,0.0,0.0,0.0,0.0,0.0,0.0,0.0,0.0,0.0,0.0,0.0,0.0,3.203,2.8615,0.0,0.0,0.0,0.0,0.0,0.0,0.0,0.0,0.0,0.0,0.0,0.0,0.0,0.0,0.0,0.0,0.0,0.0,0.0,0.0,0.0,0.0,0.0,0.0,0.0,0.0,0.0,0.0,0.0,0.0,0.0,0.0,0.0,0.0,0.0,0.0,0.0,0.0,0.0,0.0,3.8243,3.9391,4.0419,4.1083,4.1289,4.1384,4.1384,4.1763,4.1617,4.0727,3.9203,0.0,0.0,0.0,0.0,0.0,0.0,0.0,0.0,0.0,0.0,0.0,0.0,0.0,0.0,0.0,0.0,0.0,0.0,0.0,0.0,0.0,0.0,0.0,0.0,0.0,0.0,0.0,0.0,0.0,0.0,0.0,0.0,0.0,0.0,0.0,0.0,0.0,0.0,0.0,0.0,0.0,0.0,0.0,0.0,0.0,0.0,0.0,0.0,0.0,0.0,0.0,0.0,0.0,0.0,0.0,0.0,0.0,0.0,0.0,3.4859,3.2161,0.0,0.0,0.0,0.0,0.0,0.0,0.0,0.0,0.0,0.0,0.0,0.0,0.0,0.0,0.0,0.0,0.0,0.0,0.0,0.0,0.0,0.0,0.0,0.0,0.0,0.0,0.0,0.0,0.0,0.0,0.0,0.0,0.0,0.0,0.0,0.0,0.0,0.0,0.0,0.0,3.949,4.0146,4.0862,4.1542,4.1605,4.1605,4.1605,4.1668,4.1619,4.1456,4.0116,0.0,0.0,0.0,0.0,0.0,0.0,0.0,0.0,0.0,0.0,0.0,0.0,0.0,0.0,0.0,0.0,0.0,0.0,0.0,0.0,0.0,0.0,0.0,0.0,0.0,0.0,0.0,0.0,0.0,0.0,0.0,0.0,0.0,0.0,0.0,0.0,0.0,0.0,0.0,0.0,0.0,0.0,0.0,0.0,0.0,0.0,0.0,0.0,0.0,0.0,0.0,0.0,0.0,3.6932,3.7711,3.7328,3.8011,3.8818,3.9494,3.6825,3.5451,3.5013,3.3714,0.0,0.0,0.0,0.0,0.0,0.0,0.0,0.0,0.0,0.0,0.0,0.0,0.0,0.0,0.0,0.0,0.0,0.0,0.0,0.0,0.0,0.0,3.8971,3.8349,3.9585,4.0057,3.6896,0.0,0.0,0.0,0.0,0.0,0.0,0.0,0.0,0.0,0.0,0.0,4.0673,4.0852,4.1178,4.1731,4.17,4.1605,4.1605,4.1209,4.1146,4.1573,4.0544,3.9487,0.0,0.0,0.0,0.0,0.0,0.0,0.0,0.0,0.0,0.0,0.0,0.0,0.0,0.0,0.0,0.0,0.0,0.0,0.0,0.0,0.0,0.0,0.0,0.0,0.0,0.0,0.0,0.0,0.0,0.0,0.0,0.0,2.8687,2.8894,0.0,0.0,0.0,0.0,0.0,0.0,0.0,0.0,0.0,0.0,0.0,0.0,0.0,3.381,3.4731,3.6374,3.7144,3.7075,3.8052,3.8788,3.9318,3.9558,4.0121,4.0906,3.9971,0.0,3.6673,3.6498,0.0,0.0,0.0,0.0,0.0,0.0,0.0,0.0,0.0,0.0,0.0,0.0,0.0,0.0,0.0,0.0,0.0,0.0,0.0,0.0,0.0,0.0,4.3114,4.302,4.3208,4.3278,4.2787,4.0423,3.8178,3.7401,3.7217,3.7408,0.0,0.0,0.0,0.0,0.0,0.0,4.2977,4.2655,4.2459,4.2553,4.1984,4.1605,4.1605,4.2111,4.2206,4.162,4.2014,4.1382,3.9408,3.9345,0.0,0.0,0.0,0.0,0.0,0.0,0.0,0.0,0.0,0.0,0.0,0.0,0.0,0.0,0.0,0.0,0.0,0.0,0.0,0.0,0.0,0.0,0.0,0.0,0.0,0.0,0.0,0.0,0.0,2.7164,2.895,3.0032,2.9489,2.9351,0.0,0.0,0.0,0.0,0.0,0.0,0.0,0.0,0.0,3.6628,3.5801,3.6329,3.8364,3.9468,3.9813,3.9445,4.1021,4.1781,4.1738,4.1785,4.2054,4.2485,4.2195,4.159,4.0629,3.8975,3.7637,3.6584,0.0,0.0,0.0,0.0,3.4898,3.4985,3.6443,3.7155,3.7516,3.7928,0.0,0.0,0.0,0.0,0.0,0.0,0.0,4.1242,4.1148,4.2482,4.3992,4.4483,4.4553,4.4694,4.5103,4.3734,4.2043,4.0798,4.0507,4.0952,4.2365,4.2549,0.0,0.0,0.0,4.3959,4.3513,4.2654,4.2378,4.32,4.2631,4.2378,4.2758,4.2726,4.2726,4.2772,4.2726,4.23,4.1336,4.0893,4.0072,0.0,0.0,0.0,0.0,0.0,0.0,0.0,0.0,0.0,0.0,0.0,0.0,0.0,0.0,0.0,0.0,0.0,0.0,0.0,0.0,0.0,0.0,0.0,0.0,0.0,0.0,0.0,0.0,2.9051,3.0318,3.2493,3.2025,3.22,0.0,0.0,0.0,0.0,0.0,0.0,3.5432,3.5328,3.6708,3.9917,3.8525,3.8951,4.1447,4.2228,4.2228,4.1516,4.3207,4.3762,4.3284,4.3284,4.3358,4.3445,4.3445,4.3518,4.3476,4.1318,4.0087,3.9568,3.9392,3.861,3.7627,3.8033,3.7812,3.7627,3.9965,4.0772,4.0878,4.1429,4.1218,4.0597,3.9603,0.0,0.0,0.0,0.0,4.3009,4.2622,4.35,4.4659,4.5256,4.5384,4.5595,4.6332,4.591,4.4939,4.3536,4.3057,4.3453,4.5085,4.4921,0.0,4.6124,4.544,4.4479,4.3616,4.2783,4.2574,4.3358,4.3169,4.3169,4.3657,4.3232,4.3169,4.3657,4.3215,4.2884,4.2711,4.2347,4.1715,4.0862,0.0,0.0,0.0,0.0,0.0,0.0,0.0,0.0,0.0,0.0,0.0,0.0,0.0,0.0,0.0,0.0,0.0,0.0,0.0,0.0,0.0,0.0,0.0,0.0,0.0,0.0,0.0,0.0,0.0,3.7985,3.7596,0.0,0.0,0.0,0.0,3.6077,3.6146,3.6146,3.6249,3.7594,3.9123,4.0791,4.14,4.2159,4.3069,4.3828,4.3828,4.3069,4.3207,4.3254,4.3219,4.3219,4.3234,4.3299,4.3299,4.3372,4.3518,4.3511,4.3536,4.3535,4.2822,4.2506,4.2365,4.1639,4.1358,4.1323,4.1499,4.1534,4.1569,4.1604,4.1558,4.1674,4.2365,4.2049,0.0,0.0,4.3208,4.3992,4.4729,4.5489,4.6074,4.6144,4.6144,4.6354,4.7151,4.6718,4.5898,4.5138,4.4378,4.4038,4.4645,0.0,4.4877,4.5363,4.5252,4.469,4.3646,4.3832,4.3733,4.284,4.3295,4.3657,4.372,4.3688,4.3657,4.372,4.3657,4.3341,4.2743,4.3295,4.293,4.1573,4.1462,0.0,0.0,0.0,0.0,0.0,0.0,0.0,0.0,0.0,0.0,0.0,0.0,0.0,0.0,0.0,0.0,0.0,0.0,0.0,0.0,0.0,0.0,0.0,0.0,0.0,0.0,0.0,0.0,3.6371,3.7057,0.0,3.9808,3.8405,3.7698,3.8422,3.8491,3.8916,3.9917,4.0503,4.1698,4.3721,4.3125,4.3138,4.3897,4.4173,4.4173,4.3897,4.4389,4.463,4.463,4.463,4.4643,4.4647,4.4647,4.4724,4.4852,4.4902,4.4473,4.3757,4.3477,4.343,4.3535,4.3781,4.3851,4.3921,4.4401,4.4565,4.4459,4.4015,4.3851,4.3921,4.4202,4.4097,4.3921,4.4202,4.4822,4.5349,4.515,4.6028,4.6976,4.6976,4.7314,4.7771,4.8099,4.7911,4.7583,4.735,4.6261,4.5884,4.7491,4.7361,4.7408,4.8506,4.7797,4.6872,4.6046,4.5678,4.5434,4.5212,4.5191,4.521,4.5376,4.4746,4.4352,4.4352,4.4352,4.4036,4.3373,4.3562,4.3467,4.2962,4.2947,4.2364,0.0,0.0,0.0,0.0,0.0,0.0,0.0,0.0,0.0,0.0,0.0,0.0,0.0,0.0,0.0,0.0,0.0,0.0,0.0,0.0,0.0,0.0,0.0,0.0,0.0,3.4792,3.6383,3.7249,3.8104,3.9339,4.116,4.0365,4.0055,4.0814,4.0883,4.1331,4.2344,4.2642,4.347,4.4962,4.4091,4.3931,4.4678,4.4665,4.4665,4.4678,4.5169,4.5397,4.5397,4.5397,4.5397,4.5397,4.5397,4.545,4.5541,4.5541,4.5047,4.4356,4.4405,4.4502,4.4657,4.5218,4.5418,4.5524,4.6039,4.6214,4.6109,4.563,4.5454,4.5454,4.5454,4.5454,4.5524,4.5817,4.6239,4.6542,4.6297,4.7011,4.7783,4.7783,4.8122,4.8578,4.8907,4.8718,4.8578,4.8859,4.7876,4.7439,4.885,4.8649,4.8588,4.9487,4.8636,4.7631,4.6999,4.6504,4.6259,4.6323,4.6321,4.636,4.6498,4.595,4.5568,4.5437,4.5331,4.4925,4.4259,4.4449,4.4524,4.4415,4.4401,4.3976,4.3042,0.0,0.0,0.0,0.0,0.0,0.0,0.0,0.0,0.0,0.0,0.0,0.0,0.0,0.0,0.0,0.0,0.0,0.0,0.0,0.0,0.0,0.0,0.0,3.6883,3.6202,3.7203,4.1077,4.1197,4.1893,4.4259,4.301,4.2391,4.3197,4.3232,4.3232,4.3241,4.3897,4.4311,4.4345,4.4345,4.4678,4.5397,4.5397,4.5397,4.5397,4.5397,4.5397,4.5397,4.5397,4.5397,4.5397,4.5397,4.5397,4.5397,4.5432,4.5511,4.5654,4.5749,4.5889,4.6015,4.6015,4.6067,4.6214,4.6214,4.6214,4.6249,4.6249,4.6249,4.6284,4.6284,4.6284,4.6425,4.7222,4.7432,4.7608,4.8297,4.8508,4.8543,4.8543,4.8578,4.8789,4.9587,4.9153,4.8824,4.9622,4.9153,4.8609,4.8409,4.8382,4.829,4.8105,4.7566,0.0,4.6473,4.6444,4.6372,4.604,4.6639,4.7043,4.7026,4.7305,4.733,4.6957,4.6562,4.6048,4.5327,4.5952,4.6141,4.5796,4.581,4.5159,4.3801,0.0,0.0,0.0,0.0,0.0,0.0,0.0,0.0,0.0,0.0,0.0,0.0,0.0,0.0,0.0,0.0,0.0,0.0,0.0,0.0,0.0,3.5501,3.65,3.7003,3.8476,3.9691,4.0149,4.1391,4.2706,4.3953,4.3641,4.3675,4.4444,4.3989,4.3786,4.3991,4.4207,4.454,4.5065,4.51,4.5203,4.5397,4.5397,4.5397,4.5397,4.5397,4.5397,4.5397,4.5397,4.5397,4.5397,4.5397,4.5397,4.5432,4.6031,4.6299,4.627,4.5814,4.5812,4.6015,4.6015,4.6067,4.6214,4.6214,4.6577,4.7081,4.7081,4.742,4.7876,4.7911,4.7946,4.7981,4.8157,4.8192,4.8227,4.8438,4.8942,4.9376,4.9376,4.982,5.0311,5.0535,5.0838,5.1105,5.1316,5.1645,5.154,5.0376,5.0187,5.0546,5.1577,5.1598,5.1421,5.1272,5.0961,5.07,5.0639,5.0228,4.9809,4.9458,4.9264,4.872,4.7755,4.7599,4.6965,4.5704,4.5833,4.5878,4.5808,4.6028,4.6237,0.0,0.0,0.0,0.0,0.0,0.0,0.0,0.0,0.0,0.0,0.0,0.0,0.0,0.0,0.0,0.0,0.0,0.0,0.0,0.0,0.0,0.0,3.7242,3.8164,3.8515,3.9761,4.0761,4.1133,4.2222,4.3268,4.4078,4.4013,4.4202,4.4928,4.4612,4.449,4.4738,4.4965,4.5186,4.541,4.5397,4.5397,4.5397,4.5397,4.5397,4.5397,4.5397,4.5397,4.5397,4.5755,4.5893,4.5927,4.6224,4.6362,4.641,4.6858,4.7072,4.7119,0.0,0.0,0.0,0.0,4.7098,4.7161,4.7161,4.7455,4.7854,4.7854,4.8157,4.8508,4.8543,4.8556,4.8613,4.8907,4.9012,4.9082,4.9434,4.9855,5.029,5.0592,5.1013,5.1435,5.18,5.2221,5.2488,5.2488,5.2888,0.0,5.2418,5.2081,5.2123,5.2944,5.2797,5.2527,5.2453,5.1893,5.1503,5.1518,5.1054,5.0627,5.0358,5.0231,0.0,0.0,0.0,4.8615,4.7458,4.7221,0.0,0.0,0.0,4.6884,4.6723,4.6415,0.0,0.0,4.3227,4.2704,0.0,0.0,0.0,0.0,0.0,0.0,0.0,0.0,0.0,0.0,0.0,0.0,0.0,0.0,0.0,0.0,3.9637,4.1029,4.0831,4.0624,4.115,4.2995,4.3422,4.3854,4.4571,4.4395,4.4495,4.5187,4.5223,4.5297,4.5494,4.5942,0.0,0.0,0.0,4.5423,4.5502,4.5423,4.5432,4.5535,4.5535,4.5569,4.5673,4.641,4.672,4.6755,4.741,4.7686,4.772,4.7789,4.7969,4.8168,4.8008,4.802,4.8154,4.8404,4.8508,4.8508,4.8508,0.0,0.0,4.8648,4.8718,4.8754,4.8754,4.8754,4.8929,4.9622,4.9903,5.0114,5.0851,5.1097,5.1308,5.1983,5.2123,5.2348,5.3064,5.3275,5.331,5.331,5.338,5.3661,5.4314,5.3836,5.3302,5.3215,5.2576,5.204,5.182,5.1094,5.0623,5.0623,5.0572,0.0,5.0538,5.0806,5.0801,5.0351,5.0535,5.0358,4.9702,4.9334,4.8571,4.729,4.7804,4.7478,4.6248,4.6862,4.7154,4.7188,4.5652,4.4633,0.0,0.0,0.0,0.0,0.0,0.0,0.0,0.0,0.0,0.0,0.0,0.0,0.0,0.0,0.0,3.9261,3.9969,4.1022,4.2615,4.2793,4.2903,4.3255,4.4459,4.5298,4.5438,4.5991,4.6361,4.6539,4.6539,4.6389,4.6045,4.6119,4.6132,4.6055,4.5645,4.5619,4.6055,4.5632,4.5721,4.6376,4.6376,0.0,4.7272,4.741,4.7479,4.7514,4.7651,4.7686,4.7755,4.8341,4.9131,4.9799,4.8668,4.8246,4.8286,4.8443,4.8508,4.8508,4.8556,4.8977,4.9482,4.9482,4.9903,5.0452,5.0452,5.0452,0.0,5.0641,5.1084,5.1597,5.1737,5.2277,5.2783,5.2923,5.2959,5.2994,5.3169,5.3661,5.4103,5.4103,5.463,5.5121,5.5247,5.463,5.4299,5.4902,5.4874,5.4585,5.4121,5.3567,5.3158,5.3158,5.2809,5.2537,5.2537,5.262,5.2179,5.1149,5.0582,5.0232,5.01,4.9998,4.9832,4.9585,4.9372,4.9134,4.8873,4.8739,4.8805,4.9036,4.7298,4.6416,0.0,0.0,0.0,0.0,0.0,0.0,0.0,0.0,0.0,0.0,0.0,3.7503,3.8241,0.0,4.0112,4.0061,4.1268,4.2465,4.3297,4.4125,4.4636,4.4593,4.5545,4.6288,4.6484,4.6856,4.7096,4.7096,4.6902,4.6683,4.6471,4.6519,4.6554,4.6554,4.6045,4.6104,4.673,4.6514,4.6647,4.7134,4.7411,4.7605,4.772,4.81,4.8238,4.8272,4.8686,4.8858,4.8872,4.9323,4.9831,5.023,4.9603,4.9439,4.9621,4.9688,4.9714,4.9714,4.975,5.0009,5.029,5.029,5.057,5.0992,5.1329,5.1435,5.154,5.194,5.2326,5.2593,5.2593,5.2888,5.3275,5.3661,5.3752,5.3857,5.4244,5.463,5.4896,5.4896,5.5212,5.5493,5.5493,5.5177,5.5036,5.5422,5.5264,5.493,5.4362,5.383,5.3399,5.3179,5.2904,5.2731,5.2731,5.2731,5.2492,5.1879,5.1497,5.1148,5.075,5.075,5.0585,5.0203,4.9998,4.9912,4.9912,4.9737,4.9737,4.9879,4.8982,4.8339,0.0,0.0,0.0,0.0,0.0,0.0,0.0,3.5647,3.6575,3.818,3.9164,3.9833,4.0112,4.1063,4.1609,4.1138,4.2696,4.3979,4.4001,4.5179,4.6083,4.6227,4.6597,4.6933,4.727,4.7309,4.732,4.7341,4.7051,4.6856,4.6879,4.697,4.6981,4.689,4.6577,4.6745,4.7442,4.7543,4.7818,4.8215,4.854,4.8566,4.8315,4.8811,4.9031,4.9065,4.972,5.0011,5.0011,5.012,5.0192,5.0235,5.0473,5.0753,5.1002,5.0867,5.0846,5.0881,5.1049,5.1119,5.1119,5.1308,5.1343,5.1448,5.2067,5.2228,5.2383,5.3029,5.331,5.3415,5.3415,5.352,5.3801,5.4384,5.451,5.472,5.5352,5.5493,5.5493,5.5493,5.5598,5.5703,5.5703,5.5844,5.5844,5.5563,5.5233,5.484,5.4216,5.3872,5.3463,5.2861,5.2822,5.2822,5.2822,5.269,5.259,5.259,5.2458,5.2126,5.153,5.1497,5.1231,5.0651,5.0651,5.0651,5.0651,5.0766,5.0832,5.0832,5.0965,5.0402,3.1611,3.2563,3.3388,3.4513,3.4938,3.5647,0.0,3.7729,3.7783,3.9375,4.035,4.101,4.1403,4.1851,4.2486,4.3504,4.3555,4.4103,4.5921,4.6298,4.6695,4.7419,4.7353,4.7244,4.732,4.7309,4.7352,4.7461,4.7428,4.7461,4.7496,4.7517,4.7335,4.6902,4.7094,4.7458,4.8021,4.8259,4.8975,5.0073,4.9677,4.9815,5.0435,5.0047,4.9873,4.9858,4.9976,5.0011,5.0011,5.0025,5.0092,5.0255,5.0928,5.1306,5.1359,5.0837,5.0612,5.0745,5.159,5.1877,5.1983,5.2713,5.2923,5.2959,5.3029,5.3064,5.3064,5.3169,5.3647,5.4173,5.4173,5.47,5.5247,5.5352,5.5352,5.5387,5.5493,5.5493,5.5493,5.5493,5.6034,5.649,5.649,5.7087,5.7087,5.5703,5.6024,5.6028,5.502,5.5467,5.5448,5.4372,5.4276,5.4276,5.4276,5.3647,5.3283,5.3283,5.2705,5.2358,5.2292,5.2292,5.2226,5.2159,5.2159,5.2159,5.2159,5.2738,5.3051,5.3051,5.3713,5.2587,3.2708,3.374,3.4718,3.6252,3.6251,3.6452,3.869,3.9041,3.9263,4.0515,4.1414,4.1962,4.2001,4.2717,4.3404,4.3658,4.4536,4.5503,4.6365,4.6892,4.7327,4.7652,4.7604,4.7515,4.7515,4.7515,4.7593,4.771,4.7529,4.7557,4.7941,4.8177,4.8193,4.7939,4.855,4.9067,4.9436,4.9853,5.0267,5.0632,5.0722,5.062,5.0348,5.0092,5.0011,5.0011,5.0444,5.0651,5.0651,5.1099,5.1316,5.1376,5.1687,5.1855,5.1909,5.1859,5.1863,5.1983,5.2404,5.2593,5.2748,5.3099,5.3204,5.3275,5.3717,5.3822,5.3928,5.4419,5.477,5.5001,5.5001,5.5247,5.5493,5.5493,5.5493,5.5598,5.6069,5.6139,5.628,5.6771,5.7087,5.7298,5.7298,5.7579,5.7579,5.6947,5.7087,5.6908,5.5857,5.6013,5.5755,5.4638,5.4508,5.4508,5.4508,5.421,5.4045,5.4045,5.3798,5.3632,5.3632,5.3632,5.3632,5.3632,5.3632,5.3632,5.3632,5.3879,5.4045,5.4045,5.4376,5.3846,3.4493,3.5272,3.6054,3.7714,3.7587,3.7588,3.9569,4.0125,4.0513,4.144,4.2165,4.256,4.2328,4.312,4.3809,4.3919,4.5178,4.6313,4.6757,4.7327,4.7689,4.7689,4.7689,4.7689,4.7689,4.7689,4.7777,4.7881,4.7636,4.7761,4.8457,4.8785,4.9006,4.9046,4.9861,5.0403,5.0641,5.1094,5.1287,5.1231,5.1475,5.1321,5.0767,5.0841,5.0772,5.0651,5.1168,5.141,5.1444,5.1996,5.2203,5.2237,5.2444,5.2548,5.2578,5.3013,5.3033,5.2832,5.3085,5.3241,5.3412,5.3637,5.3736,5.3835,5.4396,5.4586,5.4756,5.5352,5.5493,5.5493,5.5493,5.5633,5.5809,5.5809,5.5949,5.6265,5.6806,5.6947,5.7087,5.7684,5.8,5.8141,5.8141,5.8316,5.8421,5.8421,5.8297,5.7795,5.6645,5.642,5.601,5.5165,5.5104,5.5104,5.5104,5.4906,5.4806,5.4806,5.4607,5.4508,5.4508,5.4508,5.4508,5.4508,5.4707,5.4707,5.4508,5.4906,5.5005,5.4806,5.5005,5.5204,3.7747,3.7968,3.8239,3.9287,3.9525,3.9762,4.0836,4.1064,4.1288,4.2129,4.247,4.2599,4.2589,4.2775,4.3425,4.4999,4.5299,4.5888,4.7435,4.7689,4.7689,4.7689,4.7689,4.7689,4.7689,4.7689,4.7777,4.7881,4.7881,4.826,4.9122,4.9287,4.9544,4.9848,5.0722,5.1176,5.1187,5.1442,5.1825,5.235,5.1824,5.1981,5.2717,5.2941,5.2686,5.2134,5.2168,5.2168,5.2168,5.2203,5.2203,5.2272,5.308,5.3356,5.346,5.4184,5.3652,5.2642,5.349,5.3778,5.3898,5.4694,5.5009,5.5144,5.5179,5.5319,5.5458,5.5493,5.5493,5.5493,5.5493,5.6034,5.6561,5.6561,5.7158,5.7754,5.7754,5.7754,5.779,5.779,5.8421,5.8968,5.8968,5.9545,6.0036,6.0036,5.958,5.8786,5.7432,5.692,5.6672,5.6633,5.6633,5.6633,5.6633,5.5984,5.5568,5.5568,5.4906,5.4508,5.4508,5.4508,5.4508,5.4508,5.5204,5.5204,5.4508,5.5951,5.6282,5.5601,5.6316,5.7031,3.7887,3.8083,3.842,3.9849,4.0211,4.0408,4.1248,4.1446,4.1559,4.1955,4.2512,4.2963,4.3099,4.3745,4.4581,4.5662,4.5967,4.6457,4.7544,4.7689,4.7689,4.7689,4.7689,4.7689,4.7689,4.7689,4.7777,4.7881,4.7892,4.827,4.9148,4.9763,5.0192,5.0493,5.162,5.194,5.1221,5.1717,5.1909,5.169,5.2151,5.2817,5.358,5.3264,5.3,5.2805,5.2952,5.3186,5.3558,5.3664,5.3963,5.4311,5.4183,5.4149,5.4149,5.441,5.4215,5.3879,5.431,5.4517,5.4644,5.4887,5.5037,5.5083,5.5083,5.5113,5.5159,5.5159,5.5619,5.6094,5.6094,5.6731,5.7403,5.7403,5.7614,5.7965,5.8492,5.8597,5.8737,5.9229,5.9545,5.9721,5.9721,5.9931,5.9959,5.9634,5.9063,5.8407,5.7582,5.7028,5.6699,5.6699,5.6699,5.6699,5.6699,5.6481,5.6316,5.6316,5.6547,5.668,5.668,5.7177,5.7409,5.7409,5.7674,5.7674,5.7409,5.7906,5.7773,5.7077,5.7806,5.8038,3.8678,3.9105,3.9603,4.0632,4.0878,4.1018,4.1499,4.1604,4.1648,4.178,4.2266,4.2799,4.3234,4.366,4.4498,4.6125,4.6302,4.6646,4.7839,4.7995,4.7908,4.7714,4.7689,4.7689,4.7689,4.7689,4.7756,4.7829,4.8083,4.8634,4.9471,5.0339,5.0983,5.145,5.2154,5.228,5.1763,5.2124,5.2375,5.2575,5.35,5.4196,5.4699,5.4559,5.4418,5.4232,5.4382,5.465,5.4931,5.4849,5.5063,5.5343,5.4745,5.4478,5.4478,5.4478,5.4478,5.4529,5.4655,5.4764,5.4823,5.4823,5.4853,5.4985,5.5263,5.5363,5.546,5.58,5.6346,5.6823,5.6884,5.7572,5.8246,5.8246,5.8421,5.8773,5.9299,5.9405,5.9545,6.0001,6.0107,6.0107,6.0107,5.9927,5.9634,5.9046,5.8492,5.7975,5.7643,5.7082,5.6699,5.6699,5.6699,5.6699,5.6699,5.6699,5.6832,5.7097,5.7561,5.7906,5.8171,5.8634,5.8899,5.8899,5.9164,5.9164,5.8899,5.9164,5.8899,5.8204,5.8668,5.88,4.0132,4.0955,4.1569,4.1604,4.1604,4.1604,4.1604,4.1604,4.1604,4.1604,4.1769,4.2203,4.2992,4.2725,4.3372,4.6406,4.625,4.6434,4.8187,4.8436,4.8238,4.7766,4.7689,4.7689,4.7689,4.7725,4.7761,4.7761,4.8485,4.9257,5.0101,5.0998,5.1816,5.259,5.2173,5.2233,5.2775,5.2674,5.3352,5.4882,5.5644,5.5994,5.603,5.6729,5.6809,5.6344,5.6317,5.6317,5.6289,5.5644,5.5432,5.5387,5.4761,5.4478,5.4478,5.4478,5.4478,5.4529,5.4547,5.4513,5.4529,5.4547,5.4708,5.4988,5.5699,5.6034,5.633,5.7219,5.751,5.7608,5.7798,5.8441,5.9038,5.9038,5.958,6.0107,6.0107,6.0107,6.0107,6.0107,6.0107,6.0107,6.0107,5.9634,5.9046,5.8492,5.7902,5.7551,5.7551,5.7063,5.6699,5.6699,5.6699,5.6732,5.6766,5.6766,5.7044,5.7806,5.7873,5.8237,5.8933,5.8999,5.8999,5.8999,5.9694,5.9728,5.8999,5.9728,5.9694,5.8966,5.8999,5.9363,4.085,4.1021,4.0913,4.1464,4.1604,4.1604,4.1604,4.1604,4.1604,4.1604,4.214,4.2807,4.3557,4.375,4.4403,4.6365,4.6195,4.6219,4.7455,4.7596,4.7637,4.7693,4.7689,4.7689,4.7689,4.8232,4.8594,4.8594,4.8775,4.9499,5.0934,5.121,5.1704,5.2501,5.1994,5.2049,5.2794,5.3536,5.4514,5.5716,5.5873,5.6467,5.7457,5.6778,5.6665,5.6887,5.6479,5.6532,5.6835,5.5816,5.5658,5.5971,5.4911,5.4478,5.4478,5.4478,5.4478,5.4582,5.5134,5.4961,5.4582,5.5134,5.5338,5.5559,5.6318,5.6674,5.6819,5.7075,5.7736,5.8412,5.8444,5.915,5.9826,5.9826,5.9966,6.0107,6.0107,6.0107,6.0107,6.0107,6.0107,6.0107,6.0107,5.9266,5.858,5.8439,5.7554,5.693,5.693,5.6796,5.6699,5.6699,5.6699,5.6931,5.7475,5.7528,5.7806,5.8568,5.9131,5.9529,5.9728,6.0258,6.0556,6.0556,6.0721,6.0721,6.0556,6.0721,6.0456,5.9728,6.0291,6.0357,4.0222,4.0729,4.1018,4.1089,4.1358,4.1604,4.1604,4.1358,4.1124,4.1124,4.1218,4.1593,4.2693,4.3017,4.3836,4.607,4.6177,4.6353,4.7354,4.7532,4.748,4.7402,4.7486,4.7648,4.8009,4.8565,4.9209,4.9897,4.9945,5.0343,5.126,5.1622,5.1917,5.2078,5.2108,5.271,5.3943,5.4756,5.5703,5.6697,5.6464,5.6903,5.7892,5.7027,5.6964,5.7486,5.719,5.7065,5.704,5.6166,5.583,5.5801,5.4865,5.4478,5.4547,5.4858,5.4961,5.5099,5.5874,5.5874,5.5598,5.5996,5.615,5.6271,5.7047,5.7354,5.7471,5.79,5.8462,5.899,5.9055,5.9515,5.9959,5.9959,6.0059,6.0107,6.0107,6.0107,6.0107,6.0107,6.0107,6.0107,6.0107,5.9367,5.8702,5.8457,5.7646,5.7006,5.6738,5.6699,5.6699,5.6699,5.6699,5.6865,5.7296,5.7329,5.7773,5.8833,5.9297,5.9827,6.0456,6.0887,6.1119,6.1119,6.1119,6.1119,6.1119,6.1119,6.0887,6.049,6.092,6.0721,3.9234,4.0307,4.1279,4.0729,4.1069,4.156,4.156,4.0986,4.047,4.0459,3.9817,3.9712,4.1139,4.1501,4.253,4.543,4.5968,4.6418,4.7509,4.7652,4.7465,4.7046,4.7143,4.7552,4.8378,4.8806,4.9636,5.1131,5.1382,5.1477,5.1477,5.2024,5.215,5.1655,5.2674,5.391,5.5375,5.5954,5.6697,5.7583,5.7051,5.7091,5.7775,5.729,5.7401,5.7973,5.7904,5.7558,5.7065,5.6438,5.5872,5.5343,5.4745,5.4547,5.472,5.5375,5.5651,5.5858,5.6667,5.6943,5.6943,5.6943,5.6943,5.7081,5.784,5.8064,5.8252,5.906,5.9319,5.9369,5.9571,5.9701,5.9781,5.9781,5.9895,6.0043,6.0043,6.0059,6.0091,6.0107,6.0107,6.0107,6.0107,5.9601,5.8995,5.8492,5.7866,5.7289,5.6757,5.6699,5.6699,5.6699,5.6699,5.6732,5.6832,5.6865,5.7409,5.88,5.8899,5.9463,6.0755,6.0821,6.0854,6.0933,6.0933,6.102,6.1119,6.1119,6.1053,6.0933,6.0933,6.0556,3.9937,4.0285,4.0476,4.0964,4.1162,4.1266,4.1266,4.0787,4.0307,4.0195,3.961,3.9398,4.0219,4.0995,4.2112,4.3909,4.481,4.5668,4.6672,4.6814,4.6873,4.6975,4.7043,4.7352,4.8103,4.9026,4.993,5.0914,5.1785,5.2299,5.2299,5.1934,5.1785,5.185,5.4189,5.5406,5.5388,5.611,5.683,5.7571,5.6496,5.655,5.7607,5.7051,5.7165,5.7822,5.7314,5.7091,5.7027,5.5999,5.547,5.5343,5.4745,5.4858,5.5409,5.5547,5.603,5.6702,5.746,5.7702,5.7702,5.7702,5.7702,5.784,5.8599,5.8942,5.9095,5.9267,5.9419,5.9571,5.9604,5.9637,5.9619,5.9619,5.9652,5.9703,5.9703,5.9748,5.9911,6.0091,6.0107,6.0107,6.0107,5.9233,5.8527,5.8422,5.7517,5.6815,5.6699,5.6699,5.6699,5.6699,5.6699,5.6964,5.7541,5.7608,5.7972,5.8833,5.8899,5.8999,5.9264,5.9264,5.9562,6.0191,6.0191,6.049,6.1119,6.1119,6.0788,6.0191,6.0191,5.9794,3.8917,3.9545,4.0106,4.0072,4.035,4.0617,4.0617,3.9767,3.8998,3.8909,3.8338,3.8091,3.8869,4.004,4.1249,4.2473,4.4027,4.5397,4.6256,4.6739,4.7047,4.7203,4.7677,4.814,4.8543,4.952,5.0522,5.1443,5.2402,5.3002,5.312,5.2938,5.321,5.3999,5.5056,5.5692,5.5875,5.6241,5.6434,5.6452,5.5921,5.6144,5.7012,5.6783,5.7114,5.7798,5.7474,5.7091,5.6652,5.6097,5.5519,5.493,5.5019,5.5272,5.5685,5.6478,5.703,5.7495,5.8219,5.8478,5.8478,5.8478,5.8478,5.8547,5.8892,5.9064,5.9132,5.9132,5.92,5.9302,5.9302,5.9369,5.9436,5.9436,5.9586,5.9683,5.9683,5.983,5.9975,6.0091,6.0107,6.0107,6.0107,5.9731,5.9321,5.902,5.8575,5.8025,5.7368,5.7263,5.713,5.6732,5.6699,5.6832,5.7196,5.721,5.7541,5.827,5.8336,5.8668,5.9429,5.9463,5.9628,5.9993,5.9993,5.9993,5.996,5.996,5.9761,5.9429,5.9429,5.9032,3.8215,3.9117,3.99,3.9309,3.9588,3.9959,3.982,3.8729,3.7707,3.7513,3.6922,3.6605,3.7268,3.8555,3.9879,4.1062,4.3115,4.4869,4.5804,4.6635,4.7151,4.7151,4.7842,4.8473,4.8887,4.9691,5.0744,5.2063,5.3191,5.3794,5.3761,5.4186,5.4856,5.5795,5.5591,5.5696,5.6298,5.6013,5.5787,5.5607,5.5557,5.5943,5.6661,5.6767,5.7076,5.7522,5.7376,5.6835,5.6041,5.5915,5.5328,5.4547,5.5306,5.572,5.603,5.7375,5.8012,5.8219,5.8788,5.8995,5.8995,5.8995,5.8995,5.8995,5.8995,5.8995,5.8995,5.8995,5.8995,5.8995,5.8995,5.9115,5.9251,5.9251,5.9468,5.9716,5.9748,5.9895,6.0059,6.0107,6.0247,6.0352,6.0352,6.0404,6.0287,5.9824,5.9633,5.9168,5.8164,5.7906,5.7641,5.7229,5.6898,5.6766,5.6931,5.6799,5.7031,5.774,5.7806,5.8303,5.9496,5.9529,5.9529,5.9529,5.9529,5.933,5.8899,5.8899,5.8833,5.8668,5.8668,5.827,3.9442,3.9759,3.9733,3.9629,3.9698,3.956,3.8881,3.8163,3.7399,3.6612,3.5949,3.5515,3.5458,3.6212,3.7532,3.9717,4.1638,4.3349,4.483,4.5779,4.6319,4.6319,4.6379,4.7024,4.8489,4.892,5.0039,5.2201,5.4265,5.4974,5.4015,5.5128,5.5635,5.5293,5.5888,5.6226,5.6298,5.5139,5.5144,5.6215,5.5694,5.6013,5.7138,5.715,5.6948,5.6608,5.6055,5.5565,5.5154,5.4614,5.4447,5.4547,5.5306,5.6046,5.6805,5.7598,5.8306,5.8892,5.8961,5.8995,5.8995,5.8995,5.8995,5.8995,5.8995,5.8995,5.8995,5.8995,5.8995,5.8995,5.8995,5.9012,5.903,5.903,5.9183,5.9403,5.9569,5.9716,5.9895,6.004,6.0668,6.1195,6.1195,6.0895,6.0647,6.0592,5.9665,5.8926,5.88,5.8204,5.8038,5.8634,5.7475,5.6964,5.7641,5.7097,5.7031,5.774,5.7806,5.7839,5.8005,5.8005,5.8005,5.8005,5.8005,5.8303,5.8899,5.8899,5.8568,5.7906,5.7906,5.7528,3.7661,3.807,3.8364,3.8364,3.8008,3.7698,3.7881,3.6671,3.5517,3.5604,3.5082,3.4604,3.458,3.5623,3.6967,3.8406,4.0882,4.3302,4.5343,4.6748,4.7583,4.7583,4.8016,4.838,4.8591,4.9081,5.0281,5.2325,5.381,5.4672,5.471,5.5646,5.6089,5.5875,5.5787,5.5557,5.5139,5.5054,5.5054,5.5154,5.5687,5.6201,5.6661,5.7036,5.6923,5.6501,5.6235,5.5701,5.4948,5.4722,5.446,5.4344,5.5627,5.633,5.6794,5.8065,5.8754,5.8995,5.8995,5.8995,5.8995,5.8995,5.8995,5.8995,5.8995,5.8995,5.8995,5.8995,5.8995,5.8995,5.8995,5.8995,5.8995,5.8995,5.9149,5.9319,5.9403,5.9553,5.9841,6.036,6.0825,6.1241,6.1697,6.1849,6.1764,6.1415,6.1013,6.0471,5.9689,5.9297,5.9231,5.9529,5.8237,5.7641,5.8403,5.7773,5.7495,5.7773,5.7395,5.7342,5.7773,5.7806,5.7806,5.7806,5.7806,5.7727,5.7574,5.7574,5.7409,5.7163,5.7163,5.6998,3.6844,3.7398,3.7709,3.726,3.6708,3.6318,3.6467,3.5259,3.419,3.4466,3.4121,3.3761,3.3794,3.4886,3.6198,3.7495,4.0222,4.2882,4.501,4.693,4.814,4.814,4.8846,4.9223,4.8942,4.9678,5.0838,5.2396,5.3446,5.4362,5.5147,5.5559,5.5915,5.6174,5.547,5.4872,5.4407,5.4872,5.4963,5.4703,5.5787,5.6393,5.6568,5.701,5.691,5.6447,5.6235,5.5658,5.483,5.4629,5.4333,5.4184,5.5855,5.6488,5.6693,5.8376,5.8995,5.8995,5.8995,5.8995,5.8995,5.8995,5.8995,5.8995,5.8995,5.8995,5.8995,5.8995,5.8995,5.8995,5.8995,5.8995,5.8995,5.8995,5.9149,5.9371,5.9579,5.9783,6.0161,6.0909,6.1341,6.1757,6.2281,6.2647,6.2719,6.237,6.2092,6.1508,6.0404,5.9916,5.9661,5.9661,5.8535,5.8104,5.8833,5.8005,5.7594,5.7773,5.7309,5.7243,5.7773,5.7806,5.7693,5.7475,5.7475,5.7229,5.6699,5.6699,5.6699,5.6699,5.6699,5.6699,3.8035,3.8571,3.8226,3.6697,3.6318,3.5904,3.4466,3.4121,3.3879,3.3076,3.2938,3.2904,3.2904,3.3569,3.489,3.7133,3.9524,4.166,4.3209,4.5623,4.7207,4.7207,4.7974,4.8824,4.9622,5.0648,5.1611,5.244,5.3437,5.4366,5.5156,5.4823,5.5004,5.5865,5.4933,5.4407,5.4407,5.4407,5.4734,5.5417,5.6021,5.6608,5.7188,5.7188,5.6881,5.627,5.5679,5.5134,5.4648,5.3979,5.3833,5.4184,5.5855,5.6488,5.6693,5.8376,5.8995,5.8995,5.8995,5.8995,5.8995,5.8995,5.8995,5.8995,5.8995,5.8995,5.8995,5.8995,5.8995,5.8995,5.8995,5.8995,5.8995,5.8995,5.9149,5.951,6.0237,6.0547,6.0909,6.1709,6.2457,6.2962,6.2997,6.3104,6.3274,6.3441,6.2489,6.1522,6.0953,5.9751,5.8899,5.8899,5.8237,5.8104,5.8833,5.7561,5.7011,5.774,5.7773,5.7773,5.7806,5.7806,5.7461,5.6732,5.6732,5.6699,5.6699,5.6699,5.6699,5.6699,5.6699,5.6699,3.5976,3.5915,3.5535,3.5535,3.4766,3.4007,3.4086,3.3293,3.2603,3.2835,3.249,3.2145,3.2145,3.3224,3.4845,3.7133,3.9524,4.2204,4.5405,4.665,4.7407,4.8022,4.839,4.8661,4.8859,4.9833,5.0745,5.1381,5.1564,5.1929,5.248,5.285,5.3716,5.5174,5.4155,5.365,5.3783,5.466,5.5174,5.5417,5.6434,5.7023,5.7188,5.7188,5.6881,5.627,5.5679,5.5074,5.4457,5.3816,5.3601,5.382,5.5654,5.6354,5.6593,5.8359,5.8995,5.8995,5.8995,5.8995,5.8995,5.8995,5.8995,5.8995,5.8995,5.8995,5.8995,5.8995,5.8995,5.8995,5.8995,5.8995,5.8995,5.8995,5.9047,5.915,5.9392,5.9477,5.9927,6.1258,6.1779,6.237,6.3428,6.3412,6.315,6.2808,6.1773,6.0785,6.0165,5.9378,5.8899,5.8899,5.8237,5.8104,5.8833,5.8005,5.7541,5.7773,5.7329,5.7064,5.7064,5.7064,5.6931,5.6699,5.6699,5.6699,5.6699,5.6699,5.6699,5.6699,5.6699,5.6964,3.4431,3.4466,3.4121,3.4293,3.3593,3.2904,3.2844,3.2085,3.1533,3.1972,3.1696,3.1558,3.211,3.3465,3.5156,3.7157,3.9721,4.2514,4.5622,4.6668,4.7473,4.8425,4.8837,4.9012,4.8977,4.9507,5.0137,5.0832,5.0705,5.0791,5.1251,5.2062,5.2943,5.3898,5.3464,5.3314,5.3518,5.4753,5.5417,5.5417,5.6621,5.7087,5.6881,5.71,5.674,5.595,5.5578,5.5009,0.0,5.375,5.3653,5.4059,5.5604,5.6372,5.6782,5.8256,5.8806,5.8806,5.8909,5.8909,5.8909,5.8978,5.8995,5.8995,5.8995,5.8995,5.8995,5.8995,5.8995,5.8995,5.8995,5.8995,5.8995,5.8995,5.8995,5.9064,5.9392,5.9461,5.984,6.1047,6.1395,6.1795,6.2745,6.2716,6.2457,6.2263,6.1222,6.0279,5.9731,5.8967,5.8369,5.8104,5.7641,5.7594,5.8038,5.766,5.7376,5.7376,5.6964,5.6699,5.6699,5.6699,5.6699,5.6699,5.6699,5.6699,5.6699,5.6699,5.6699,5.6732,5.7263,5.7608,0.0,3.3914,3.3845,3.3214,3.3007,3.2628,3.1257,3.0947,0.0,3.0947,3.0947,3.1361,3.2731,3.4249,3.5811,3.7398,4.0089,4.2622,4.4398,4.603,4.7396,4.8447,4.9188,4.9644,4.9723,4.9545,4.9835,5.0737,5.0597,5.0663,5.1094,5.2087,5.2493,5.2183,5.2792,5.323,5.3467,5.4738,5.5337,5.5308,5.6555,5.6806,5.6257,5.6842,5.6474,5.5402,5.5358,5.4998,5.4412,5.3818,5.4025,5.477,5.5705,5.6488,5.7203,5.8146,5.8508,5.8525,5.8701,5.8805,5.8806,5.8944,5.8995,5.8995,5.8995,5.8995,5.8995,5.8995,5.8995,5.8995,5.8995,5.8995,5.8995,5.8995,5.8995,5.9202,5.9944,6.0116,6.0323,6.1082,6.122,6.1254,6.1289,6.1289,6.143,6.1762,6.0754,5.9873,5.9563,5.8456,5.7463,5.6834,5.6768,5.6768,5.6768,5.676,5.6766,5.6699,5.6766,5.6766,5.6699,5.6766,5.6799,5.6799,5.6799,5.6799,5.6799,5.6732,5.6766,5.6898,5.8237,5.8601,3.1032,0.0,3.3421,3.4421,3.4259,3.3741,0.0,3.3293,3.3293,3.3293,3.3293,3.3396,3.3741,3.5042,3.6732,3.8836,4.0779,4.3002,4.584,4.6769,4.746,4.8282,4.8618,4.9078,4.9938,4.9956,4.9873,4.9742,4.9396,4.9206,4.9314,5.0272,5.0827,5.0844,5.2063,5.2834,5.3024,5.4454,5.4898,5.4419,5.5858,5.6201,5.5636,5.578,5.5694,5.5387,5.4857,5.4878,5.5207,5.4584,5.4769,5.5531,5.6469,5.6965,5.7203,5.8146,5.8508,5.8508,5.8543,5.8666,5.8806,5.8944,5.8995,5.8995,5.8995,5.8995,5.8995,5.8995,5.8995,5.8995,5.8995,5.8995,5.8995,5.8995,5.8995,5.903,5.9237,5.9288,5.953,6.0323,6.0461,6.0634,6.122,6.143,6.1345,6.0808,5.9734,5.8912,5.8766,5.7608,5.6951,5.7267,5.73,5.73,5.73,5.7442,5.7296,5.6732,5.721,5.7296,5.6732,5.7263,5.7541,5.7541,5.7541,5.7541,5.7561,5.6998,5.7296,5.8403,5.8734,5.9694,3.0282,3.1292,3.2179,3.3362,3.3593,3.3455,3.312,3.3327,3.3638,3.4017,3.4086,3.4431,3.5476,3.6881,3.8249,3.9491,4.1573,4.3935,4.6451,4.7878,4.8582,4.8334,4.8651,4.9077,4.9548,4.9579,4.9521,4.9402,4.9146,4.907,4.9207,5.0058,5.0609,5.0806,5.1918,5.2624,5.2903,5.4375,5.4761,5.4102,5.5615,5.5816,5.4948,5.5269,5.5264,5.5022,5.4959,5.5146,5.5569,5.5229,5.5344,5.5784,5.6635,5.6959,5.7061,5.7933,5.8207,5.8259,5.8348,5.849,5.8666,5.8753,5.8823,5.8927,5.8927,5.8944,5.8995,5.8995,5.8995,5.8995,5.8995,5.8995,5.8995,5.8995,5.8995,5.8995,5.8995,5.8995,5.915,5.9564,5.9668,5.9909,6.0668,6.0894,6.0947,6.0947,5.9827,5.8988,5.9045,5.7824,5.7105,5.7472,5.7483,5.7483,5.7483,5.8088,5.8087,5.7142,5.7619,5.7805,5.741,5.7972,5.8303,5.8303,5.8303,5.8303,5.8303,5.7906,5.827,5.9429,6.0112,6.1073,3.0265,3.086,3.1204,3.1972,3.2628,3.2938,3.2421,3.2904,3.3662,3.4466,3.4707,3.5363,3.7295,3.8882,3.9951,4.0193,4.2711,4.5165,4.6571,4.8556,4.9541,4.8714,4.9047,4.9325,4.9248,4.9228,4.9222,4.9177,4.9312,4.9452,4.9533,5.0323,5.0911,5.1116,5.1961,5.2551,5.2816,5.42,5.4529,5.391,5.5288,5.5402,5.4404,5.4985,5.5075,5.4804,5.5328,5.5654,5.5868,5.5868,5.5936,5.6105,5.6731,5.6968,5.7036,5.7663,5.79,5.7918,5.8117,5.833,5.8455,5.849,5.8613,5.8736,5.8736,5.884,5.8927,5.8927,5.8961,5.8995,5.8995,5.8995,5.8995,5.8995,5.8995,5.903,5.9168,5.9168,5.9168,5.9168,5.9271,5.953,6.0082,6.0392,6.079,6.1466,6.0374,5.9527,5.9683,5.8396,5.7517,5.7614,5.7614,5.7614,5.7614,5.855,5.8711,5.7668,5.8174,5.8482,5.8482,5.8863,5.9131,5.9231,5.9131,5.9131,5.9231,5.9131,5.9562,6.0523,6.1685,6.2359,3.0072,3.1482,3.2695,3.3549,3.3845,3.4052,3.4569,3.5259,3.6008,3.6812,3.7467,3.8019,3.8364,3.9675,4.1136,4.2447,4.4678,4.632,4.6575,4.7055,4.8035,4.9847,4.9708,4.9694,5.03,5.0512,4.9922,4.8324,4.8966,4.9077,4.833,4.9576,5.0322,5.0386,5.1678,5.2409,5.248,5.3365,5.3499,5.2835,5.3909,5.4399,5.4328,5.4601,5.5009,5.5547,5.5652,5.6041,5.663,5.663,5.7002,5.7577,5.7697,5.7712,5.7746,5.7866,5.79,5.7918,5.8117,5.8241,5.8277,5.8455,5.8525,5.8543,5.8543,5.8561,5.8578,5.8578,5.8771,5.8995,5.8995,5.8995,5.8995,5.8995,5.8995,5.9185,5.9875,6.0013,6.0013,6.0013,6.053,6.0806,6.0289,6.1272,6.1962,6.1428,6.0478,5.9816,5.9796,5.8303,5.7498,5.8124,5.8187,5.8187,5.8187,5.8374,5.8374,5.8187,5.9142,5.9725,5.9725,5.9786,6.0125,6.0755,6.0158,6.0158,6.0755,6.0158,6.0854,6.2797,6.2585,6.311,3.0487,3.1566,3.2486,3.4173,3.5287,3.5915,3.5811,3.6708,3.7778,3.8537,3.8951,3.9468,4.0296,4.1361,4.2649,4.4176,4.5657,4.6474,4.6102,4.7822,4.9122,4.9146,4.9212,4.9411,4.9794,4.9618,4.9082,4.8082,4.8873,4.9166,4.8613,4.9607,5.0386,5.0783,5.1828,5.2391,5.2391,5.2748,5.2835,5.2606,5.3923,5.4397,5.4132,5.4358,5.5052,5.6098,5.5393,5.575,5.6765,5.6375,5.619,5.6208,5.6968,5.707,5.6799,5.7629,5.79,5.79,5.7991,5.8027,5.8045,5.8169,5.8259,5.8348,5.8348,5.8419,5.8525,5.8631,5.8771,5.8892,5.8892,5.8961,5.8995,5.8995,5.9306,5.9737,6.0116,6.0185,6.0323,6.0703,6.0737,6.0875,6.1358,6.2031,6.2369,6.1891,6.1051,6.0258,5.9767,5.8594,5.7895,5.8266,5.8297,5.8297,5.8297,5.8527,5.8687,5.8687,5.9173,5.9566,5.9822,5.9844,6.015,6.0848,6.0554,6.075,6.1502,6.1121,6.1666,6.303,6.2772,6.3245,3.1145,3.2237,3.3188,3.4816,3.6064,3.6848,3.6628,3.764,3.8813,3.956,3.9974,4.0607,4.178,4.282,4.4018,4.5507,4.6102,4.624,4.5925,4.8431,4.9747,4.8289,4.8653,4.9018,4.9061,4.8787,4.8397,4.7886,4.8827,4.9234,4.8846,4.9706,5.0452,5.1033,5.1927,5.2391,5.2391,5.2391,5.2445,5.2587,5.377,5.421,5.3937,5.4167,5.503,5.6174,5.5257,5.5513,5.6494,5.5936,5.5361,5.4972,5.6292,5.6562,5.6341,5.7476,5.79,5.79,5.79,5.79,5.79,5.79,5.7991,5.8117,5.8117,5.8259,5.8401,5.8543,5.8613,5.8684,5.8806,5.8909,5.903,5.9237,5.9771,6.0289,6.0668,6.0737,6.0909,6.1461,6.1254,6.1323,6.2342,6.2652,6.2653,6.2368,6.1474,6.0586,5.9696,5.8828,5.8297,5.8297,5.8297,5.8297,5.8297,5.8642,5.8846,5.8846,5.904,5.9331,5.9706,5.9706,6.0008,6.0698,6.0698,6.1151,6.2035,6.2035,6.2391,6.3061,6.2945,6.3189,3.1968,3.4472,3.6502,3.6044,3.5535,3.5583,3.7066,3.8019,3.8813,3.956,4.0848,4.1883,4.1987,4.3337,4.4856,4.6295,4.6046,4.5896,4.651,4.739,4.798,4.8085,4.8704,4.8963,4.8666,4.9154,4.8926,4.7555,4.8668,4.8997,4.8116,4.9408,5.0203,5.0269,5.1662,5.2391,5.2391,5.2391,5.2391,5.2409,5.2655,5.311,5.3725,5.4114,5.4727,5.5485,5.5595,5.5665,5.5767,5.5733,5.5665,5.5699,5.6494,5.7171,5.7764,5.7866,5.79,5.79,5.79,5.79,5.79,5.79,5.79,5.7918,5.7918,5.7918,5.7936,5.7954,5.8081,5.835,5.8858,5.8909,5.9012,5.9909,6.0151,6.0599,6.2031,6.2342,6.2342,6.2411,6.2928,6.3151,6.2618,6.3066,6.3237,6.2436,6.1474,6.0586,5.9696,5.8828,5.8297,5.8297,5.8297,5.8297,5.8297,5.8321,5.8344,5.8344,5.9174,5.9684,5.9706,5.9684,6.0018,6.0698,6.0698,6.1378,6.2737,6.2737,6.3094,6.3806,6.3356,6.3204,3.3119,3.4385,3.5554,3.7488,3.767,3.7625,3.8574,3.9732,4.081,4.1698,4.2344,4.3047,4.3992,4.5084,4.6144,4.7184,4.6743,4.6108,4.5522,4.6819,4.7371,4.6144,4.7395,4.8224,4.7885,4.8142,4.8278,4.8111,4.9055,4.9563,4.9393,5.032,5.09,5.09,5.1861,5.2391,5.2391,5.2391,5.2391,5.2391,5.2876,5.3226,5.3509,5.3812,5.4338,5.4992,5.4406,5.4394,5.4798,5.4481,5.4312,5.4448,5.5631,5.6867,5.79,5.79,5.79,5.79,5.79,5.79,5.79,5.79,5.79,5.79,5.79,5.79,5.7918,5.8045,5.8045,5.8081,5.8403,5.8578,5.8717,5.9218,6.001,6.0871,6.1616,6.2169,6.2652,6.3101,6.3032,6.2944,6.3151,6.3427,6.3102,6.1669,6.1127,6.0374,5.8985,5.8496,5.8297,5.8297,5.8297,5.8297,5.8297,5.8297,5.8297,5.8297,5.861,5.8814,5.8814,5.9238,5.9781,6.045,6.0905,6.1607,6.2564,6.2564,6.2691,6.2946,6.2783,6.271,3.3896,3.4887,3.5792,3.8037,3.9122,3.9765,4.0251,4.1327,4.2377,4.2804,4.3443,4.4338,4.5596,4.6473,4.7051,4.7117,4.6537,4.5671,4.4535,4.6188,4.6837,4.4919,4.6586,4.7787,4.7564,4.7682,4.796,4.8432,4.9393,4.9959,5.0,5.0831,5.1298,5.1298,5.2027,5.2391,5.2391,5.2391,5.2391,5.2391,5.287,5.3069,5.3069,5.3339,5.3712,5.4164,5.3547,5.3567,5.4005,5.367,5.3788,5.4279,5.5293,5.6596,5.79,5.79,5.79,5.79,5.79,5.79,5.79,5.79,5.79,5.79,5.79,5.79,5.7918,5.8063,5.7991,5.7986,5.835,5.8599,5.8951,5.9679,6.0625,6.1503,6.1943,6.2461,6.2997,6.3496,6.3186,6.3032,6.3496,6.36,6.2988,6.1168,6.0899,6.0247,5.8518,5.8297,5.8297,5.8297,5.8297,5.8297,5.8297,5.8297,5.8297,5.8297,5.8487,5.8614,5.8614,5.9064,5.9728,6.0613,6.115,6.1751,6.2421,6.2421,6.2421,6.2421,6.2421,6.2421,3.4182,3.6344,3.7932,3.7446,3.9362,4.149,4.1897,4.2615,4.3043,4.24,4.4051,4.5805,4.6486,4.7308,4.7398,4.5941,4.5134,4.4487,4.3797,4.5417,4.6188,4.487,4.6602,4.7918,4.7902,4.8004,4.8188,4.8413,4.9586,5.0088,4.9634,5.0691,5.1315,5.1298,5.2027,5.2391,5.2391,5.2391,5.2391,5.2391,5.2391,5.2391,5.2409,5.2729,5.2886,5.2903,5.3314,5.3501,5.3501,5.3518,5.438,5.5699,5.5699,5.663,5.79,5.79,5.79,5.79,5.79,5.79,5.79,5.79,5.79,5.79,5.79,5.79,5.79,5.7934,5.7934,5.8084,5.881,5.9161,5.9808,6.1716,6.2185,6.2447,6.339,6.36,6.36,6.36,6.36,6.36,6.36,6.36,6.2988,6.1168,6.0899,6.0247,5.8518,5.8297,5.8297,5.8297,5.8297,5.8297,5.8297,5.8297,5.8297,5.8297,5.8938,5.9317,5.9317,5.9317,5.9981,6.1371,6.1403,6.1751,6.2421,6.2421,6.2421,6.2421,6.2421,6.2421,3.428,3.5221,3.6064,3.8171,3.9194,4.0056,4.1591,4.3307,4.4886,4.587,4.5819,4.5967,4.7222,4.7237,4.693,4.6558,4.5469,4.4479,4.3798,4.5492,4.6317,4.4874,4.748,4.8979,4.8015,4.8162,4.8561,4.9136,5.0033,5.053,5.0371,5.145,5.1828,5.1298,5.2027,5.2391,5.2391,5.2391,5.2391,5.2391,5.287,5.287,5.2391,5.2498,5.2551,5.2569,5.2764,5.2971,5.3143,5.3956,5.4837,5.5767,5.6274,5.707,5.79,5.79,5.79,5.79,5.79,5.79,5.79,5.79,5.79,5.79,5.79,5.79,5.8035,5.8524,5.8693,5.8945,6.0283,6.066,6.074,6.0901,6.1385,6.1922,6.2497,6.2999,6.3433,6.3581,6.36,6.36,6.36,6.36,6.2988,6.1168,6.0899,6.0247,5.8518,5.8297,5.8297,5.8297,5.8297,5.8297,5.8297,5.8297,5.8297,5.8297,5.8938,5.9317,5.9317,6.0265,6.0961,6.1371,6.1852,6.22,6.2421,6.2421,6.2421,6.2421,6.2421,6.2421,3.4114,3.5159,3.6091,3.7873,3.8818,3.9855,4.207,4.3621,4.4933,4.6253,4.6321,4.6305,4.6885,4.7103,4.6863,4.5767,4.5097,4.4366,4.3427,4.5342,4.6417,4.5271,4.7779,4.9242,4.839,4.8498,4.8885,4.9623,5.0244,5.0574,5.0478,5.1564,5.19,5.1331,5.2292,5.2804,5.2804,5.3069,5.3069,5.2804,5.35,5.3467,5.2822,5.2894,5.2764,5.2498,5.2641,5.2948,5.3372,5.4086,5.5017,5.6066,5.6505,5.7167,5.79,5.79,5.79,5.79,5.79,5.79,5.79,5.79,5.79,5.79,5.79,5.79,5.8051,5.8776,5.9013,5.9351,6.0892,6.1298,6.1322,6.131,6.1673,6.2142,6.2463,6.2862,6.3208,6.334,6.3433,6.3489,6.3489,6.3544,6.2988,6.1168,6.0289,5.9609,5.8918,5.8518,5.8297,5.8297,5.8297,5.8297,5.8297,5.8297,5.8424,5.8677,5.9317,5.9823,6.0139,6.0961,6.1529,6.1782,6.22,6.2421,6.2421,6.2421,6.2421,6.2421,6.2421,6.2421,3.376,3.5643,3.7175,3.6846,3.8376,4.0543,4.287,4.3465,4.375,4.4629,4.575,4.6424,4.5793,4.6733,4.6733,4.412,4.4206,4.4199,4.2954,4.5156,4.6679,4.5959,4.78,4.907,4.8998,4.9003,4.9236,4.9848,5.0273,5.0358,5.0094,5.1233,5.1732,5.143,5.2771,5.3482,5.3482,5.4177,5.4177,5.3515,5.4243,5.421,5.35,5.3681,5.3421,5.2771,5.2982,5.3471,5.4107,5.4276,5.5206,5.6511,5.6663,5.7229,5.79,5.79,5.79,5.7934,5.8001,5.7967,5.7934,5.8069,5.8069,5.8035,5.8103,5.8103,5.8254,5.8979,5.9216,5.9554,6.1028,6.14,6.1608,6.2479,6.2688,6.2712,6.2923,6.2981,6.2981,6.3,6.3152,6.3283,6.3283,6.347,6.2988,6.1168,5.9487,5.8678,5.9399,5.8782,5.8297,5.8297,5.8297,5.8297,5.8297,5.8361,5.8645,5.9254,5.9981,6.0708,6.1371,6.1466,6.1782,6.239,6.2421,6.2421,6.2421,6.2421,6.2421,6.2421,6.2421,6.2421,3.309,3.4711,3.6027,3.66,3.8482,4.0468,4.1532,4.2358,4.3408,4.518,4.4951,4.4486,4.4866,4.4761,4.4402,4.3804,4.3827,4.3815,4.3516,4.5929,4.744,4.6674,4.8973,5.0375,4.9757,4.969,4.9754,4.988,5.0273,5.0358,5.0094,5.169,5.247,5.2175,5.3533,5.4276,5.4276,5.4409,5.4409,5.4276,5.5005,5.4972,5.4276,5.4332,5.4251,5.4118,5.4286,5.4477,5.4728,5.6228,5.671,5.6612,5.7956,5.8217,5.79,5.79,5.79,5.8001,5.8558,5.8389,5.8103,5.9235,5.9235,5.8863,5.9438,5.9641,5.9776,6.0588,6.0825,6.1028,6.1907,6.2144,6.2197,6.2406,6.2459,6.2518,6.2712,6.2751,6.2808,6.2981,6.3152,6.3283,6.3283,6.347,6.2988,6.1168,6.0,5.9133,5.8655,5.8436,5.8297,5.8297,5.8297,5.8297,5.8297,5.878,5.9159,5.9286,6.0487,6.1213,6.1403,6.1909,6.2263,6.2421,6.2421,6.2421,6.2421,6.2421,6.2421,6.2421,6.2421,6.2421,3.2571,3.4298,3.5827,3.6705,3.8623,4.0319,4.0416,4.1333,4.2485,4.3557,4.3741,4.3714,4.374,4.3455,4.3215,4.3215,4.3485,4.3706,4.3706,4.6138,4.7809,4.7396,4.9241,5.037,4.9951,4.9912,4.9912,4.9912,5.0077,5.0102,4.9847,5.1521,5.237,5.2053,5.3985,5.5038,5.5038,5.5369,5.5369,5.5038,5.5767,5.5951,5.5521,5.4806,5.4508,5.4508,5.4619,5.4856,5.5273,5.6615,5.7214,5.7342,5.8207,5.8679,5.8781,5.841,5.8586,5.8998,5.9404,5.9268,5.9066,5.9844,5.9844,5.9607,5.9979,6.0114,6.0283,6.1061,6.1298,6.1467,6.2212,6.24,6.24,6.24,6.24,6.242,6.2518,6.2537,6.2576,6.2693,6.2866,6.3,6.3,6.2908,6.2567,6.1709,6.0471,5.9443,5.8985,5.8564,5.8297,5.8297,5.8297,5.8424,5.8748,5.9096,5.9602,6.0265,6.0992,6.1529,6.1877,6.22,6.2421,6.2421,6.2421,6.2421,6.2421,6.2421,6.2421,6.2421,6.2421,6.2421,3.2035,3.3965,3.5806,3.69,3.8654,4.0053,3.9756,4.0672,4.1605,4.1605,4.2537,4.3151,4.2617,4.2522,4.2553,4.268,4.3186,4.3565,4.366,4.6013,4.7719,4.7719,4.8996,4.9912,4.9912,4.9912,4.9912,4.9912,4.9912,4.9836,4.9687,5.1411,5.2297,5.2103,5.4467,5.58,5.58,5.6382,5.6382,5.58,5.6415,5.6699,5.6666,5.5454,5.4872,5.4872,5.4872,5.5303,5.6031,5.6818,5.7598,5.8319,5.8458,5.9039,5.9665,5.906,5.9328,6.0057,6.0193,6.0178,6.0148,6.0419,6.0419,6.0317,6.0452,6.0486,6.0655,6.1298,6.1501,6.1637,6.2265,6.24,6.24,6.24,6.24,6.24,6.24,6.24,6.24,6.24,6.2557,6.2727,6.2765,6.2308,6.1943,6.1989,6.0586,5.9477,5.9399,5.8769,5.8297,5.8297,5.8392,5.8708,5.9254,5.9538,6.017,6.134,6.1498,6.1845,6.239,6.2421,6.2421,6.2421,6.2421,6.2421,6.2421,6.2421,6.2421,6.2421,6.2421,6.2421,3.1037,3.3183,3.5202,3.664,3.8247,3.9597,4.0292,4.1051,4.1605,4.1605,4.1763,4.1841,4.1763,4.1763,4.1953,4.2617,4.2775,4.3028,4.3628,4.557,4.6961,4.6961,4.868,4.9912,4.9912,4.9912,4.9912,4.9912,4.9912,5.0026,5.0358,5.2152,5.3292,5.3577,5.5509,5.6547,5.6547,5.6666,5.6666,5.6547,5.6666,5.6699,5.6699,5.65,5.6415,5.6415,5.6415,5.6812,5.7594,5.8501,5.8946,5.9138,5.995,5.9948,5.9519,5.9418,5.9588,5.9929,6.0569,6.0502,6.0317,6.1637,6.167,6.1264,6.1907,6.2076,6.213,6.2231,6.2245,6.2299,6.2347,6.24,6.24,6.24,6.24,6.24,6.24,6.24,6.24,6.24,6.2557,6.2751,6.2923,6.222,6.1487,6.0899,5.9924,5.9056,5.8541,5.839,5.8297,5.8297,5.8812,5.9191,5.9286,6.0423,6.1213,6.1371,6.1947,6.2326,6.2421,6.2421,6.2421,6.2421,6.2421,6.2421,6.2421,6.2421,6.2421,6.2421,6.2421,6.2421,3.1795,3.4065,3.5793,3.6869,3.8575,4.0024,3.9992,4.1146,4.2111,4.17,4.1605,4.1605,4.1605,4.1605,4.17,4.2048,4.2427,4.2806,4.3091,4.5254,4.6803,4.6803,4.8616,4.9912,4.9912,4.9912,4.9912,4.9912,4.9912,4.9991,5.0136,5.1948,5.3036,5.3213,5.5261,5.6349,5.6349,5.6583,5.6699,5.6699,5.6699,5.6699,5.6699,5.6699,5.6699,5.6732,5.7163,5.7475,5.7892,5.9132,5.967,5.9704,6.0104,6.0391,6.0525,6.0091,6.0409,6.1088,6.1391,6.1461,6.1501,6.2178,6.2178,6.1975,6.2279,6.24,6.24,6.24,6.24,6.24,6.24,6.24,6.24,6.24,6.24,6.24,6.24,6.24,6.24,6.24,6.2459,6.2596,6.2789,6.2043,6.1189,6.0468,5.9707,5.8921,5.8173,5.8205,5.8297,5.8297,5.8906,5.9444,5.9823,6.0803,6.1561,6.1916,6.2232,6.2421,6.2421,6.2421,6.2421,6.2421,6.2421,6.2421,6.2421,6.2421,6.2421,6.2421,6.2421,6.2421,3.1712,3.4014,3.5666,3.6384,3.823,3.9849,3.974,4.1097,4.2282,4.1936,4.1889,4.1826,4.162,4.1605,4.1605,4.1605,4.2079,4.2427,4.2427,4.478,4.655,4.655,4.8522,4.9912,4.9912,4.9912,4.9912,4.9912,5.007,5.0164,5.0164,5.1957,5.2965,5.2965,5.4982,5.6106,5.6106,5.6486,5.6699,5.6699,5.6699,5.6699,5.6699,5.6699,5.6799,5.7031,5.7541,5.7906,5.8171,5.9463,6.0125,6.0291,6.0291,6.0725,6.1268,6.0723,6.1046,6.1837,6.1837,6.201,6.2243,6.2302,6.2302,6.2322,6.2381,6.24,6.24,6.24,6.24,6.24,6.24,6.24,6.24,6.24,6.24,6.24,6.24,6.24,6.24,6.24,6.24,6.2381,6.2268,6.15,6.0607,5.987,5.9202,5.8569,5.7965,5.8136,5.8361,5.855,5.9159,5.9823,6.0518,6.1245,6.1877,6.2358,6.2421,6.2421,6.2421,6.2421,6.2421,6.2421,6.2421,6.2421,6.2421,6.2421,6.2421,6.2421,6.2421,6.2421,2.9396,3.1534,3.3747,3.4616,3.6412,3.8355,3.9893,4.0885,4.169,4.2488,4.2648,4.2427,4.1731,4.1605,4.1605,4.1605,4.1637,4.1668,4.1668,4.4085,4.5837,4.5837,4.8237,4.9912,4.9912,4.9912,4.9912,4.9912,5.0532,5.0931,5.0931,5.267,5.3661,5.3661,5.5222,5.6106,5.6106,5.6486,5.6699,5.6699,5.6699,5.6699,5.6699,5.6699,5.7097,5.774,5.7773,5.8204,5.8899,5.9694,6.0423,6.1053,6.1053,6.1086,6.1119,6.1053,6.1219,6.1424,6.1424,6.1567,6.177,6.1957,6.2017,6.2056,6.2322,6.24,6.24,6.24,6.24,6.24,6.24,6.24,6.24,6.24,6.24,6.24,6.24,6.24,6.24,6.24,6.24,6.211,6.1247,6.0301,5.9433,5.8696,5.7995,5.7684,5.7871,5.8136,5.855,5.9191,5.9854,6.055,6.1277,6.1947,6.2358,6.2421,6.2421,6.2421,6.2421,6.2421,6.2421,6.2421,6.2421,6.2421,6.2421,6.2421,6.2421,6.2421,6.2421,6.2421,2.8984,3.0464,3.2008,3.3655,3.5755,3.7684,3.8764,4.0321,4.1617,4.1936,4.1984,4.1921,4.1668,4.1605,4.1605,4.1605,4.1605,4.1763,4.2237,4.4338,4.5981,4.6392,4.849,5.007,5.0563,5.0595,5.0785,5.1207,5.148,5.1638,5.1638,5.27,5.3322,5.3322,5.4583,5.5544,5.6086,5.6244,5.6427,5.6699,5.6699,5.6699,5.6699,5.6699,5.7077,5.7806,5.8303,5.8933,5.9661,6.0423,6.0854,6.1119,6.1119,6.1119,6.1119,6.1119,6.1231,6.1404,6.1404,6.1526,6.1709,6.179,6.181,6.185,6.207,6.213,6.2189,6.2361,6.24,6.24,6.24,6.24,6.24,6.24,6.24,6.24,6.24,6.24,6.24,6.24,6.24,6.209,6.1152,6.0215,5.9333,5.8432,5.77,5.7306,5.7377,5.813,5.8798,5.8995,6.0233,6.1119,6.1371,6.201,6.2421,6.2421,6.2421,6.2421,6.2421,6.2421,6.2421,6.2421,6.2421,6.2421,6.2421,6.2421,6.2421,6.2421,6.2421,6.2421,2.8492,2.9953,3.1327,3.3135,3.5463,3.7467,3.8059,3.9863,4.1519,4.1888,4.2157,4.2284,4.23,4.2284,4.222,4.2016,4.1984,4.222,4.2947,4.4843,4.6392,4.7087,4.9015,5.0563,5.1279,5.1342,5.1512,5.1986,5.2218,5.2365,5.2365,5.306,5.3503,5.3671,5.4525,5.5348,5.6086,5.6244,5.646,5.6699,5.6699,5.6699,5.6732,5.6964,5.7475,5.8204,5.8933,5.9562,6.0059,6.0821,6.1119,6.1119,6.1119,6.1119,6.1119,6.1119,6.1169,6.1314,6.1314,6.1396,6.1519,6.1567,6.1588,6.1628,6.183,6.1971,6.2037,6.2209,6.2341,6.24,6.24,6.24,6.24,6.24,6.24,6.24,6.24,6.24,6.2302,6.1991,6.1931,6.1534,6.0291,5.9521,5.8818,5.7863,5.737,5.7084,5.7084,5.8088,5.8859,5.9109,6.0345,6.1229,6.1449,6.1964,6.2266,6.2266,6.234,6.2421,6.2421,6.2421,6.2421,6.2421,6.2421,6.2421,6.2421,6.2421,6.2421,6.2421,6.2421,6.2421,0.0,0.0,0.0,3.2998,3.5399,3.7526,3.7904,3.959,4.1377,4.2406,4.3183,4.3657,4.3628,4.3643,4.3467,4.2821,4.2743,4.2947,4.3657,4.5489,4.7056,4.7846,4.973,5.1247,5.1954,5.2049,5.2049,5.208,5.2744,5.3123,5.3123,5.3755,5.4316,5.4749,5.5143,5.5572,5.6066,5.6447,5.6641,5.668,5.668,5.668,5.6732,5.7442,5.8204,5.8933,5.9694,6.0026,6.0092,6.0821,6.1119,6.1119,6.1119,6.1119,6.1119,6.1119,6.1119,6.1119,6.1119,6.1119,6.114,6.1322,6.1383,6.1424,6.1628,6.185,6.1997,6.1997,6.2189,6.2381,6.24,6.24,6.24,6.24,6.24,6.2381,6.2361,6.2361,6.207,6.1173,6.0966,6.0365,5.8501,5.8211,5.7863,5.6954,5.6971,5.7115,5.7115,5.7952,5.8781,5.9554,6.0216,6.0871,6.152,6.1841,6.1991,6.1991,6.2216,6.2396,6.2396,6.2365,6.2365,6.2421,6.2421,6.2421,6.2421,6.2421,6.2421,6.2421,6.2421,6.2421,2.7519,0.0,0.0,0.0,0.0,0.0,3.7483,3.9231,4.06,4.0887,4.2042,4.2663,4.1652,4.2284,4.3074,4.3373,4.3404,4.3657,4.432,4.5363,4.6708,4.8415,4.9552,5.0911,5.2628,5.2807,5.2997,5.3471,5.3724,5.3818,5.3818,5.4008,5.4167,5.4295,5.4391,5.4665,5.5175,5.5266,5.5633,5.6284,5.6284,5.6441,5.6732,5.7442,5.8204,5.8933,5.9694,6.0291,6.0821,6.102,6.1119,6.1119,6.1119,6.1119,6.1119,6.1119,6.1119,6.1119,6.1119,6.1119,6.1119,6.1148,6.1169,6.121,6.1404,6.1526,6.1608,6.175,6.1951,6.2169,6.2361,6.24,6.24,6.24,6.24,6.2223,6.1534,6.1391,6.1329,6.1049,6.0461,5.9587,5.8418,5.8211,5.7863,5.6954,5.6858,5.706,5.753,5.843,5.9259,5.9942,6.0802,6.1395,6.1582,6.1658,6.1708,6.1708,6.1759,6.1916,6.2091,6.2116,6.2191,6.2421,6.2421,6.2421,6.2421,6.2421,6.2421,6.2421,6.2421,6.2421,2.7673,2.8584,2.9722,3.1072,0.0,0.0,3.6691,3.8232,3.9548,4.0274,4.1649,4.2537,4.1983,4.2789,4.3674,4.4036,4.3878,4.4036,4.5015,4.6044,4.7119,4.832,4.9078,5.0311,5.246,5.2628,5.306,5.404,5.4103,5.4103,5.4103,5.4103,5.4103,5.4103,5.4295,5.4528,5.4822,5.4957,5.5389,5.6106,5.5906,5.6277,5.7177,5.7727,5.8474,5.9396,6.0158,6.0721,6.1119,6.1119,6.1119,6.1119,6.1119,6.1119,6.1119,6.1119,6.1119,6.1119,6.1119,6.1119,6.1119,6.1119,6.1119,6.114,6.1231,6.1322,6.1424,6.1547,6.1729,6.1917,6.2169,6.2229,6.2249,6.2381,6.209,6.1656,6.1111,6.0365,5.9827,5.9827,5.9367,5.8728,5.777,5.7637,5.7424,5.6882,5.7032,5.734,5.774,5.8758,5.9599,5.9975,6.0777,6.1283,6.1283,6.1385,6.1436,6.1436,6.1531,6.1708,6.1991,6.2016,6.2116,6.2365,6.2421,6.2421,6.2421,6.2421,6.2421,6.2421,6.2421,6.2263,2.8227,2.8953,2.9692,3.0979,3.2796,0.0,3.5599,3.6906,3.8294,3.9771,4.1334,4.2583,4.3057,4.3783,4.4401,4.4541,4.4162,4.4257,4.5489,4.6834,4.7719,4.7877,4.8478,4.9647,5.1575,5.1764,5.2365,5.3755,5.4008,5.4103,5.4103,5.4103,5.4103,5.4103,5.4475,5.4707,5.4707,5.506,5.5491,5.5947,5.5511,5.6165,5.7668,5.8031,5.8815,5.9964,6.0767,6.1119,6.1119,6.1119,6.1119,6.1119,6.1119,6.1119,6.1119,6.1119,6.1119,6.1119,6.1119,6.1119,6.1119,6.1119,6.1119,6.1119,6.1119,6.1231,6.1363,6.1383,6.1526,6.1709,6.1917,6.1997,6.2037,6.2169,6.1574,6.0945,6.0736,5.9367,5.8165,5.8072,5.8049,5.777,5.6954,5.681,5.684,5.6902,5.7401,5.7832,5.7986,5.9064,5.9809,5.9901,6.0424,6.0794,6.0794,6.1,6.1186,6.1186,6.1385,6.1607,6.1891,6.1941,6.2091,6.234,6.2365,6.2358,6.2295,6.2358,6.2358,6.2295,6.2295,6.194,2.9415,2.9292,2.9599,3.0399,3.1705,0.0,3.45,3.5949,3.7001,3.6857,3.8984,4.0574,3.9692,4.0988,4.2568,4.372,4.4225,4.4605,4.4857,4.5647,4.6645,4.7751,4.8478,4.9268,5.0228,5.0322,5.0891,5.2281,5.3471,5.4103,5.4103,5.4103,5.4103,5.4103,5.4189,5.4253,5.4253,5.4316,5.4581,5.504,5.4957,5.5571,5.6779,5.7764,5.865,5.9476,6.0621,6.1119,6.1119,6.1119,6.1119,6.1119,6.1119,6.1119,6.1119,6.1119,6.1119,6.1119,6.1119,6.1119,6.1119,6.1119,6.1119,6.1119,6.1119,6.114,6.119,6.1342,6.1424,6.1506,6.1709,6.1877,6.1803,6.1119,6.0986,6.0588,5.9088,5.8455,5.798,5.7211,5.7067,5.6995,5.6834,5.681,5.697,5.7525,5.7709,5.8202,5.928,5.9624,5.9993,6.0547,6.0732,6.0794,6.0794,6.0845,6.0871,6.0871,6.0923,6.1078,6.1334,6.1563,6.1784,6.2066,6.229,6.2137,6.1593,6.2137,6.2105,6.1593,6.1593,6.1213,2.8976,2.8907,2.9569,3.0233,3.0922,0.0,0.0,3.4986,3.5489,3.5948,3.7853,3.9251,3.8619,3.9629,4.0893,4.1983,4.2109,4.2347,4.3042,4.497,4.6455,4.6803,4.715,4.7751,4.8806,4.8901,4.9754,5.1839,5.2649,5.3376,5.4071,5.4103,5.4103,5.4103,5.4103,5.4103,5.4103,5.4103,5.4359,5.4802,5.4921,5.5666,5.7029,5.7741,5.8582,5.9533,6.0128,6.0506,6.075,6.075,6.0877,6.1119,6.1119,6.1119,6.1119,6.1119,6.1119,6.1119,6.1119,6.1119,6.1119,6.1119,6.1119,6.1119,6.1119,6.1119,6.114,6.121,6.1252,6.1314,6.1486,6.1235,6.087,6.0501,5.9903,5.9135,5.8194,5.7746,5.7447,5.7314,5.7278,5.7278,5.7278,5.7278,5.7525,5.8202,5.8572,5.9033,5.9686,6.0086,6.0424,6.0763,6.0794,6.0794,6.0794,6.0794,6.0794,6.0794,6.0794,6.0923,6.118,6.1334,6.1537,6.1815,6.1596,6.1325,6.1005,6.1005,6.0938,6.0834,6.0834,6.0645,2.8931,2.8905,2.9692,3.0109,3.0399,3.1178,0.0,0.0,0.0,3.5314,3.6811,3.7814,3.7718,3.8365,3.9029,3.9345,3.9218,3.9471,4.0451,4.3485,4.5602,4.5602,4.5837,4.6392,4.7403,4.8098,4.9236,5.1069,5.206,5.2934,5.366,5.3945,5.4103,5.4103,5.4103,5.4103,5.4103,5.4103,5.4295,5.4676,5.495,5.5833,5.727,5.7696,5.8512,5.9574,5.9684,5.9968,6.0399,6.0399,6.0687,6.1119,6.1119,6.1119,6.1119,6.1119,6.1119,6.1119,6.1119,6.1119,6.1119,6.1119,6.1119,6.1119,6.1119,6.1119,6.1119,6.1119,6.0961,6.0856,6.1032,6.0355,5.962,5.961,5.8632,5.7684,5.7496,5.7105,5.6978,5.7531,5.7721,5.7863,5.7962,5.7986,5.8233,5.891,5.9465,5.9839,5.9963,6.0455,6.0794,6.0794,6.0794,6.0794,6.0794,6.0794,6.0794,6.0794,6.0794,6.0897,6.1103,6.1155,6.1272,6.1395,6.089,6.0453,6.0203,5.9822,5.9798,6.0153,6.0153,6.0153,3.1549,3.0623,3.0171,2.963,3.0412,3.1226,3.0949,0.0,3.286,3.3193,0.0,3.5411,3.4875,0.0,0.0,3.5205,3.6547,3.7543,3.7055,3.9503,4.2189,4.4541,4.595,4.6518,4.6058,4.8825,5.0014,4.8478,5.2312,5.4018,5.2333,5.3439,5.4103,5.4103,5.4103,5.4103,5.4103,5.4103,5.4146,5.4189,5.4798,5.5537,5.6366,5.741,5.8345,5.9085,5.953,5.9968,6.0399,6.0399,6.0687,6.1119,6.1119,6.1119,6.1119,6.1119,6.1119,6.1119,6.1119,6.1119,6.1119,6.1119,6.1119,6.1119,6.1119,6.1119,6.1119,6.1119,6.0463,5.9794,5.9816,5.9202,5.8383,5.7559,5.7394,5.7213,5.639,5.6578,5.6904,5.6965,5.7456,5.8065,5.8595,5.8695,5.891,5.9588,5.9747,5.9993,6.0609,6.0763,6.0794,6.0794,6.0794,6.0794,6.0794,6.0794,6.0794,6.0794,6.0794,6.082,6.0845,6.1052,6.1054,6.0734,6.064,6.0016,5.883,5.936,5.9634,5.9683,5.9683,5.9628,3.159,3.1677,3.2309,3.0904,3.1586,3.2382,3.1692,3.2176,3.2662,3.2324,0.0,0.0,0.0,0.0,0.0,0.0,3.4478,3.5078,3.5173,3.7259,3.9834,4.2568,4.3801,4.4622,4.511,4.832,4.9679,4.8035,5.2017,5.3766,5.2091,5.3344,5.4103,5.4103,5.4103,5.4103,5.4103,5.4103,5.4103,5.4103,5.5209,5.5904,5.6242,5.7521,5.831,5.8619,5.8792,5.9152,5.9574,5.9574,5.9859,6.0292,6.0292,6.0623,6.1119,6.1119,6.1119,6.1119,6.1119,6.1119,6.1119,6.1119,6.1119,6.1119,6.1119,6.1119,6.0961,6.0388,5.9925,5.9455,5.8867,5.8039,5.7276,5.6879,5.6572,5.6329,5.6364,5.6637,5.7137,5.7926,5.8295,5.8676,5.9387,5.9292,5.944,6.0245,6.0363,6.0486,6.0763,6.0794,6.0794,6.0794,6.0794,6.0794,6.0794,6.0794,6.0794,6.0794,6.0794,6.0794,6.0794,6.0897,6.0902,6.0721,6.0319,5.9854,5.9297,5.9204,5.9328,5.9699,5.9189,5.9398,3.2432,3.2869,3.3854,3.2303,3.2672,3.3261,3.2785,3.276,3.272,3.2449,3.2693,0.0,0.0,0.0,3.2196,3.1918,0.0,3.2708,3.2613,3.46,3.7242,4.0372,4.1904,4.3137,4.4306,4.7732,4.9185,4.7466,5.1543,5.3313,5.1523,5.2965,5.3913,5.4103,5.4103,5.4103,5.4103,5.4103,5.4103,5.4103,5.5547,5.6211,5.6242,5.7665,5.8297,5.8297,5.8297,5.8573,5.9004,5.9004,5.9264,5.9706,5.9706,6.0184,6.0898,6.0898,6.0981,6.1119,6.1119,6.1119,6.1119,6.1119,6.1119,6.1119,6.1119,6.0898,6.0548,5.9816,5.9212,5.8596,5.7885,5.6974,5.6207,5.6207,5.5971,5.5902,5.6409,5.6868,5.7514,5.8511,5.8844,5.9199,5.9899,5.9797,5.9904,6.0602,6.0742,6.0794,6.0794,6.0794,6.0794,6.0794,6.0794,6.0794,6.0794,6.0794,6.0794,6.0794,6.0794,6.0794,6.0794,6.0794,6.0701,6.0517,6.0055,5.9686,5.9526,5.9218,5.9316,5.9803,5.916,5.952,3.5142,3.4424,3.396,3.3366,3.3303,3.3382,3.3378,3.2973,3.2832,3.3668,3.294,3.2169,3.2266,3.2304,3.1406,0.0,2.9959,0.0,0.0,3.071,3.3999,3.8097,4.102,4.2964,4.366,4.7466,4.8774,4.6058,5.0974,5.2902,5.0133,5.1965,5.3439,5.4071,5.4103,5.4103,5.4103,5.4103,5.4103,5.4103,5.5547,5.6211,5.6242,5.7665,5.8297,5.8297,5.8297,5.8573,5.9004,5.9004,5.9264,5.9706,5.9706,6.0011,6.0399,6.0399,6.0708,6.1119,6.1119,6.1119,6.1119,6.1119,6.1119,6.1119,6.1119,6.0442,5.9631,5.9587,5.8185,5.6686,5.6662,5.5967,5.5229,5.5229,5.5739,5.6188,5.6218,5.718,5.8082,5.8112,5.865,5.9288,5.988,6.0193,6.0372,6.0403,6.0638,6.0794,6.0794,6.0794,6.0794,6.0794,6.0794,6.0794,6.0794,6.0794,6.0794,6.0794,6.0794,6.0794,6.0794,6.0794,6.0486,5.9839,5.9809,5.9495,5.8849,5.9439,5.9778,5.9778,5.9773,6.0111,3.6378,3.6284,3.6212,3.4736,3.5379,3.5933,3.425,3.4138,3.4122,3.3222,3.2158,3.1281,3.097,3.09,3.0445,0.0,0.0,3.0117,0.0,3.0389,3.2455,3.4794,3.8333,4.0862,4.1573,4.5855,4.8004,4.6582,5.0342,5.2112,5.069,5.1733,5.2712,5.3439,5.3882,5.4103,5.4103,5.4103,5.4103,5.4103,5.5547,5.6211,5.6242,5.7665,5.8297,5.8297,5.8297,5.839,5.855,5.855,5.861,5.8769,5.8769,5.9062,5.953,6.0163,6.0708,6.1119,6.1119,6.1119,6.1119,6.1119,6.1119,6.1119,6.1119,6.042,5.9455,5.8799,5.7652,5.6445,5.5819,5.5456,5.5299,5.5773,5.6042,5.6432,5.7274,5.7786,5.8234,5.868,5.8949,5.9153,5.9372,5.9636,6.0008,6.0586,6.0742,6.0794,6.0794,6.0794,6.0794,6.0794,6.0794,6.0794,6.0794,6.0794,6.0794,6.0794,6.0794,6.0794,6.0794,6.0794,6.0701,6.0455,6.0455,6.0332,6.0116,6.0332,6.0455,6.0455,6.0455,6.0578,3.7718,3.7627,3.7471,3.6473,3.7082,3.7542,3.5852,3.5946,3.6021,3.46,3.3466,3.2703,3.2607,3.1874,3.1211,0.0,0.0,0.0,0.0,3.0263,3.1286,3.2411,3.5805,3.8713,4.0419,4.4117,4.6424,4.6455,4.9679,5.1227,5.0299,5.1353,5.2344,5.3092,5.3534,5.385,5.4103,5.4103,5.4103,5.4103,5.5547,5.6211,5.6242,5.7665,5.8297,5.8297,5.8297,5.8297,5.8297,5.8297,5.8297,5.8297,5.8297,5.8596,5.9094,5.9662,6.0184,6.0645,6.0793,6.0835,6.0877,6.1056,6.0856,6.0569,6.0569,5.9619,5.8391,5.7769,5.6879,5.5967,5.5355,5.5179,5.5359,5.6042,5.6372,5.6821,5.7876,5.8294,5.8563,5.9009,5.9099,5.9126,5.9234,5.9395,5.9743,6.0403,6.0586,6.069,6.0794,6.0794,6.0794,6.0794,6.0794,6.0794,6.0794,6.0794,6.0794,6.0794,6.0578,6.0547,6.0794,6.0332,6.0424,6.1132,6.0701,6.0671,6.1163,6.0917,6.0794,6.0794,6.0794,6.0794]},{"header":{"parameterUnit":"m.s-1","parameterCategory":1,"la1":30.6,"la2":29.2853,"lo1":-89.7004,"lo2":-87.6739,"dx":0.0162,"dy":0.0183,"nx":112,"ny":82,"refTime":"2022-11-04T12:00:00:Z","depth":0,"parameterNumber":3,"parameterNumberName":"V-component_of_WINDS"},"data":[0.0,0.0,0.0,0.0,0.0,0.0,0.0,0.0,0.0,0.0,0.0,0.0,0.0,0.0,0.0,0.0,0.0,0.0,0.0,0.0,0.0,0.0,0.0,0.0,0.0,0.0,0.0,0.0,0.0,0.0,0.0,0.0,0.0,0.0,0.0,0.0,0.0,0.0,0.0,0.0,0.0,0.0,0.0,0.0,0.0,0.0,0.0,0.0,0.0,0.0,0.0,0.0,0.0,0.0,0.0,0.0,0.0,0.0,0.0,0.0,0.0,0.0,0.0,0.0,0.0,0.0,0.0,0.0,0.0,0.0,0.0,0.0,0.0,0.0,0.0,0.0,0.0,0.0,0.0,0.0,0.0,0.0,0.0,0.0,0.0,0.0,0.0,0.0,0.0,0.0,2.4343,2.4163,2.4338,2.5008,2.6325,2.5753,2.4902,2.3873,0.0,0.0,0.0,0.0,0.0,0.0,0.0,0.0,0.0,0.0,0.0,0.0,0.0,0.0,0.0,0.0,0.0,0.0,0.0,0.0,0.0,0.0,0.0,0.0,0.0,0.0,0.0,0.0,0.0,0.0,0.0,0.0,0.0,0.0,0.0,0.0,0.0,0.0,0.0,0.0,0.0,0.0,0.0,0.0,0.0,0.0,0.0,0.0,0.0,0.0,0.0,0.0,0.0,0.0,0.0,0.0,0.0,0.0,0.0,0.0,0.0,0.0,0.0,0.0,0.0,0.0,0.0,0.0,0.0,0.0,0.0,0.0,0.0,0.0,0.0,0.0,0.0,0.0,0.0,0.0,0.0,0.0,0.0,0.0,0.0,0.0,0.0,0.0,0.0,0.0,0.0,0.0,0.0,0.0,0.0,0.0,0.0,0.0,0.0,0.0,0.0,0.0,0.0,0.0,2.4821,2.5954,2.514,2.4813,2.5601,2.6093,2.5654,2.3922,0.0,0.0,0.0,0.0,0.0,0.0,0.0,0.0,0.0,0.0,0.0,0.0,0.0,0.0,0.0,0.0,0.0,0.0,0.0,0.0,0.0,0.0,0.0,0.0,0.0,0.0,0.0,0.0,0.0,0.0,0.0,0.0,0.0,0.0,0.0,0.0,0.0,0.0,0.0,0.0,0.0,0.0,0.0,0.0,0.0,0.0,0.0,0.0,0.0,0.0,0.0,0.0,0.0,0.0,0.0,0.0,0.0,0.0,0.0,0.0,0.0,0.0,0.0,0.0,0.0,0.0,0.0,0.0,0.0,0.0,0.0,0.0,0.0,0.0,0.0,0.0,0.0,0.0,0.0,0.0,0.0,0.0,0.0,0.0,0.0,0.0,0.0,0.0,0.0,0.0,0.0,0.0,0.0,0.0,0.0,0.0,0.0,0.0,0.0,0.0,0.0,0.0,0.0,2.4137,2.5678,2.7136,2.6019,2.5456,2.6253,2.6386,2.5693,2.3905,2.3577,0.0,0.0,0.0,0.0,0.0,0.0,0.0,0.0,0.0,0.0,0.0,0.0,0.0,0.0,0.0,0.0,0.0,0.0,0.0,0.0,0.0,0.0,0.0,0.0,0.0,0.0,0.0,0.0,0.0,0.0,0.0,0.0,0.0,0.0,0.0,0.0,0.0,0.0,0.0,0.0,0.0,0.0,0.0,0.0,0.0,0.0,0.0,0.0,0.0,0.0,0.0,0.0,0.0,0.0,0.0,0.0,0.0,0.0,0.0,0.0,0.0,0.0,0.0,0.0,0.0,0.0,0.0,0.0,0.0,0.0,0.0,0.0,0.0,0.0,0.0,0.0,0.0,0.0,0.0,0.0,0.0,0.0,0.0,0.0,0.0,0.0,0.0,0.0,0.0,0.0,0.0,0.0,0.0,0.0,0.0,0.0,0.0,0.0,0.0,0.0,0.0,0.0,2.5092,2.6381,2.7667,2.6542,2.6039,2.6858,2.6647,2.5749,2.3989,2.3833,0.0,0.0,0.0,0.0,0.0,0.0,0.0,0.0,0.0,0.0,0.0,0.0,0.0,0.0,0.0,0.0,0.0,0.0,0.0,0.0,0.0,0.0,0.0,0.0,0.0,0.0,0.0,0.0,0.0,0.0,0.0,0.0,0.0,0.0,0.0,0.0,0.0,0.0,0.0,0.0,0.0,0.0,0.0,0.0,0.0,0.0,0.0,0.0,0.0,0.0,0.0,0.0,0.0,0.0,0.0,0.0,0.0,0.0,0.0,0.0,0.0,0.0,0.0,0.0,0.0,0.0,0.0,0.0,0.0,0.0,0.0,0.0,0.0,0.0,0.0,0.0,0.0,0.0,0.0,0.0,0.0,0.0,0.0,0.0,0.0,0.0,0.0,0.0,0.0,0.0,0.0,0.0,0.0,0.0,0.0,0.0,0.0,0.0,0.0,0.0,0.0,0.0,2.549,2.6654,2.721,2.6316,2.5977,2.6661,2.6917,2.6217,2.4281,2.3948,0.0,0.0,0.0,0.0,0.0,0.0,0.0,0.0,0.0,0.0,0.0,0.0,0.0,0.0,0.0,0.0,0.0,0.0,0.0,0.0,0.0,0.0,0.0,0.0,0.0,0.0,0.0,0.0,0.0,0.0,0.0,0.0,0.0,0.0,0.0,0.0,0.0,0.0,0.0,0.0,0.0,0.0,0.0,0.0,0.0,0.0,0.0,0.0,0.0,0.0,0.0,0.0,0.0,0.0,0.0,0.0,0.0,0.0,0.0,0.0,0.0,0.0,0.0,0.0,0.0,0.0,0.0,0.0,0.0,0.0,0.0,0.0,0.0,0.0,0.0,0.0,0.0,0.0,0.0,0.0,0.0,0.0,0.0,0.0,0.0,0.0,0.0,0.0,0.0,0.0,0.0,0.0,0.0,0.0,0.0,0.0,0.0,0.0,0.0,0.0,0.0,0.0,2.5439,2.7254,2.8036,2.7233,2.6786,2.7168,2.7455,2.6641,2.4335,0.0,0.0,0.0,0.0,0.0,0.0,0.0,0.0,0.0,0.0,0.0,0.0,0.0,0.0,0.0,0.0,0.0,0.0,0.0,0.0,0.0,0.0,0.0,0.0,0.0,0.0,0.0,0.0,0.0,0.0,0.0,0.0,0.0,0.0,0.0,0.0,0.0,0.0,0.0,0.0,0.0,0.0,0.0,0.0,0.0,0.0,0.0,0.0,0.0,0.0,0.0,0.0,0.0,0.0,0.0,0.0,0.0,0.0,0.0,0.0,0.0,0.0,0.0,0.0,0.0,0.0,0.0,0.0,0.0,0.0,0.0,0.0,0.0,0.0,0.0,0.0,0.0,0.0,0.0,0.0,0.0,0.0,0.0,0.0,0.0,0.0,0.0,0.0,0.0,0.0,0.0,0.0,0.0,0.0,0.0,0.0,0.0,0.0,0.0,0.0,0.0,0.0,2.2898,2.54,2.7532,2.8379,2.7874,2.7502,2.7643,2.7892,2.7113,2.4998,0.0,0.0,0.0,0.0,0.0,0.0,0.0,0.0,0.0,0.0,0.0,0.0,0.0,0.0,0.0,0.0,0.0,0.0,0.0,0.0,0.0,0.0,0.0,0.0,0.0,0.0,0.0,0.0,0.0,0.0,0.0,0.0,0.0,0.0,0.0,0.0,0.0,0.0,0.0,0.0,0.0,0.0,0.0,0.0,0.0,0.0,0.0,0.0,0.0,0.0,0.0,0.0,0.0,0.0,0.0,0.0,0.0,0.0,0.0,0.0,0.0,0.0,0.0,0.0,0.0,0.0,0.0,0.0,0.0,0.0,0.0,0.0,0.0,0.0,0.0,0.0,0.0,0.0,0.0,0.0,0.0,0.0,0.0,0.0,0.0,0.0,0.0,0.0,0.0,0.0,0.0,0.0,0.0,0.0,0.0,0.0,0.0,0.0,0.0,0.0,0.0,0.0,2.2998,2.5518,2.7417,2.7964,2.801,2.801,2.801,2.8198,2.7734,0.0,0.0,0.0,0.0,0.0,0.0,0.0,0.0,0.0,0.0,0.0,0.0,0.0,0.0,0.0,0.0,0.0,0.0,0.0,0.0,0.0,0.0,0.0,0.0,0.0,0.0,0.0,0.0,0.0,0.0,0.0,0.0,0.0,0.0,0.0,0.0,0.0,0.0,0.0,0.0,0.0,0.0,0.0,0.0,0.0,0.0,0.0,0.0,0.0,0.0,0.0,0.0,0.0,0.0,0.0,0.0,0.0,0.0,0.0,0.0,0.0,0.0,0.0,0.0,0.0,0.0,0.0,0.0,0.0,0.0,0.0,0.0,0.0,0.0,0.0,0.0,0.0,0.0,0.0,0.0,0.0,0.0,0.0,0.0,0.0,0.0,0.0,0.0,0.0,0.0,0.0,0.0,0.0,0.0,0.0,0.0,0.0,0.0,0.0,0.0,0.0,0.0,0.0,2.2416,2.5529,2.7943,2.8425,2.8494,2.8654,2.9022,2.8894,2.8365,2.7418,0.0,0.0,0.0,0.0,0.0,0.0,0.0,0.0,0.0,0.0,0.0,0.0,0.0,0.0,0.0,0.0,0.0,0.0,0.0,0.0,0.0,0.0,0.0,0.0,0.0,0.0,0.0,0.0,0.0,0.0,0.0,0.0,0.0,0.0,0.0,0.0,0.0,0.0,0.0,0.0,0.0,0.0,0.0,0.0,0.0,0.0,0.0,0.0,0.0,0.0,0.0,0.0,0.0,0.0,0.0,0.0,0.0,0.0,0.0,0.0,0.0,0.0,0.0,0.0,0.0,0.0,0.0,0.0,0.0,0.0,0.0,0.0,0.0,0.0,0.0,0.0,0.0,0.0,0.0,0.0,0.0,0.0,0.0,0.0,0.0,0.0,0.0,0.0,0.0,0.0,0.0,0.0,0.0,0.0,0.0,0.0,0.0,0.0,0.0,0.0,0.0,0.0,2.2391,2.5654,2.8193,2.8654,2.8884,2.916,2.9458,2.9131,2.8611,2.8049,0.0,0.0,0.0,0.0,0.0,0.0,0.0,0.0,0.0,0.0,0.0,0.0,0.0,0.0,0.0,0.0,0.0,0.0,0.0,0.0,0.0,0.0,0.0,0.0,0.0,0.0,0.0,0.0,0.0,0.0,0.0,0.0,0.0,0.0,0.0,0.0,0.0,0.0,0.0,0.0,0.0,0.0,0.0,0.0,0.0,0.0,0.0,0.0,0.0,0.0,0.0,0.0,0.0,0.0,0.0,0.0,0.0,0.0,0.0,0.0,0.0,0.0,0.0,0.0,0.0,0.0,0.0,0.0,0.0,0.0,0.0,0.0,0.0,0.0,0.0,0.0,0.0,0.0,0.0,0.0,0.0,0.0,0.0,0.0,0.0,0.0,0.0,0.0,0.0,0.0,0.0,0.0,0.0,0.0,0.0,0.0,0.0,0.0,0.0,0.0,0.0,0.0,2.2882,2.5948,2.8331,2.8792,2.9274,2.9573,2.9573,2.916,2.8786,2.8514,0.0,0.0,0.0,0.0,0.0,0.0,0.0,0.0,0.0,0.0,0.0,0.0,0.0,0.0,0.0,0.0,0.0,0.0,0.0,0.0,0.0,0.0,0.0,0.0,0.0,0.0,0.0,0.0,0.0,0.0,0.0,0.0,0.0,0.0,0.0,0.0,0.0,0.0,0.0,0.0,0.0,0.0,0.0,0.0,0.0,0.0,0.0,0.0,0.0,0.0,0.0,0.0,0.0,0.0,0.0,0.0,0.0,0.0,0.0,0.0,1.5948,1.4131,0.0,0.0,0.0,0.0,0.0,0.0,0.0,0.0,0.0,0.0,0.0,0.0,0.0,0.0,0.0,0.0,0.0,0.0,0.0,0.0,0.0,0.0,0.0,0.0,0.0,0.0,0.0,0.0,0.0,0.0,0.0,0.0,0.0,0.0,0.0,0.0,0.0,0.0,0.0,0.0,2.4305,2.7168,2.9366,2.9848,2.9964,3.0032,3.0032,3.0308,3.0376,3.0136,2.9042,0.0,0.0,0.0,0.0,0.0,0.0,0.0,0.0,0.0,0.0,0.0,0.0,0.0,0.0,0.0,0.0,0.0,0.0,0.0,0.0,0.0,0.0,0.0,0.0,0.0,0.0,0.0,0.0,0.0,0.0,0.0,0.0,0.0,0.0,0.0,0.0,0.0,0.0,0.0,0.0,0.0,0.0,0.0,0.0,0.0,0.0,0.0,0.0,0.0,0.0,0.0,0.0,0.0,0.0,0.0,0.0,0.0,0.0,0.0,1.719,1.5773,0.0,0.0,0.0,0.0,0.0,0.0,0.0,0.0,0.0,0.0,0.0,0.0,0.0,0.0,0.0,0.0,0.0,0.0,0.0,0.0,0.0,0.0,0.0,0.0,0.0,0.0,0.0,0.0,0.0,0.0,0.0,0.0,0.0,0.0,0.0,0.0,0.0,0.0,0.0,0.0,2.5037,2.7656,2.9688,3.0147,3.0193,3.0193,3.0193,3.0239,3.0307,3.0397,2.9516,0.0,0.0,0.0,0.0,0.0,0.0,0.0,0.0,0.0,0.0,0.0,0.0,0.0,0.0,0.0,0.0,0.0,0.0,0.0,0.0,0.0,0.0,0.0,0.0,0.0,0.0,0.0,0.0,0.0,0.0,0.0,0.0,0.0,0.0,0.0,0.0,0.0,0.0,0.0,0.0,0.0,0.0,0.0,0.0,0.0,0.0,0.0,0.0,0.0,0.0,0.0,0.0,0.0,1.9149,1.9344,1.8891,1.9185,1.9407,1.9449,1.806,1.7314,1.7053,1.642,0.0,0.0,0.0,0.0,0.0,0.0,0.0,0.0,0.0,0.0,0.0,0.0,0.0,0.0,0.0,0.0,0.0,0.0,0.0,0.0,0.0,0.0,1.9007,1.8678,1.9441,1.9808,1.827,0.0,0.0,0.0,0.0,0.0,0.0,0.0,0.0,0.0,0.0,0.0,2.5725,2.8077,2.9917,3.0285,3.0262,3.0193,3.0193,2.994,2.9894,3.017,2.966,2.9053,0.0,0.0,0.0,0.0,0.0,0.0,0.0,0.0,0.0,0.0,0.0,0.0,0.0,0.0,0.0,0.0,0.0,0.0,0.0,0.0,0.0,0.0,0.0,0.0,0.0,0.0,0.0,0.0,0.0,0.0,0.0,0.0,1.5273,1.5384,0.0,0.0,0.0,0.0,0.0,0.0,0.0,0.0,0.0,0.0,0.0,0.0,0.0,1.7953,1.8467,1.9289,1.9672,1.9635,2.0126,2.0489,2.0741,2.062,2.0636,2.073,1.9983,0.0,1.7837,1.7752,0.0,0.0,0.0,0.0,0.0,0.0,0.0,0.0,0.0,0.0,0.0,0.0,0.0,0.0,0.0,0.0,0.0,0.0,0.0,0.0,0.0,0.0,2.1028,2.0953,2.1103,2.1137,2.0897,2.0127,1.9374,1.9005,1.8937,1.9163,0.0,0.0,0.0,0.0,0.0,0.0,2.7051,2.9247,3.0813,3.0881,3.0468,3.0193,3.0193,3.056,3.0629,3.0239,3.056,3.0101,2.8697,2.8651,0.0,0.0,0.0,0.0,0.0,0.0,0.0,0.0,0.0,0.0,0.0,0.0,0.0,0.0,0.0,0.0,0.0,0.0,0.0,0.0,0.0,0.0,0.0,0.0,0.0,0.0,0.0,0.0,0.0,1.3972,1.477,1.5906,1.568,1.5606,0.0,0.0,0.0,0.0,0.0,0.0,0.0,0.0,0.0,1.9476,1.9036,1.9291,2.0372,2.0958,2.1141,2.0918,2.1782,2.2099,2.193,2.1839,2.1746,2.1676,2.1384,2.0849,2.0063,1.9088,1.8357,1.7843,0.0,0.0,0.0,0.0,1.7021,1.7111,1.7775,1.8097,1.8247,1.8473,0.0,0.0,0.0,0.0,0.0,0.0,0.0,2.0143,2.0069,2.072,2.1456,2.1696,2.173,2.1799,2.2029,2.1538,2.0904,2.0425,2.0307,2.0726,2.1995,2.2149,0.0,0.0,0.0,2.7837,2.8528,2.9728,3.079,3.1387,3.0973,3.079,3.1065,3.1042,3.1042,3.1112,3.1042,3.0698,3.0032,2.9711,2.9114,0.0,0.0,0.0,0.0,0.0,0.0,0.0,0.0,0.0,0.0,0.0,0.0,0.0,0.0,0.0,0.0,0.0,0.0,0.0,0.0,0.0,0.0,0.0,0.0,0.0,0.0,0.0,0.0,1.4307,1.4828,1.6333,1.6649,1.6986,0.0,0.0,0.0,0.0,0.0,0.0,1.8815,1.876,1.9492,2.1196,2.0484,2.0683,2.198,2.2424,2.2424,2.2016,2.2913,2.3116,2.2682,2.2682,2.2541,2.2286,2.2286,2.2144,2.1795,2.0432,1.966,1.9299,1.9213,1.8857,1.8377,1.8524,1.8442,1.8377,1.9465,1.9859,1.991,2.0206,2.0103,1.9773,1.9316,0.0,0.0,0.0,0.0,2.0977,2.0788,2.1216,2.1782,2.2073,2.2166,2.2269,2.2629,2.2423,2.2009,2.1499,2.1321,2.1754,2.3283,2.326,0.0,2.5963,2.7067,2.7963,2.8869,2.9818,3.0719,3.1502,3.1364,3.1364,3.1755,3.141,3.1364,3.1755,3.1433,3.1157,3.0996,3.0767,3.0308,2.9688,0.0,0.0,0.0,0.0,0.0,0.0,0.0,0.0,0.0,0.0,0.0,0.0,0.0,0.0,0.0,0.0,0.0,0.0,0.0,0.0,0.0,0.0,0.0,0.0,0.0,0.0,0.0,0.0,0.0,1.7061,1.8617,0.0,0.0,0.0,0.0,1.9182,1.9219,1.9219,1.9274,1.9989,2.0775,2.1632,2.1984,2.2387,2.284,2.3242,2.3242,2.284,2.2913,2.2908,2.2889,2.2889,2.2777,2.257,2.257,2.2428,2.2144,2.1812,2.1499,2.1234,2.0914,2.076,2.0692,2.0309,2.0172,2.0155,2.024,2.0257,2.0275,2.0292,2.0297,2.0326,2.0692,2.0537,0.0,0.0,2.1103,2.1456,2.1816,2.2217,2.2534,2.2568,2.2568,2.2671,2.2997,2.2817,2.2448,2.2046,2.1645,2.1717,2.2686,0.0,2.3175,2.4183,2.5995,2.7252,2.7306,2.9461,3.0979,3.1018,3.1456,3.1755,3.1801,3.1778,3.1755,3.1801,3.1755,3.1525,3.1019,3.1456,3.1226,3.017,3.0124,0.0,0.0,0.0,0.0,0.0,0.0,0.0,0.0,0.0,0.0,0.0,0.0,0.0,0.0,0.0,0.0,0.0,0.0,0.0,0.0,0.0,0.0,0.0,0.0,0.0,0.0,0.0,0.0,1.801,1.9163,0.0,2.0475,2.0126,2.0044,2.0429,2.0466,2.0665,2.1196,2.1508,2.2171,2.3277,2.29,2.2876,2.3279,2.3425,2.3425,2.3279,2.3602,2.373,2.373,2.373,2.3706,2.3615,2.3615,2.3468,2.3224,2.3126,2.2507,2.1668,2.1529,2.1359,2.1234,2.1353,2.1388,2.1422,2.1686,2.1796,2.1744,2.1497,2.1388,2.1422,2.1559,2.1508,2.1422,2.1559,2.1892,2.2149,2.2021,2.2449,2.2912,2.2912,2.3109,2.3332,2.346,2.34,2.3272,2.3126,2.2594,2.2565,2.3808,2.3807,2.4318,2.6337,2.6734,2.7096,2.7804,2.8404,2.9084,2.9996,3.0589,3.1254,3.2106,3.2249,3.226,3.226,3.226,3.2031,3.1548,3.1686,3.1617,3.1249,3.1203,3.0744,0.0,0.0,0.0,0.0,0.0,0.0,0.0,0.0,0.0,0.0,0.0,0.0,0.0,0.0,0.0,0.0,0.0,0.0,0.0,0.0,0.0,0.0,0.0,0.0,0.0,1.6154,1.7087,1.7992,1.952,2.0533,2.0662,2.0929,2.1269,2.1672,2.1709,2.1947,2.2455,2.2643,2.3083,2.3938,2.3413,2.3297,2.3724,2.3749,2.3749,2.3724,2.4048,2.4202,2.4202,2.4202,2.4202,2.4202,2.4202,2.4102,2.3929,2.3929,2.3356,2.2479,2.2382,2.2188,2.1962,2.2238,2.2275,2.2234,2.2517,2.2603,2.2551,2.2286,2.22,2.22,2.22,2.22,2.2234,2.2347,2.2552,2.2732,2.2612,2.2929,2.3306,2.3306,2.3503,2.3726,2.3853,2.3794,2.3726,2.3863,2.3383,2.3298,2.4322,2.4288,2.4757,2.666,2.6752,2.6949,2.7961,2.8254,2.8801,2.9939,3.0514,3.116,3.2069,3.2512,3.2578,3.2223,3.2372,3.2267,3.1789,3.1925,3.2089,3.2306,3.2259,3.1914,3.1272,0.0,0.0,0.0,0.0,0.0,0.0,0.0,0.0,0.0,0.0,0.0,0.0,0.0,0.0,0.0,0.0,0.0,0.0,0.0,0.0,0.0,0.0,0.0,1.5277,1.6641,1.7546,1.7094,1.9788,2.1202,1.9966,2.1327,2.2451,2.2848,2.2866,2.2866,2.2931,2.3279,2.3499,2.3517,2.3517,2.3724,2.4202,2.4202,2.4202,2.4202,2.4202,2.4202,2.4202,2.4202,2.4202,2.4202,2.4202,2.4202,2.4202,2.422,2.4071,2.3798,2.353,2.3256,2.3005,2.3005,2.2812,2.2603,2.2603,2.2603,2.262,2.262,2.262,2.2637,2.2637,2.2637,2.2705,2.3032,2.3134,2.322,2.3589,2.3692,2.3709,2.3709,2.3726,2.3829,2.4152,2.3973,2.3846,2.4169,2.3973,2.384,2.407,2.4123,2.4307,2.4842,2.586,0.0,2.7546,2.9021,3.0222,3.0727,3.1237,3.1545,3.157,3.255,3.272,3.1673,3.2114,3.2169,3.1701,3.2101,3.2647,3.3197,3.3245,3.281,3.1823,0.0,0.0,0.0,0.0,0.0,0.0,0.0,0.0,0.0,0.0,0.0,0.0,0.0,0.0,0.0,0.0,0.0,0.0,0.0,0.0,0.0,1.6108,1.702,1.6863,1.7585,1.8587,1.9799,2.0637,2.106,2.0906,2.1285,2.1746,2.2129,2.1902,2.222,2.3268,2.3444,2.3651,2.3993,2.4012,2.4067,2.4202,2.4202,2.4202,2.4202,2.4202,2.4202,2.4202,2.4202,2.4202,2.4202,2.4202,2.4202,2.422,2.4507,2.4585,2.4473,2.3913,2.3406,2.3005,2.3005,2.2812,2.2603,2.2603,2.2749,2.2963,2.2963,2.316,2.3383,2.34,2.3417,2.3434,2.352,2.3537,2.3554,2.3657,2.3871,2.4049,2.4049,2.4299,2.4538,2.4614,2.4795,2.496,2.5063,2.5189,2.5138,2.4672,2.4614,2.4858,2.5505,2.5902,2.6165,2.6371,2.7382,2.8104,2.8214,2.9329,3.0336,3.098,3.165,3.2056,3.2097,3.2257,3.194,3.1155,3.1243,3.1384,3.1556,3.2266,3.2715,0.0,0.0,0.0,0.0,0.0,0.0,0.0,0.0,0.0,0.0,0.0,0.0,0.0,0.0,0.0,0.0,0.0,0.0,0.0,0.0,0.0,0.0,1.6997,1.7796,1.8242,1.8806,1.9524,2.0452,2.0451,2.0436,2.0642,2.1052,2.1469,2.1852,2.1699,2.2212,2.3694,2.3345,2.3428,2.4177,2.4202,2.4202,2.4202,2.4202,2.4202,2.4202,2.4202,2.4202,2.4202,2.436,2.4434,2.4452,2.4643,2.4716,2.4709,2.4948,2.4963,2.479,0.0,0.0,0.0,0.0,2.3194,2.3066,2.3066,2.3177,2.334,2.334,2.352,2.3692,2.3709,2.3682,2.3743,2.3853,2.3905,2.3939,2.411,2.4316,2.4494,2.4675,2.4881,2.5086,2.5229,2.5435,2.56,2.56,2.576,0.0,2.5566,2.5366,2.5457,2.6001,2.6648,2.709,2.7233,2.8286,2.8991,2.8963,2.9774,3.0495,3.1011,3.1732,0.0,0.0,0.0,3.2216,3.1486,3.1701,0.0,0.0,0.0,3.2335,3.2224,3.2462,0.0,0.0,3.1083,3.0672,0.0,0.0,0.0,0.0,0.0,0.0,0.0,0.0,0.0,0.0,0.0,0.0,0.0,0.0,0.0,0.0,1.7673,1.8482,1.9284,1.9896,2.0154,1.9821,1.9732,1.9726,1.9844,2.0702,2.1402,2.1765,2.1782,2.243,2.3935,2.3063,0.0,0.0,0.0,2.4152,2.4003,2.4152,2.422,2.4275,2.4275,2.4293,2.4349,2.4709,2.4874,2.4893,2.5242,2.5388,2.5407,2.5443,2.5271,2.4975,2.4859,2.4666,2.4403,2.3903,2.3692,2.3692,2.3692,0.0,0.0,2.376,2.3794,2.3812,2.3812,2.3812,2.3897,2.4169,2.4306,2.4408,2.4768,2.4887,2.499,2.5389,2.5457,2.5532,2.5845,2.5948,2.5965,2.5965,2.5999,2.6136,2.6491,2.6221,2.6069,2.6423,2.7588,2.8587,2.8984,3.0322,3.125,3.125,3.1333,0.0,3.1388,3.2211,3.2364,3.154,3.2272,3.2547,3.2123,3.2615,3.2493,3.1598,3.2093,3.1949,3.1048,3.1534,3.1731,3.1679,3.2189,3.1398,0.0,0.0,0.0,0.0,0.0,0.0,0.0,0.0,0.0,0.0,0.0,0.0,0.0,0.0,0.0,1.7557,1.8638,1.9429,1.9337,1.9417,1.9552,1.9627,1.9998,2.0227,2.0201,2.0687,2.1006,2.1087,2.1087,2.1601,2.2769,2.2619,2.2593,2.2837,2.373,2.378,2.2837,2.3755,2.4342,2.4691,2.4691,0.0,2.5168,2.5242,2.5278,2.5297,2.537,2.5388,2.5425,2.5737,2.5747,2.5477,2.4597,2.4219,2.414,2.3824,2.3692,2.3692,2.3682,2.3888,2.41,2.41,2.4306,2.4607,2.4607,2.4607,0.0,2.4665,2.4915,2.52,2.5269,2.5497,2.5708,2.5777,2.5794,2.5811,2.5896,2.6136,2.6388,2.6388,2.6645,2.6884,2.6983,2.6645,2.652,2.6889,2.721,2.77,2.8512,2.954,3.019,3.019,3.0874,3.1334,3.1334,3.15,3.1702,3.1884,3.1761,3.1656,3.1573,3.1661,3.1632,3.1437,3.1986,3.2137,3.1966,3.2451,3.2495,3.2073,3.1866,3.1566,0.0,0.0,0.0,0.0,0.0,0.0,0.0,0.0,0.0,0.0,0.0,1.5919,1.6281,0.0,1.7467,1.8627,1.8807,1.8907,1.9249,1.9502,1.9698,1.9796,1.9568,1.9618,2.0152,2.0374,2.0508,2.0508,2.0851,2.1336,2.1886,2.1785,2.1709,2.1709,2.2769,2.3175,2.2792,2.3318,2.4089,2.5095,2.4484,2.4617,2.5407,2.5609,2.5682,2.57,2.5921,2.6013,2.5986,2.6053,2.601,2.5835,2.5172,2.4717,2.4437,2.4302,2.4247,2.4247,2.4264,2.4357,2.4494,2.4494,2.4631,2.4836,2.5035,2.5086,2.5138,2.5298,2.5486,2.5652,2.5652,2.576,2.5948,2.6136,2.6217,2.6268,2.6456,2.6645,2.6812,2.6812,2.6966,2.7103,2.7103,2.6949,2.688,2.7069,2.7478,2.814,2.9057,3.0031,3.0791,3.1247,3.171,3.1998,3.1998,3.1998,3.2089,3.2339,3.214,3.1961,3.1712,3.1712,3.1609,3.1408,3.1661,3.1797,3.1797,3.2069,3.2069,3.1776,3.1582,3.1354,0.0,0.0,0.0,0.0,0.0,0.0,0.0,1.4994,1.5103,1.5717,1.6097,1.6627,1.7467,1.743,1.7743,1.9183,1.8675,1.8357,1.9103,1.9527,1.9799,1.9861,1.9182,1.9081,2.0004,2.0112,2.0086,2.0034,2.0611,2.0954,2.0903,2.0698,2.0672,2.0877,2.2029,2.2673,2.2756,2.2996,2.3678,2.4799,2.4069,2.428,2.5285,2.5851,2.6104,2.6123,2.6472,2.6591,2.6591,2.63,2.6163,2.6081,2.596,2.5582,2.5082,2.4913,2.4868,2.4885,2.4898,2.4932,2.4932,2.499,2.5007,2.5058,2.5395,2.5509,2.5549,2.5828,2.5965,2.6016,2.6016,2.6068,2.6204,2.6525,2.6623,2.6726,2.7034,2.7103,2.7103,2.7103,2.7154,2.7206,2.7206,2.7274,2.7274,2.7137,2.7802,2.8738,2.9898,3.0751,3.1689,3.2831,3.2967,3.2967,3.2967,3.2884,3.2822,3.2822,3.2739,3.2533,3.216,3.214,3.1974,3.165,3.165,3.165,3.165,3.1761,3.1802,3.1802,3.1885,3.1533,1.5825,1.575,1.5836,1.5638,1.5259,1.5292,0.0,1.6675,1.665,1.73,1.7702,1.7752,1.7123,1.7873,1.8473,1.8075,1.8657,1.9062,1.8874,1.8882,1.9044,1.9339,1.9705,1.9963,2.0086,2.0112,2.0009,1.975,1.9828,1.975,1.9461,1.9409,1.9849,2.0851,2.2305,2.2541,2.1506,2.2857,2.3262,2.2753,2.3695,2.4397,2.4906,2.6018,2.6518,2.6545,2.6573,2.6591,2.6591,2.6564,2.6354,2.6126,2.6441,2.6389,2.6028,2.5415,2.5165,2.5162,2.5302,2.5337,2.5389,2.5674,2.5777,2.5794,2.5828,2.5845,2.5845,2.5896,2.6165,2.6422,2.6422,2.6679,2.6983,2.7034,2.7034,2.7052,2.7103,2.7103,2.7103,2.7103,2.733,2.7552,2.7552,2.7843,2.7843,2.7206,2.7438,2.8394,3.0302,3.0865,3.1852,3.3729,3.3957,3.3957,3.3957,3.3563,3.3335,3.3335,3.2934,3.2677,3.2636,3.2636,3.2595,3.2553,3.2553,3.2553,3.2553,3.2954,3.319,3.319,3.3605,3.29,1.7529,1.6983,1.6676,1.7632,1.7,1.6468,1.7683,1.7664,1.7456,1.7617,1.79,1.811,1.8018,1.8132,1.8312,1.8616,1.8847,1.8964,1.8821,1.8975,1.9151,1.9283,1.9506,1.962,1.962,1.962,1.9532,1.9246,1.9687,1.9517,1.8553,1.9129,1.9716,2.0226,2.0984,2.1558,2.1978,2.1904,2.2512,2.3778,2.3585,2.4348,2.5861,2.6354,2.6591,2.6591,2.6857,2.6967,2.6967,2.7206,2.7214,2.7102,2.7266,2.7282,2.7094,2.6424,2.607,2.5918,2.5949,2.5829,2.5691,2.5862,2.5914,2.5948,2.6199,2.6251,2.6302,2.6542,2.6713,2.6863,2.6863,2.6983,2.7103,2.7103,2.7103,2.7154,2.7347,2.7381,2.745,2.7689,2.7843,2.7946,2.7946,2.8083,2.8083,2.7775,2.7843,2.8645,3.0644,3.1009,3.1866,3.3893,3.4102,3.4102,3.4102,3.3915,3.3812,3.3812,3.3617,3.3513,3.3513,3.3513,3.3513,3.3513,3.3513,3.3513,3.3513,3.3708,3.3812,3.3812,3.4019,3.3687,1.8582,1.8021,1.7682,1.8906,1.8282,1.7553,1.8294,1.8207,1.8011,1.7938,1.8034,1.8203,1.8542,1.8082,1.7951,1.8898,1.8829,1.8741,1.8891,1.9151,1.9298,1.9298,1.9298,1.9298,1.9298,1.9298,1.9182,1.8921,1.9428,1.9327,1.8298,1.8971,1.9582,2.0003,2.0177,2.0813,2.1954,2.1491,2.2134,2.3787,2.3255,2.3965,2.5728,2.6185,2.6571,2.6967,2.7243,2.7371,2.7389,2.7683,2.7793,2.7812,2.7922,2.7977,2.7919,2.7597,2.7131,2.6665,2.6684,2.6545,2.6376,2.6451,2.6427,2.6403,2.6678,2.6734,2.6743,2.7034,2.7103,2.7103,2.7103,2.7172,2.7257,2.7257,2.7326,2.748,2.7706,2.7775,2.7843,2.8134,2.8289,2.8357,2.8357,2.8443,2.8494,2.8494,2.8749,2.9488,3.1076,3.1881,3.2828,3.4304,3.4475,3.4475,3.4475,3.435,3.4288,3.4288,3.4164,3.4102,3.4102,3.4102,3.4102,3.4102,3.4226,3.4226,3.4102,3.435,3.4413,3.4288,3.4413,3.4537,1.8487,1.8569,1.8547,1.8529,1.8483,1.8436,1.8342,1.831,1.8383,1.8702,1.8411,1.811,1.8133,1.7691,1.7545,1.8238,1.8331,1.854,1.9195,1.9298,1.9298,1.9298,1.9298,1.9298,1.9298,1.9298,1.9182,1.8921,1.8921,1.8919,1.8856,1.8643,1.9173,2.052,2.0654,2.0676,2.0649,2.2168,2.2366,2.1317,2.2467,2.3177,2.354,2.511,2.652,2.7757,2.7775,2.7775,2.7775,2.7793,2.7793,2.783,2.8223,2.837,2.8425,2.881,2.8228,2.7294,2.7439,2.7475,2.7499,2.783,2.7727,2.7456,2.7474,2.728,2.7086,2.7103,2.7103,2.7103,2.7103,2.733,2.7586,2.7586,2.7878,2.8169,2.8169,2.8169,2.8186,2.8186,2.8494,2.88,2.88,2.9042,2.9282,2.9282,3.0113,3.097,3.1671,3.3822,3.5283,3.5345,3.5345,3.5345,3.5345,3.4983,3.4765,3.4765,3.435,3.4102,3.4102,3.4102,3.4102,3.4102,3.4537,3.4537,3.4102,3.4962,3.5169,3.4786,3.519,3.5593,1.8556,1.86,1.8713,1.9167,1.9315,1.9355,1.9591,1.963,1.9573,1.937,1.9374,1.9325,1.902,1.871,1.8637,1.9089,1.8864,1.88,1.9239,1.9298,1.9298,1.9298,1.9298,1.9298,1.9298,1.9298,1.9182,1.8921,1.8895,1.8893,1.8897,1.904,1.9771,2.1206,2.0725,2.1183,2.2772,2.232,2.2268,2.2677,2.3083,2.3412,2.3715,2.5157,2.6065,2.6544,2.7712,2.7687,2.6959,2.8122,2.8054,2.7375,2.8394,2.8792,2.8792,2.8968,2.8751,2.8385,2.8234,2.8003,2.7842,2.7966,2.793,2.784,2.784,2.7779,2.7689,2.7689,2.773,2.7739,2.7739,2.7861,2.7997,2.7997,2.81,2.8271,2.8528,2.858,2.8648,2.8888,2.9042,2.9128,2.9128,2.923,2.9528,3.018,3.1198,3.2168,3.3078,3.4478,3.5387,3.5387,3.5387,3.5387,3.5387,3.5293,3.519,3.519,3.5335,3.5418,3.5418,3.5728,3.5873,3.5873,3.6039,3.6039,3.5873,3.6183,3.6101,3.5666,3.6121,3.6266,1.9074,1.9178,1.9316,1.979,1.991,1.9978,2.024,2.0292,2.0201,1.9928,1.9906,1.9872,1.9674,1.9296,1.9233,1.9996,1.9684,1.9471,1.9755,1.9788,1.9691,1.9338,1.9298,1.9298,1.9298,1.9298,1.9234,1.9052,1.9153,1.9249,1.9362,1.9608,2.0212,2.1246,2.1072,2.1488,2.2608,2.2462,2.257,2.2894,2.302,2.318,2.3395,2.4398,2.5087,2.5577,2.6707,2.6692,2.6017,2.7609,2.7792,2.7142,2.8498,2.9005,2.9005,2.9005,2.9005,2.8993,2.8755,2.8546,2.8349,2.8349,2.8289,2.8205,2.8348,2.8323,2.822,2.824,2.8285,2.8292,2.8168,2.8274,2.8408,2.8408,2.8494,2.8665,2.8922,2.8974,2.9042,2.9265,2.9316,2.9316,2.9316,2.9593,3.018,3.123,3.2256,3.3177,3.3827,3.4766,3.5387,3.5387,3.5387,3.5387,3.5387,3.5387,3.5469,3.5635,3.5924,3.6183,3.6349,3.6639,3.6804,3.6804,3.697,3.697,3.6804,3.697,3.6804,3.637,3.666,3.6742,2.0009,2.0197,2.0275,2.0292,2.0292,2.0292,2.0292,2.0292,2.0292,2.0292,1.9951,1.9764,2.0105,1.9471,1.9367,2.0813,2.0683,2.0462,2.0641,2.0654,2.0321,1.942,1.9298,1.9298,1.9298,1.9312,1.9327,1.9327,1.962,1.9901,2.021,2.0282,2.0443,2.0716,2.1644,2.1602,2.0457,2.2665,2.3164,2.2035,2.234,2.2516,2.2531,2.2992,2.3822,2.4902,2.4963,2.4963,2.5025,2.6429,2.6961,2.7052,2.8469,2.9005,2.9005,2.9005,2.9005,2.8993,2.9042,2.9023,2.8993,2.9042,2.8821,2.8625,2.9034,2.8898,2.8663,2.8723,2.8752,2.8644,2.8346,2.8543,2.8834,2.8834,2.9059,2.9316,2.9316,2.9316,2.9316,2.9316,2.9316,2.9316,2.9316,3.018,3.123,3.2256,3.3304,3.3985,3.3985,3.4797,3.5387,3.5387,3.5387,3.5407,3.5428,3.5428,3.5645,3.6121,3.6163,3.639,3.6825,3.6867,3.6867,3.6867,3.7301,3.7322,3.6867,3.7322,3.7301,3.6846,3.6867,3.7094,2.0145,2.0063,1.9927,2.0223,2.0292,2.0292,2.0292,2.0292,2.0292,2.0292,2.044,2.0676,2.1009,2.0605,2.0499,2.1374,2.09,2.0367,2.0266,2.0234,2.0037,1.939,1.9298,1.9298,1.9298,1.9518,1.9664,1.9664,1.9737,2.003,2.0546,2.0593,2.0726,2.1046,2.2171,2.2733,2.2682,2.3035,2.293,2.2369,2.2503,2.2172,2.1554,2.3591,2.4162,2.3636,2.4594,2.4471,2.376,2.6064,2.6399,2.5729,2.8092,2.9005,2.9005,2.9005,2.9005,2.906,2.9354,2.9262,2.906,2.9354,2.9385,2.9386,2.9788,2.9699,2.9421,2.9435,2.9259,2.9044,2.898,2.9049,2.9179,2.9179,2.9248,2.9316,2.9316,2.9316,2.9316,2.9316,2.9316,2.9316,2.9316,3.0811,3.2097,3.2352,3.3902,3.5015,3.5015,3.5232,3.5387,3.5387,3.5387,3.5531,3.5914,3.5904,3.6121,3.6597,3.6949,3.7198,3.7322,3.7653,3.7839,3.7839,3.7943,3.7943,3.7839,3.7943,3.7777,3.7322,3.7674,3.7715,1.9917,1.9947,1.9978,2.0012,2.0172,2.0292,2.0292,2.0172,2.003,2.003,2.0103,2.0314,2.0823,2.0691,2.0879,2.1913,2.1686,2.1308,2.1084,2.1069,2.0799,2.0091,1.9791,1.9706,1.9855,1.9838,1.9913,2.0192,2.0179,2.034,2.0678,2.0824,2.124,2.1972,2.2793,2.3365,2.3665,2.2961,2.2506,2.2334,2.2813,2.2451,2.1393,2.3294,2.345,2.2247,2.2997,2.3201,2.3263,2.5301,2.6034,2.6095,2.8182,2.9005,2.9042,2.9207,2.9262,2.9335,2.9709,2.9709,2.9562,2.9813,2.9855,2.9959,3.0332,3.0336,3.0197,3.0221,3.007,2.9895,2.9766,2.9633,2.9528,2.9528,2.9414,2.9316,2.9316,2.9316,2.9316,2.9316,2.9316,2.9316,2.9316,3.0617,3.1873,3.232,3.3745,3.4891,3.5325,3.5387,3.5387,3.5387,3.5387,3.549,3.5759,3.578,3.6101,3.6763,3.7053,3.7384,3.7777,3.8046,3.8191,3.8191,3.8191,3.8191,3.8191,3.8191,3.8046,3.7798,3.8067,3.7943,1.9883,2.0096,2.0245,1.9947,2.0142,2.0382,2.0382,2.0045,1.9766,1.9788,1.9501,1.9449,2.0176,2.0325,2.08,2.225,2.2482,2.2452,2.2249,2.222,2.1881,2.1008,2.0498,2.0338,2.0691,2.0279,2.0212,2.0788,2.0792,2.0765,2.0765,2.1184,2.2002,2.3235,2.3349,2.3546,2.3899,2.2927,2.2334,2.2104,2.334,2.3139,2.1709,2.2748,2.2466,2.1172,2.1362,2.2059,2.3201,2.4687,2.5942,2.7142,2.8498,2.9042,2.9133,2.9482,2.9629,2.9739,3.013,3.0277,3.0277,3.0277,3.0277,3.0351,3.0754,3.0832,3.081,3.0868,3.0879,3.0782,3.0476,3.0133,2.9887,2.9887,2.9659,2.9447,2.9447,2.9414,2.9349,2.9316,2.9316,2.9316,2.9316,3.0245,3.1327,3.2256,3.3367,3.4423,3.5294,3.5387,3.5387,3.5387,3.5387,3.5407,3.5469,3.549,3.5873,3.6742,3.6804,3.7156,3.7964,3.8005,3.8026,3.8121,3.8121,3.8129,3.8191,3.8191,3.815,3.8121,3.8121,3.7839,2.1571,2.1167,2.0457,2.0703,2.0832,2.0885,2.0885,2.0447,2.0096,2.0232,1.983,1.9643,2.0272,2.0467,2.0853,2.1713,2.2007,2.2028,2.1826,2.1799,2.1578,2.0976,2.0822,2.0897,2.1323,2.1063,2.1034,2.1415,2.1252,2.113,2.113,2.2112,2.3327,2.4766,2.3492,2.3127,2.3868,2.407,2.3467,2.2135,2.4456,2.4332,2.2041,2.334,2.306,2.1583,2.2685,2.3139,2.3294,2.5668,2.6793,2.7142,2.8498,2.9207,2.9501,2.9574,2.9831,3.0149,3.0552,3.0681,3.0681,3.0681,3.0681,3.0754,3.1157,3.1093,3.0886,3.0894,3.0685,3.0476,3.0411,3.0346,3.0296,3.0296,3.023,3.0216,3.0216,2.9952,2.9626,2.9349,2.9316,2.9316,2.9316,3.0876,3.2192,3.2384,3.3965,3.5201,3.5387,3.5387,3.5387,3.5387,3.5387,3.5552,3.5956,3.5997,3.6225,3.6763,3.6804,3.6867,3.7032,3.7032,3.7218,3.7612,3.7612,3.7798,3.8191,3.8191,3.7984,3.7612,3.7612,3.7363,2.0747,2.0559,2.0408,2.039,2.0532,2.0696,2.0696,2.0126,1.9657,1.9745,1.9403,1.9199,1.9565,2.0018,2.0482,2.0916,2.1562,2.205,2.2156,2.2325,2.2314,2.2074,2.198,2.2002,2.2154,2.1983,2.1837,2.1869,2.1907,2.1785,2.1496,2.2744,2.3586,2.383,2.3654,2.3855,2.4513,2.4747,2.4795,2.4656,2.5743,2.5254,2.3433,2.3884,2.3184,2.1646,2.2278,2.3139,2.4193,2.5454,2.6779,2.814,2.8985,2.9427,2.9647,3.007,3.0363,3.0571,3.0956,3.1134,3.1134,3.1134,3.1134,3.1171,3.1355,3.1281,3.1152,3.1152,3.1023,3.0912,3.0912,3.0782,3.0653,3.0653,3.0361,3.0083,3.0083,2.9789,2.9495,2.9349,2.9316,2.9316,2.9316,3.0763,3.2125,3.2673,3.4246,3.5471,3.5717,3.5738,3.5656,3.5407,3.5387,3.5469,3.5697,3.5749,3.5956,3.6411,3.6453,3.666,3.7136,3.7156,3.726,3.7488,3.7488,3.7488,3.7467,3.7467,3.7343,3.7136,3.7136,3.6887,2.0319,2.0282,2.0467,2.0164,2.0307,2.0525,2.0454,1.984,1.9265,1.9217,1.8914,1.8676,1.8836,1.9407,1.9992,2.0333,2.1204,2.1975,2.2464,2.2808,2.2997,2.2997,2.2916,2.2861,2.2991,2.2744,2.2593,2.2604,2.2749,2.2627,2.22,2.3105,2.3426,2.3004,2.3991,2.4725,2.5102,2.5637,2.6125,2.6598,2.6611,2.579,2.427,2.4023,2.3278,2.2261,2.2529,2.376,2.5576,2.5851,2.7172,2.9042,2.9445,2.9666,2.9831,3.0547,3.0846,3.0956,3.13,3.141,3.141,3.141,3.141,3.141,3.141,3.141,3.141,3.141,3.141,3.141,3.141,3.1184,3.1009,3.1009,3.0505,3.0018,2.9952,2.9659,2.9414,2.9316,2.9384,2.9436,2.9436,3.0819,3.2224,3.3076,3.4603,3.5771,3.6213,3.6183,3.6018,3.5718,3.5511,3.5428,3.5531,3.5449,3.5593,3.608,3.6121,3.6432,3.7177,3.7198,3.7198,3.7198,3.7198,3.7074,3.6804,3.6804,3.6763,3.666,3.666,3.6411,2.2543,2.1897,2.1043,2.0988,2.1025,2.0951,2.0565,1.9999,1.9521,1.9339,1.8839,1.8488,1.868,1.8926,1.9434,2.0483,2.1016,2.1524,2.223,2.2514,2.2654,2.2654,2.2621,2.2903,2.3552,2.3105,2.3201,2.4203,2.3807,2.3548,2.3697,2.3082,2.3187,2.4186,2.4773,2.507,2.5102,2.7379,2.7456,2.5286,2.6415,2.5637,2.323,2.3199,2.3589,2.4394,2.5546,2.6503,2.7349,2.8582,2.9064,2.9042,2.9445,2.98,3.0204,3.0626,3.1043,3.1355,3.1391,3.141,3.141,3.141,3.141,3.141,3.141,3.141,3.141,3.141,3.141,3.141,3.141,3.1377,3.1345,3.1345,3.1055,3.0717,3.0393,3.0018,2.9659,2.9364,2.959,2.9847,2.9847,3.1827,3.3445,3.3544,3.5321,3.6687,3.6742,3.637,3.6266,3.6639,3.5914,3.5552,3.6018,3.5635,3.5593,3.608,3.6121,3.6142,3.6246,3.6246,3.6246,3.6246,3.6246,3.6432,3.6804,3.6804,3.6597,3.6183,3.6183,3.5904,2.093,2.059,2.0372,2.0372,2.0209,2.0044,2.0115,1.9396,1.8736,1.8906,1.8556,1.8206,1.8169,1.8618,1.9167,1.9701,2.0606,2.1531,2.2515,2.3022,2.3272,2.3272,2.3452,2.3597,2.3699,2.3674,2.3882,2.44,2.4063,2.3949,2.4251,2.4159,2.4315,2.4804,2.5755,2.6611,2.7379,2.7637,2.7637,2.7349,2.6338,2.5317,2.427,2.3479,2.3651,2.4641,2.5148,2.6308,2.7847,2.8373,2.8957,2.9583,3.0086,3.0346,3.0556,3.0996,3.1281,3.141,3.141,3.141,3.141,3.141,3.141,3.141,3.141,3.141,3.141,3.141,3.141,3.141,3.141,3.141,3.141,3.141,3.112,3.0879,3.0717,3.0426,3.0203,3.03,3.0244,3.0284,3.0509,3.194,3.3274,3.3912,3.5493,3.6785,3.7162,3.7053,3.7011,3.7198,3.639,3.6018,3.6494,3.6101,3.5883,3.6101,3.5821,3.5832,3.6101,3.6121,3.6121,3.6121,3.6121,3.6028,3.5976,3.5976,3.5873,3.5676,3.5676,3.5573,1.9901,1.9859,2.0024,1.9785,1.9492,1.9311,1.9364,1.8723,1.8155,1.8302,1.8118,1.788,1.7733,1.8257,1.8868,1.9337,2.0439,2.1585,2.2656,2.3271,2.3642,2.3642,2.389,2.4008,2.3871,2.4499,2.4795,2.4433,2.4674,2.4738,2.4517,2.5503,2.5851,2.5378,2.6793,2.7996,2.889,2.7996,2.7817,2.8325,2.6125,2.4887,2.4487,2.3542,2.3682,2.4764,2.5148,2.6399,2.8164,2.8552,2.9194,2.9957,3.0485,3.0711,3.0742,3.1243,3.141,3.141,3.141,3.141,3.141,3.141,3.141,3.141,3.141,3.141,3.141,3.141,3.141,3.141,3.141,3.141,3.141,3.141,3.112,3.0948,3.1056,3.0832,3.0695,3.1119,3.1045,3.1001,3.1264,3.2352,3.3392,3.404,3.5578,3.673,3.697,3.7167,3.7281,3.7281,3.6577,3.6308,3.6763,3.6246,3.5945,3.6101,3.5811,3.5769,3.6101,3.6121,3.6007,3.5914,3.5914,3.5718,3.5387,3.5387,3.5387,3.5387,3.5387,3.5387,2.049,2.0482,2.0298,1.9512,1.9311,1.9091,1.8302,1.8118,1.799,1.7587,1.7513,1.7495,1.7495,1.7825,1.8502,1.9692,2.0685,2.1572,2.2403,2.3089,2.3504,2.3504,2.3626,2.3846,2.4169,2.5702,2.6049,2.4523,2.5883,2.6113,2.4593,2.6961,2.7649,2.605,2.7877,2.889,2.889,2.889,2.8265,2.6991,2.5715,2.4394,2.3106,2.3106,2.3852,2.5164,2.6446,2.7564,2.86,2.9844,3.0186,2.9957,3.0485,3.0711,3.0742,3.1243,3.141,3.141,3.141,3.141,3.141,3.141,3.141,3.141,3.141,3.141,3.141,3.141,3.141,3.141,3.141,3.141,3.141,3.141,3.112,3.102,3.1399,3.1226,3.1119,3.1527,3.1867,3.2081,3.2098,3.3333,3.4176,3.3865,3.567,3.6784,3.5904,3.6392,3.6804,3.6804,3.639,3.6308,3.6763,3.5924,3.5625,3.608,3.6101,3.6101,3.6121,3.6121,3.5862,3.5407,3.5407,3.5387,3.5387,3.5387,3.5387,3.5387,3.5387,3.5387,1.9204,1.9071,1.8869,1.8869,1.8485,1.8082,1.81,1.7679,1.7312,1.7458,1.7275,1.7092,1.7092,1.7642,1.8503,1.9692,2.0685,2.1795,2.326,2.3482,2.354,2.3617,2.3667,2.3734,2.3863,2.5323,2.5856,2.4749,2.6486,2.7141,2.6059,2.8323,2.8938,2.7396,2.9442,3.0431,3.0274,2.8492,2.7396,2.6991,2.4795,2.351,2.3106,2.3106,2.3852,2.5164,2.6446,2.7684,2.8879,3.0216,3.0674,3.0605,3.085,3.0957,3.1008,3.1275,3.141,3.141,3.141,3.141,3.141,3.141,3.141,3.141,3.141,3.141,3.141,3.141,3.141,3.141,3.141,3.141,3.141,3.141,3.1313,3.1285,3.1413,3.1334,3.1487,3.2144,3.216,3.2209,3.2799,3.2659,3.2655,3.3308,3.4153,3.4873,3.5396,3.6253,3.6804,3.6804,3.639,3.6308,3.6763,3.6246,3.5956,3.6101,3.578,3.5614,3.5614,3.5614,3.5531,3.5387,3.5387,3.5387,3.5387,3.5387,3.5387,3.5387,3.5387,3.5552,1.8283,1.8302,1.8118,1.821,1.7862,1.7495,1.7441,1.7037,1.6744,1.7,1.6853,1.678,1.7073,1.777,1.8668,1.9731,2.0898,2.2131,2.3434,2.3619,2.3669,2.3684,2.3819,2.3905,2.3888,2.5532,2.61,2.4896,2.6783,2.7613,2.6751,2.871,2.9536,2.8847,3.0441,3.117,3.0898,2.8313,2.6991,2.6991,2.4363,2.3355,2.3852,2.3324,2.4085,2.5867,2.6658,2.7727,0.0,3.0333,3.0976,3.1132,3.126,3.1408,3.1556,3.1713,3.1763,3.1763,3.1653,3.157,3.157,3.1442,3.141,3.141,3.141,3.141,3.141,3.141,3.141,3.141,3.141,3.141,3.141,3.141,3.141,3.1446,3.1579,3.1616,3.1818,3.2459,3.2387,3.2383,3.2925,3.2474,3.2124,3.2498,3.3371,3.4104,3.4355,3.565,3.6473,3.6308,3.6018,3.5945,3.6266,3.5986,3.5852,3.5852,3.5552,3.5387,3.5387,3.5387,3.5387,3.5387,3.5387,3.5387,3.5387,3.5387,3.5387,3.5407,3.5738,3.5997,0.0,1.8008,1.7972,1.766,1.755,1.7348,1.6598,1.6433,0.0,1.6433,1.6433,1.6653,1.7403,1.821,1.9016,1.9859,2.1288,2.2514,2.3081,2.358,2.3825,2.3727,2.399,2.4213,2.4319,2.6136,2.6672,2.509,2.6903,2.7687,2.6882,2.8502,2.9699,3.0242,3.098,3.1238,3.0986,2.8343,2.7065,2.7125,2.4517,2.393,2.5194,2.3945,2.4702,2.7021,2.7112,2.7834,2.9046,3.0371,3.1191,3.1542,3.1637,3.1919,3.2322,3.2397,3.239,3.2358,3.2038,3.1929,3.1846,3.1506,3.141,3.141,3.141,3.141,3.141,3.141,3.141,3.141,3.141,3.141,3.141,3.141,3.141,3.152,3.1873,3.1964,3.2074,3.2478,3.2551,3.257,3.2588,3.2588,3.232,3.1597,3.3331,3.4264,3.3144,3.4907,3.6081,3.5687,3.5645,3.5645,3.5645,3.5511,3.5428,3.5387,3.5428,3.5428,3.5387,3.5428,3.5449,3.5449,3.5449,3.5449,3.5449,3.5407,3.5428,3.5511,3.639,3.6618,1.6522,0.0,1.777,1.8302,1.8192,1.7917,0.0,1.7679,1.7679,1.7679,1.7679,1.7734,1.7917,1.8632,1.9531,2.0649,2.1654,2.2714,2.3863,2.3766,2.3695,2.3974,2.391,2.4302,2.5548,2.6109,2.6518,2.6762,2.7876,2.8445,2.8257,2.9946,3.0843,3.0739,3.1592,3.1903,3.1585,2.8801,2.7859,2.8783,2.5973,2.5317,2.6537,2.6233,2.6415,2.7052,2.8026,2.8834,2.9548,3.0843,3.1621,3.202,3.2111,3.2188,3.2322,3.2397,3.239,3.239,3.2326,3.2102,3.1846,3.1506,3.141,3.141,3.141,3.141,3.141,3.141,3.141,3.141,3.141,3.141,3.141,3.141,3.141,3.1428,3.1538,3.1524,3.1653,3.2074,3.2148,3.2239,3.2551,3.2405,3.2062,3.1571,3.3239,3.4443,3.4228,3.6217,3.7739,3.8039,3.8061,3.8061,3.8061,3.6771,3.5759,3.5407,3.5749,3.5759,3.5407,3.5738,3.5956,3.5956,3.5956,3.5956,3.5924,3.5573,3.5759,3.6494,3.6701,3.7301,1.6101,1.6616,1.711,1.7715,1.7862,1.7789,1.7587,1.7697,1.7862,1.8063,1.81,1.8283,1.8813,1.9584,2.0338,2.0998,2.2075,2.3207,2.4213,2.4428,2.4421,2.4131,2.4889,2.5514,2.5793,2.657,2.7168,2.7384,2.7841,2.8367,2.8985,3.0152,3.0975,3.1401,3.2128,3.2248,3.1787,2.895,2.8128,2.9375,2.649,2.6064,2.7847,2.7293,2.7742,2.9064,2.9184,2.9825,3.0842,3.1526,3.1953,3.2207,3.2451,3.2514,3.2572,3.2777,3.2848,3.2835,3.2676,3.2422,3.2102,3.1942,3.1731,3.1621,3.1621,3.1506,3.141,3.141,3.141,3.141,3.141,3.141,3.141,3.141,3.141,3.141,3.141,3.141,3.1451,3.1671,3.1726,3.1854,3.2258,3.2165,3.1981,3.1812,3.3633,3.5007,3.4911,3.6971,3.8563,3.8857,3.891,3.891,3.891,3.7858,3.7139,3.702,3.6929,3.6782,3.653,3.6445,3.6432,3.6432,3.6432,3.6432,3.6432,3.6183,3.6411,3.7136,3.7517,3.8117,1.6134,1.643,1.6614,1.7,1.7348,1.7513,1.7238,1.7495,1.7899,1.8302,1.843,1.8778,1.9804,2.0647,2.1214,2.1343,2.268,2.3889,2.4405,2.5075,2.5208,2.4421,2.5907,2.6712,2.5945,2.6972,2.7707,2.7787,2.7546,2.8014,2.9432,3.0013,3.078,3.1864,3.2429,3.244,3.1932,2.9275,2.8575,2.9806,2.7078,2.7021,2.9309,2.8205,2.913,3.1561,3.0472,3.085,3.2296,3.2296,3.2335,3.2433,3.2754,3.2891,3.293,3.325,3.3386,3.3355,3.3007,3.2708,3.2485,3.2422,3.2198,3.1974,3.1974,3.1782,3.1538,3.1538,3.1474,3.141,3.141,3.141,3.141,3.141,3.141,3.1428,3.1501,3.1501,3.1501,3.1501,3.1557,3.1653,3.1946,3.2111,3.2195,3.2168,3.4332,3.5856,3.5596,3.7742,3.9346,3.9412,3.9412,3.9412,3.9412,3.9214,3.9183,3.9403,3.8368,3.7753,3.7753,3.723,3.6949,3.7011,3.6949,3.6949,3.7011,3.6949,3.7218,3.7819,3.8686,3.9155,1.6328,1.7005,1.7637,1.7862,1.7972,1.8082,1.8357,1.8723,1.9146,1.9547,1.9895,2.0189,2.0372,2.1068,2.1815,2.251,2.3724,2.4629,2.4732,2.4659,2.4806,2.5296,2.5225,2.5766,2.7453,2.6225,2.6509,2.9396,2.8235,2.8121,2.9835,3.0716,3.1292,3.1485,3.2292,3.2669,3.2555,3.0772,3.0538,3.1825,2.9728,2.9729,3.1525,3.1049,3.1281,3.207,3.1888,3.2152,3.2695,3.2695,3.291,3.3242,3.3269,3.332,3.334,3.3367,3.3386,3.3355,3.3007,3.2867,3.2804,3.2485,3.2358,3.2326,3.2326,3.2294,3.2262,3.2262,3.1827,3.141,3.141,3.141,3.141,3.141,3.141,3.1469,3.1836,3.1909,3.1909,3.1909,3.2184,3.2331,3.2056,3.2536,3.2902,3.2576,3.5093,3.7106,3.7138,3.9511,4.1345,4.1747,4.1792,4.1792,4.1792,4.1734,4.1734,4.1792,3.9099,3.7547,3.7547,3.7449,3.757,3.7964,3.7591,3.7591,3.7964,3.7591,3.8026,3.9192,3.9967,4.074,1.6791,1.734,1.7776,1.8434,1.8837,1.9071,1.9016,1.9492,2.006,2.0463,2.0683,2.0958,2.1398,2.2633,2.3854,2.4645,2.479,2.5004,2.5522,2.5796,2.6016,2.6303,2.7244,2.7849,2.7886,2.7398,2.7875,2.9863,2.8395,2.8279,3.0267,3.1036,3.1485,3.1733,3.2346,3.2698,3.2698,3.1969,3.1825,3.2277,3.0741,3.0776,3.2245,3.1939,3.2146,3.2756,3.2102,3.2187,3.2773,3.2589,3.2441,3.2411,3.2891,3.2949,3.2793,3.323,3.3386,3.3386,3.3228,3.3165,3.3133,3.2994,3.2835,3.2676,3.2676,3.2549,3.2358,3.2166,3.191,3.1685,3.1685,3.1557,3.141,3.141,3.1575,3.1763,3.1964,3.2001,3.2074,3.2276,3.2294,3.2368,3.2625,3.2939,3.3468,3.4263,3.6276,3.802,3.8859,4.0743,4.2063,4.2284,4.2307,4.2307,4.2307,4.1988,4.1765,4.1765,4.0384,3.9379,3.8988,3.8956,3.9202,3.9704,3.9512,3.964,4.0131,3.993,4.0238,4.1079,4.14,4.196,1.7375,1.7984,1.8444,1.9051,1.9454,1.9644,1.9476,1.9987,2.061,2.1034,2.1255,2.1562,2.2185,2.395,2.5478,2.5944,2.5522,2.5434,2.6315,2.6639,2.6835,2.6974,2.8694,2.938,2.8147,2.831,2.8972,3.0104,2.8475,2.8318,3.0411,3.1098,3.1526,3.185,3.2408,3.2698,3.2698,3.2698,3.2612,3.2383,3.1397,3.1496,3.2569,3.2186,3.2415,3.3089,3.2104,3.2051,3.2617,3.2335,3.2003,3.1738,3.25,3.2656,3.257,3.3184,3.3386,3.3386,3.3386,3.3386,3.3386,3.3386,3.3228,3.3007,3.3007,3.2835,3.2581,3.2326,3.2198,3.207,3.1846,3.1653,3.1511,3.1538,3.1781,3.2056,3.2258,3.2294,3.2386,3.268,3.257,3.2606,3.3104,3.3269,3.3929,3.5646,3.7166,3.8597,4.0029,4.1431,4.2307,4.2307,4.2307,4.2307,4.2307,4.1829,4.154,4.154,4.1196,4.0777,4.0225,4.0225,4.0476,4.099,4.099,4.1296,4.1942,4.1942,4.2182,4.2585,4.2757,4.3024,1.8064,1.9429,2.0521,1.9979,1.9445,1.9194,1.9734,2.0189,2.061,2.1034,2.1691,2.224,2.2295,2.4146,2.5508,2.5006,2.5623,2.6365,2.6785,2.61,2.5915,2.686,2.7591,2.8162,2.8595,2.7669,2.807,3.0552,2.8668,2.8182,2.9957,3.0911,3.1408,3.145,3.2243,3.2698,3.2698,3.2698,3.2698,3.2669,3.2346,3.2426,3.2842,3.2274,3.2237,3.2642,3.23,3.2179,3.2237,3.2218,3.2179,3.2198,3.2617,3.3008,3.3308,3.3367,3.3386,3.3386,3.3386,3.3386,3.3386,3.3386,3.3386,3.3355,3.3355,3.3355,3.3323,3.3292,3.307,3.2594,3.1667,3.1653,3.1874,3.1938,3.1983,3.2221,3.2939,3.3104,3.3104,3.3141,3.3415,3.3578,3.3251,3.3489,3.4245,3.5685,3.7166,3.8597,4.0029,4.1431,4.2307,4.2307,4.2307,4.2307,4.2307,4.2275,4.2243,4.2243,4.1003,4.0257,4.0225,4.0257,4.053,4.099,4.099,4.1449,4.2367,4.2367,4.2607,4.3088,4.3747,4.4102,1.9121,2.0053,2.0917,2.1237,2.1313,2.1233,2.089,2.1376,2.1928,2.2171,2.2455,2.313,2.4574,2.5023,2.5447,2.639,2.6615,2.6856,2.7386,2.7031,2.7247,2.8764,2.9044,2.9335,2.9958,2.9393,2.9621,3.1132,2.9621,2.9304,3.0789,3.1443,3.1767,3.1767,3.2367,3.2698,3.2698,3.2698,3.2698,3.2698,3.288,3.3058,3.3193,3.2775,3.2811,3.3165,3.2088,3.1801,3.2038,3.1573,3.1397,3.1475,3.2159,3.2832,3.3386,3.3386,3.3386,3.3386,3.3386,3.3386,3.3386,3.3386,3.3386,3.3386,3.3386,3.3386,3.3355,3.3133,3.3133,3.307,3.2498,3.2262,3.2172,3.1986,3.2329,3.2707,3.2805,3.3012,3.3269,3.3507,3.347,3.3468,3.3578,3.3725,3.4574,3.6917,3.7734,3.8927,4.1206,4.1966,4.2307,4.2307,4.2307,4.2307,4.2307,4.2307,4.2307,4.2307,4.1806,4.1518,4.1518,4.1865,4.2249,4.2722,4.3094,4.359,4.4267,4.4267,4.4357,4.4538,4.4834,4.4937,2.0417,2.1118,2.196,2.2855,2.3016,2.2843,2.2541,2.2614,2.2889,2.3332,2.371,2.4514,2.6259,2.606,2.6148,2.7685,2.7515,2.7442,2.8168,2.7718,2.8004,2.9872,2.9965,3.0261,3.1184,3.1002,3.122,3.2209,3.0789,3.0391,3.1586,3.1878,3.2016,3.2016,3.2471,3.2698,3.2698,3.2698,3.2698,3.2698,3.3037,3.3161,3.3161,3.2726,3.2714,3.2948,3.1699,3.1357,3.1614,3.1103,3.1055,3.1377,3.1964,3.2676,3.3386,3.3386,3.3386,3.3386,3.3386,3.3386,3.3386,3.3386,3.3386,3.3386,3.3386,3.3386,3.3355,3.3102,3.3228,3.3394,3.3308,3.3027,3.2719,3.253,3.2916,3.3263,3.3022,3.3211,3.3452,3.3762,3.3596,3.347,3.3762,3.3817,3.478,3.7668,3.81,3.9125,4.1934,4.2307,4.2307,4.2307,4.2307,4.2307,4.2307,4.2307,4.2307,4.2307,4.2445,4.2536,4.2536,4.2913,4.3395,4.4038,4.4428,4.4864,4.5404,4.5404,4.5404,4.5404,4.5404,4.5404,2.1881,2.2848,2.3991,2.4814,2.421,2.3683,2.4617,2.3835,2.3219,2.4295,2.5497,2.6445,2.6906,2.7279,2.7746,2.8499,2.8169,2.8171,2.9161,2.7934,2.7718,2.9875,3.0011,3.0564,3.2158,3.2075,3.2503,3.3899,3.2087,3.1298,3.2156,3.21,3.1988,3.2016,3.2471,3.2698,3.2698,3.2698,3.2698,3.2698,3.2698,3.2698,3.2669,3.2076,3.1816,3.1787,3.117,3.0928,3.0928,3.0898,3.1436,3.2198,3.2198,3.2695,3.3386,3.3386,3.3386,3.3386,3.3386,3.3386,3.3386,3.3386,3.3386,3.3386,3.3386,3.3386,3.3386,3.3406,3.3406,3.3535,3.3997,3.3856,3.3666,3.3771,3.3808,3.3818,3.3794,3.3817,3.3817,3.3817,3.3817,3.3817,3.3817,3.3817,3.478,3.7668,3.81,3.9125,4.1934,4.2307,4.2307,4.2307,4.2307,4.2307,4.2307,4.2307,4.2307,4.2307,4.2821,4.3096,4.3096,4.3096,4.3579,4.4589,4.4612,4.4864,4.5404,4.5404,4.5404,4.5404,4.5404,4.5404,2.3014,2.3785,2.4699,2.5838,2.6065,2.6106,2.6464,2.5224,2.4245,2.497,2.6654,2.7859,2.7505,2.8173,2.8829,2.8987,2.9246,2.9405,2.93,2.8773,2.9224,3.153,3.124,3.1731,3.3855,3.3645,3.3688,3.4365,3.3116,3.2424,3.2672,3.258,3.2346,3.2016,3.2471,3.2698,3.2698,3.2698,3.2698,3.2698,3.3037,3.3037,3.2698,3.2526,3.244,3.2412,3.2018,3.175,3.1538,3.1388,3.166,3.2237,3.2531,3.2949,3.3386,3.3386,3.3386,3.3386,3.3386,3.3386,3.3386,3.3386,3.3386,3.3386,3.3386,3.3386,3.3464,3.3789,3.3887,3.4075,3.4805,3.4934,3.4716,3.4194,3.4289,3.4368,3.3889,3.4028,3.4128,3.3851,3.3817,3.3817,3.3817,3.3817,3.478,3.7668,3.81,3.9125,4.1934,4.2307,4.2307,4.2307,4.2307,4.2307,4.2307,4.2307,4.2307,4.2307,4.2821,4.3096,4.3096,4.3785,4.429,4.4589,4.499,4.5243,4.5404,4.5404,4.5404,4.5404,4.5404,4.5404,2.4082,2.4905,2.5952,2.6952,2.6898,2.6693,2.7093,2.6829,2.6467,2.6369,2.8178,2.9606,2.8978,2.9219,2.9676,3.0149,3.0169,3.0066,2.9986,3.0012,3.0723,3.259,3.2341,3.2825,3.4876,3.4793,3.4789,3.5233,3.4411,3.3713,3.3292,3.3128,3.2746,3.2036,3.2636,3.2996,3.2996,3.3161,3.3161,3.2996,3.343,3.341,3.2967,3.2852,3.2691,3.2526,3.2219,3.209,3.2069,3.1939,3.2206,3.2656,3.2911,3.3172,3.3386,3.3386,3.3386,3.3386,3.3386,3.3386,3.3386,3.3386,3.3386,3.3386,3.3386,3.3386,3.3516,3.3977,3.4114,3.431,3.5156,3.5391,3.5271,3.482,3.4893,3.4935,3.4357,3.4443,3.4543,3.4301,3.4128,3.4024,3.4024,3.3921,3.478,3.7668,3.9059,4.0159,4.1303,4.1934,4.2307,4.2307,4.2307,4.2307,4.2307,4.2307,4.2399,4.2582,4.3096,4.3464,4.3693,4.429,4.4704,4.4887,4.5243,4.5404,4.5404,4.5404,4.5404,4.5404,4.5404,4.5404,2.5038,2.6104,2.7383,2.7955,2.7121,2.636,2.7147,2.8531,2.9302,2.8091,2.9746,3.1276,3.0815,3.0313,3.0385,3.158,3.0918,3.0448,3.0994,3.1399,3.2082,3.3238,3.3276,3.3843,3.5436,3.5562,3.5772,3.6259,3.5735,3.4934,3.3868,3.371,3.3156,3.2098,3.2975,3.346,3.346,3.3895,3.3895,3.348,3.3936,3.3915,3.343,3.3138,3.2816,3.2457,3.2111,3.2208,3.2591,3.2612,3.2885,3.3287,3.3336,3.3375,3.3386,3.3386,3.3386,3.3406,3.3445,3.3425,3.3406,3.3484,3.3484,3.3464,3.3503,3.3503,3.3633,3.4095,3.4231,3.4427,3.5234,3.5449,3.548,3.5529,3.5557,3.5436,3.5059,3.4956,3.4956,3.4921,3.4646,3.4405,3.4405,3.4059,3.478,3.7668,4.0409,4.171,4.0538,4.1495,4.2307,4.2307,4.2307,4.2307,4.2307,4.2353,4.2559,4.3051,4.3579,4.4107,4.4589,4.4658,4.4887,4.5381,4.5404,4.5404,4.5404,4.5404,4.5404,4.5404,4.5404,4.5404,2.5535,2.6695,2.7675,2.8084,2.8573,2.9099,2.9693,3.0284,3.0218,2.861,3.0106,3.1403,3.0441,3.0872,3.1453,3.1752,3.1587,3.147,3.1616,3.1862,3.2491,3.3716,3.4053,3.4703,3.5985,3.6144,3.619,3.6282,3.5735,3.4934,3.3868,3.401,3.3669,3.2602,3.3451,3.3957,3.3957,3.404,3.404,3.3957,3.4413,3.4392,3.3957,3.3868,3.3776,3.3694,3.3348,3.3261,3.3374,3.3535,3.3488,3.3347,3.3757,3.3696,3.3386,3.3386,3.3386,3.3445,3.3809,3.3711,3.3503,3.4199,3.4199,3.3984,3.4316,3.4434,3.4512,3.498,3.5117,3.5234,3.5742,3.5879,3.5864,3.5894,3.5879,3.5777,3.5436,3.5367,3.5264,3.4956,3.4646,3.4405,3.4405,3.4059,3.478,3.7668,3.9572,4.0926,4.1742,4.2116,4.2307,4.2307,4.2307,4.2307,4.2307,4.2706,4.2982,4.3074,4.3946,4.4474,4.4612,4.4979,4.5289,4.5404,4.5404,4.5404,4.5404,4.5404,4.5404,4.5404,4.5404,4.5404,2.5248,2.6527,2.7615,2.7817,2.8841,2.9767,2.9702,3.0168,3.0374,2.9449,3.0628,3.1542,3.0698,3.1032,3.1433,3.1433,3.1593,3.1754,3.1754,3.272,3.3671,3.4317,3.4962,3.5598,3.625,3.6305,3.6305,3.6305,3.6009,3.5368,3.4299,3.4547,3.4254,3.3161,3.398,3.4433,3.4433,3.464,3.464,3.4433,3.4889,3.4962,3.4693,3.4288,3.4102,3.4102,3.3923,3.3987,3.4204,3.4482,3.4548,3.4412,3.4716,3.4608,3.428,3.4064,3.3995,3.4062,3.4297,3.4219,3.4101,3.4551,3.4551,3.4414,3.4629,3.4707,3.4805,3.5254,3.5391,3.5488,3.5918,3.5982,3.5982,3.5982,3.5982,3.5947,3.5777,3.5743,3.5675,3.547,3.5162,3.4921,3.4921,3.5005,3.5534,3.685,3.8849,4.0473,4.1206,4.187,4.2307,4.2307,4.2307,4.2399,4.2683,4.2936,4.3303,4.3785,4.4313,4.4704,4.4956,4.5243,4.5404,4.5404,4.5404,4.5404,4.5404,4.5404,4.5404,4.5404,4.5404,4.5404,2.4664,2.6063,2.732,2.7492,2.8603,2.9536,2.895,2.955,3.0193,3.0193,3.0905,3.1387,3.0927,3.0858,3.0881,3.0973,3.134,3.1616,3.1684,3.343,3.467,3.467,3.5638,3.6305,3.6305,3.6305,3.6305,3.6305,3.6305,3.5876,3.4872,3.5127,3.4861,3.3877,3.4533,3.491,3.491,3.5231,3.5231,3.491,3.5252,3.5387,3.5366,3.4652,3.433,3.433,3.433,3.4599,3.5055,3.5418,3.5643,3.5738,3.5735,3.5606,3.5321,3.4963,3.4816,3.4805,3.4884,3.4831,3.4726,3.4883,3.4883,3.4824,3.4902,3.4922,3.5019,3.5391,3.5508,3.5586,3.5903,3.5982,3.5982,3.5982,3.5982,3.5982,3.5982,3.5982,3.5982,3.5982,3.5709,3.5489,3.5421,3.6064,3.6533,3.6378,3.8597,4.0354,4.0538,4.1582,4.2307,4.2307,4.2376,4.2605,4.3051,4.3257,4.3716,4.4566,4.4681,4.4933,4.5381,4.5404,4.5404,4.5404,4.5404,4.5404,4.5404,4.5404,4.5404,4.5404,4.5404,4.5404,2.4167,2.5606,2.6889,2.7579,2.843,2.9167,2.9341,2.9825,3.0193,3.0193,3.0308,3.0399,3.0308,3.0308,3.0445,3.0927,3.1042,3.1226,3.1661,3.3109,3.4119,3.4119,3.5408,3.6305,3.6305,3.6305,3.6305,3.6305,3.6305,3.6013,3.5343,3.5634,3.5482,3.4835,3.5151,3.5335,3.5335,3.5366,3.5366,3.5335,3.5366,3.5387,3.5387,3.5263,3.5252,3.5252,3.5252,3.55,3.5945,3.6113,3.6211,3.6196,3.6289,3.6065,3.5718,3.5658,3.5451,3.5257,3.5633,3.5284,3.4824,3.5586,3.5605,3.5371,3.5742,3.584,3.5825,3.5884,3.5937,3.5923,3.5996,3.5982,3.5982,3.5982,3.5982,3.5982,3.5982,3.5982,3.5982,3.5982,3.5709,3.5367,3.5059,3.6059,3.722,3.81,3.9616,4.0968,4.1902,4.218,4.2307,4.2307,4.2729,4.3005,4.3074,4.39,4.4474,4.4589,4.5059,4.5335,4.5404,4.5404,4.5404,4.5404,4.5404,4.5404,4.5404,4.5404,4.5404,4.5404,4.5404,4.5404,2.4591,2.5933,2.682,2.7469,2.8447,2.9246,2.909,2.9894,3.056,3.0262,3.0193,3.0193,3.0193,3.0193,3.0262,3.0514,3.079,3.1065,3.1271,3.2879,3.4004,3.4004,3.5362,3.6305,3.6305,3.6305,3.6305,3.6305,3.6305,3.6196,3.5927,3.6206,3.628,3.602,3.5972,3.5942,3.5942,3.5572,3.5387,3.5387,3.5387,3.5387,3.5387,3.5387,3.5387,3.5407,3.5676,3.5914,3.6131,3.6726,3.697,3.6991,3.7012,3.6917,3.6773,3.6509,3.6208,3.5984,3.6162,3.5888,3.5508,3.5898,3.5898,3.5781,3.5957,3.5982,3.5982,3.5982,3.5982,3.5982,3.5982,3.5982,3.5982,3.5982,3.5982,3.5982,3.5982,3.5982,3.5982,3.5982,3.5879,3.5641,3.5299,3.6364,3.7634,3.8708,3.9942,4.1161,4.2411,4.2434,4.2307,4.2307,4.2798,4.3188,4.3464,4.4176,4.4727,4.5036,4.5266,4.5404,4.5404,4.5404,4.5404,4.5404,4.5404,4.5404,4.5404,4.5404,4.5404,4.5404,4.5404,4.5404,2.4443,2.5806,2.6664,2.7138,2.8321,2.9286,2.9038,2.9962,3.079,3.0468,3.04,3.0354,3.0239,3.0193,3.0193,3.0193,3.0537,3.079,3.079,3.2535,3.3821,3.3821,3.5294,3.6305,3.6305,3.6305,3.6305,3.6305,3.6419,3.6488,3.6488,3.6805,3.7001,3.7001,3.6608,3.6392,3.6392,3.5726,3.5387,3.5387,3.5387,3.5387,3.5387,3.5387,3.5449,3.5593,3.5956,3.6183,3.6349,3.7156,3.757,3.7674,3.7674,3.7715,3.7729,3.7348,3.7044,3.6789,3.6789,3.6573,3.6253,3.6152,3.6152,3.6118,3.6016,3.5982,3.5982,3.5982,3.5982,3.5982,3.5982,3.5982,3.5982,3.5982,3.5982,3.5982,3.5982,3.5982,3.5982,3.5982,3.5982,3.6016,3.6132,3.7273,3.8564,3.9627,4.0688,4.1729,4.2696,4.2529,4.2353,4.2491,4.2982,4.3464,4.3969,4.4497,4.4956,4.5358,4.5404,4.5404,4.5404,4.5404,4.5404,4.5404,4.5404,4.5404,4.5404,4.5404,4.5404,4.5404,4.5404,4.5404,2.2967,2.4609,2.6218,2.6562,2.7814,2.9067,2.9621,3.0184,3.0673,3.0905,3.095,3.079,3.0285,3.0193,3.0193,3.0193,3.0216,3.0239,3.0239,3.203,3.334,3.334,3.5087,3.6305,3.6305,3.6305,3.6305,3.6305,3.6714,3.6961,3.6961,3.7353,3.7574,3.7574,3.6811,3.6392,3.6392,3.5726,3.5387,3.5387,3.5387,3.5387,3.5387,3.5387,3.5635,3.608,3.6101,3.637,3.6804,3.7301,3.7757,3.815,3.815,3.8171,3.8191,3.815,3.7883,3.7549,3.7549,3.7314,3.6978,3.6586,3.6485,3.6417,3.6118,3.5982,3.5982,3.5982,3.5982,3.5982,3.5982,3.5982,3.5982,3.5982,3.5982,3.5982,3.5982,3.5982,3.5982,3.5982,3.5982,3.6403,3.7762,3.9113,4.0419,4.1482,4.2523,4.3075,4.2822,4.2529,4.2491,4.3005,4.3487,4.3992,4.452,4.5059,4.5358,4.5404,4.5404,4.5404,4.5404,4.5404,4.5404,4.5404,4.5404,4.5404,4.5404,4.5404,4.5404,4.5404,4.5404,4.5404,2.267,2.3694,2.4699,2.5825,2.7066,2.814,2.8717,2.9633,3.0376,3.0468,3.0468,3.0423,3.0239,3.0193,3.0193,3.0193,3.0193,3.0308,3.0652,3.2213,3.3407,3.3706,3.5271,3.6419,3.6736,3.6759,3.6897,3.7247,3.7402,3.7517,3.7517,3.7982,3.8254,3.8254,3.7821,3.7245,3.6423,3.6178,3.5819,3.5387,3.5387,3.5387,3.5387,3.5387,3.5666,3.6121,3.6432,3.6825,3.7281,3.7757,3.8026,3.8191,3.8191,3.8191,3.8191,3.8191,3.7937,3.7582,3.7582,3.7381,3.7079,3.6944,3.691,3.6843,3.6471,3.6369,3.6268,3.605,3.5982,3.5982,3.5982,3.5982,3.5982,3.5982,3.5982,3.5982,3.5982,3.5982,3.5982,3.5982,3.5982,3.6437,3.7842,3.9244,4.0635,4.192,4.2988,4.3576,4.3483,4.326,4.3211,4.3405,4.3963,4.4405,4.4589,4.5105,4.5404,4.5404,4.5404,4.5404,4.5404,4.5404,4.5404,4.5404,4.5404,4.5404,4.5404,4.5404,4.5404,4.5404,4.5404,4.5404,2.2285,2.327,2.4174,2.554,2.6997,2.8169,2.8355,2.9464,3.0443,3.0468,3.0629,3.0721,3.0698,3.0721,3.0675,3.0491,3.0468,3.0675,3.1203,3.2581,3.3706,3.4211,3.5611,3.6736,3.7214,3.726,3.7425,3.777,3.7982,3.8045,3.8045,3.855,3.8738,3.8505,3.8179,3.7465,3.6423,3.6178,3.5839,3.5387,3.5387,3.5387,3.5407,3.5552,3.5914,3.637,3.6825,3.7218,3.7529,3.8005,3.8191,3.8191,3.8191,3.8191,3.8191,3.8191,3.8037,3.7803,3.7803,3.767,3.7469,3.7314,3.728,3.7213,3.6876,3.664,3.6451,3.6234,3.6084,3.5982,3.5982,3.5982,3.5982,3.5982,3.5982,3.5982,3.5982,3.5982,3.6152,3.6606,3.6708,3.7294,3.92,4.0289,4.1377,4.2768,4.3428,4.3802,4.3802,4.3773,4.3852,4.4039,4.4602,4.5049,4.5211,4.5434,4.5551,4.5551,4.5449,4.5404,4.5404,4.5404,4.5404,4.5404,4.5404,4.5404,4.5404,4.5404,4.5404,4.5404,4.5404,4.5404,0.0,0.0,0.0,2.5781,2.7657,2.9121,2.8692,2.9765,3.0898,3.0951,3.141,3.1755,3.1661,3.1708,3.1617,3.1111,3.1019,3.1203,3.1755,3.3088,3.4188,3.4762,3.6089,3.7191,3.7747,3.7816,3.7816,3.7839,3.8321,3.8596,3.8596,3.9055,3.9012,3.8335,3.7766,3.7132,3.6453,3.5788,3.5479,3.5418,3.5418,3.5418,3.5407,3.5894,3.637,3.6825,3.7301,3.7508,3.755,3.8005,3.8191,3.8191,3.8191,3.8191,3.8191,3.8191,3.8191,3.8191,3.8191,3.8191,3.8158,3.7716,3.7616,3.7549,3.7213,3.6843,3.6519,3.6519,3.6268,3.6016,3.5982,3.5982,3.5982,3.5982,3.5982,3.6016,3.605,3.605,3.6471,3.7809,3.8142,3.9014,4.1824,4.2293,4.2768,4.4099,4.4013,4.3826,4.3826,4.4018,4.4345,4.4877,4.5427,4.5921,4.6358,4.6126,4.5923,4.5923,4.5619,4.5438,4.5438,4.5415,4.5415,4.5404,4.5404,4.5404,4.5404,4.5404,4.5404,4.5404,4.5404,4.5404,2.15,0.0,0.0,0.0,0.0,0.0,2.86,2.9462,3.0111,3.0117,3.0721,3.0996,3.0262,3.0721,3.1295,3.1548,3.1571,3.1755,3.2237,3.2996,3.3935,3.5175,3.6002,3.6989,3.8281,3.8367,3.8504,3.8849,3.9033,3.9101,3.9101,3.9239,3.9219,3.9042,3.8841,3.8455,3.7788,3.7585,3.7041,3.6116,3.6116,3.587,3.5407,3.5894,3.637,3.6825,3.7301,3.7674,3.8005,3.8129,3.8191,3.8191,3.8191,3.8191,3.8191,3.8191,3.8191,3.8191,3.8191,3.8191,3.8191,3.8071,3.8037,3.7971,3.7582,3.7381,3.7247,3.7011,3.6674,3.6302,3.605,3.5982,3.5982,3.5982,3.5982,3.6287,3.7294,3.7528,3.7629,3.8009,3.8937,4.0192,4.2007,4.2293,4.2768,4.4099,4.4223,4.4281,4.4695,4.4936,4.5266,4.5788,4.6078,4.6264,4.6405,4.6305,4.6237,4.6237,4.617,4.6025,4.5788,4.5754,4.5652,4.5404,4.5404,4.5404,4.5404,4.5404,4.5404,4.5404,4.5404,4.5404,2.162,2.2357,2.3248,2.4249,0.0,0.0,2.79,2.8712,2.9364,2.9631,3.0399,3.0905,3.0537,3.1088,3.1731,3.2031,3.1916,3.2031,3.2743,3.3453,3.4234,3.5106,3.5657,3.6553,3.8114,3.8281,3.855,3.9262,3.9308,3.9308,3.9308,3.9308,3.9308,3.9308,3.9042,3.8716,3.8298,3.8036,3.7404,3.6392,3.6698,3.6416,3.5728,3.6467,3.6894,3.7115,3.7591,3.7943,3.8191,3.8191,3.8191,3.8191,3.8191,3.8191,3.8191,3.8191,3.8191,3.8191,3.8191,3.8191,3.8191,3.8191,3.8191,3.8158,3.7937,3.7716,3.7549,3.7348,3.7045,3.6654,3.6302,3.62,3.6166,3.6016,3.6437,3.7092,3.7909,3.9014,3.9834,3.9834,4.0516,4.1505,4.2894,4.3137,4.342,4.4192,4.4508,4.4748,4.5061,4.5598,4.6043,4.6386,4.6689,4.6865,4.6865,4.6731,4.6664,4.6664,4.6473,4.6237,4.5923,4.589,4.5754,4.5415,4.5404,4.5404,4.5404,4.5404,4.5404,4.5404,4.5404,4.5289,2.2053,2.2646,2.3224,2.4177,2.5595,0.0,2.6948,2.781,2.8693,2.9128,3.01,3.0974,3.1318,3.1847,3.2259,3.2398,3.2123,3.2192,3.3088,3.4027,3.467,3.4785,3.5221,3.6071,3.7471,3.7609,3.8045,3.9055,3.9239,3.9308,3.9308,3.9308,3.9308,3.9308,3.8723,3.8395,3.8395,3.7886,3.7253,3.6637,3.7223,3.7087,3.6342,3.7371,3.7741,3.7606,3.8018,3.8191,3.8191,3.8191,3.8191,3.8191,3.8191,3.8191,3.8191,3.8191,3.8191,3.8191,3.8191,3.8191,3.8191,3.8191,3.8191,3.8191,3.8191,3.7937,3.7649,3.7616,3.7381,3.7079,3.6654,3.6519,3.6451,3.6302,3.7227,3.8175,3.8507,4.0516,4.2356,4.2483,4.2515,4.2894,4.4099,4.4285,4.4309,4.4357,4.4796,4.5133,4.5253,4.6094,4.6728,4.68,4.7209,4.7497,4.7497,4.7232,4.7055,4.7055,4.6731,4.6372,4.6058,4.5991,4.5788,4.5449,4.5415,4.5358,4.5312,4.5358,4.5358,4.5312,4.5312,4.5002,2.3007,2.2911,2.3151,2.3777,2.4771,0.0,2.6713,2.7584,2.8073,2.768,2.8879,2.975,2.8904,2.978,3.0928,3.1801,3.2169,3.2444,3.2628,3.3203,3.3889,3.4693,3.5221,3.5795,3.6534,3.6603,3.7017,3.8028,3.8849,3.9308,3.9308,3.9308,3.9308,3.9308,3.919,3.9101,3.9101,3.9012,3.8574,3.7916,3.8036,3.797,3.7715,3.7782,3.7997,3.8302,3.8249,3.8191,3.8191,3.8191,3.8191,3.8191,3.8191,3.8191,3.8191,3.8191,3.8191,3.8191,3.8191,3.8191,3.8191,3.8191,3.8191,3.8191,3.8191,3.8158,3.8004,3.7683,3.7549,3.7415,3.7079,3.6722,3.6769,3.7822,3.8109,3.8738,4.0991,4.1888,4.261,4.3701,4.3888,4.3982,4.4254,4.4285,4.446,4.4893,4.5037,4.5421,4.6262,4.6583,4.6872,4.7305,4.7449,4.7497,4.7497,4.7431,4.7398,4.7398,4.7331,4.7132,4.6798,4.6496,4.6136,4.5822,4.5517,4.5197,4.475,4.5197,4.5174,4.475,4.475,4.4474,2.3308,2.302,2.3127,2.3673,2.4186,0.0,0.0,2.6785,2.6834,2.6874,2.7978,2.8714,2.8123,2.8792,2.9711,3.0537,3.0629,3.0767,3.1272,3.2673,3.3752,3.4004,3.4257,3.4693,3.55,3.5569,3.619,3.7706,3.8252,3.878,3.9285,3.9308,3.9308,3.9308,3.9308,3.9308,3.9308,3.9308,3.8953,3.8328,3.8904,3.8932,3.8466,3.8947,3.9236,3.9358,3.9235,3.9012,3.8702,3.8702,3.8503,3.8191,3.8191,3.8191,3.8191,3.8191,3.8191,3.8191,3.8191,3.8191,3.8191,3.8191,3.8191,3.8191,3.8191,3.8191,3.8158,3.7971,3.7904,3.7803,3.7448,3.7709,3.8221,3.8729,3.9649,4.0785,4.2184,4.2925,4.3585,4.4527,4.47,4.47,4.47,4.47,4.4893,4.5421,4.571,4.607,4.6631,4.6944,4.7209,4.7473,4.7497,4.7497,4.7497,4.7497,4.7497,4.7497,4.7497,4.7331,4.6998,4.6798,4.653,4.616,4.5735,4.5378,4.509,4.509,4.4784,4.4199,4.4199,4.4061,2.3982,2.3459,2.3224,2.3577,2.3777,2.4304,0.0,0.0,0.0,2.6221,2.7022,2.7568,2.7435,2.7874,2.8356,2.8586,2.8494,2.8677,2.9389,3.1593,3.3132,3.3132,3.334,3.3706,3.444,3.4946,3.5772,3.7104,3.7867,3.8459,3.8987,3.9193,3.9308,3.9308,3.9308,3.9308,3.9308,3.9308,3.9042,3.8507,3.9604,3.9779,3.9223,4.0119,4.045,4.042,4.0257,3.9833,3.9177,3.9177,3.8802,3.8191,3.8191,3.8191,3.8191,3.8191,3.8191,3.8191,3.8191,3.8191,3.8191,3.8191,3.8191,3.8191,3.8191,3.8191,3.8191,3.8191,3.837,3.8536,3.8183,3.9101,4.0073,4.0018,4.1437,4.2879,4.313,4.3967,4.4767,4.5201,4.5402,4.5411,4.5285,4.5253,4.5445,4.5974,4.6407,4.6752,4.6848,4.7233,4.7497,4.7497,4.7497,4.7497,4.7497,4.7497,4.7497,4.7497,4.7497,4.7364,4.7098,4.7032,4.675,4.6264,4.5832,4.5503,4.5315,4.4977,4.4552,4.4005,4.4005,4.4005,2.621,2.4937,2.3625,2.3176,2.3761,2.4369,2.4153,0.0,2.5129,2.5013,0.0,2.6024,2.5367,0.0,0.0,2.5578,2.6522,2.7277,2.6953,2.87,3.0652,3.2398,3.3384,3.3798,3.3501,3.5474,3.6296,3.5221,3.8051,3.9292,3.8022,3.8826,3.9308,3.9308,3.9308,3.9308,3.9308,3.9308,3.9249,3.919,3.9813,4.0258,4.0578,4.0527,4.0759,4.1132,4.0485,3.9833,3.9177,3.9177,3.8802,3.8191,3.8191,3.8191,3.8191,3.8191,3.8191,3.8191,3.8191,3.8191,3.8191,3.8191,3.8191,3.8191,3.8191,3.8191,3.8191,3.8191,3.9078,3.9953,3.9921,4.0688,4.1788,4.2981,4.3201,4.3505,4.4755,4.5459,4.5926,4.5975,4.6423,4.6602,4.5934,4.5806,4.5974,4.6503,4.668,4.6872,4.7353,4.7473,4.7497,4.7497,4.7497,4.7497,4.7497,4.7497,4.7497,4.7497,4.7497,4.7464,4.7431,4.7165,4.6585,4.5714,4.5644,4.5174,4.4281,4.4681,4.4836,4.4771,4.4771,4.478,2.8663,2.7567,2.6516,2.5334,2.5237,2.53,2.4788,2.4801,2.4809,2.4413,0.0,0.0,0.0,0.0,0.0,0.0,2.505,2.5486,2.5555,2.707,2.8908,3.0928,3.1823,3.242,3.2812,3.5106,3.6094,3.49,3.7793,3.9108,3.789,3.8757,3.9308,3.9308,3.9308,3.9308,3.9308,3.9308,3.9308,3.9308,4.0112,4.0617,4.0816,4.1314,4.1688,4.1861,4.155,4.1035,4.042,4.042,3.9997,3.9341,3.9341,3.8901,3.8191,3.8191,3.8191,3.8191,3.8191,3.8191,3.8191,3.8191,3.8191,3.8191,3.8191,3.8191,3.837,3.9123,3.9757,4.0387,4.1171,4.2264,4.3357,4.3941,4.4398,4.4957,4.5847,4.6069,4.6321,4.696,4.7312,4.7462,4.745,4.7005,4.6754,4.7121,4.7161,4.7257,4.7473,4.7497,4.7497,4.7497,4.7497,4.7497,4.7497,4.7497,4.7497,4.7497,4.7497,4.7497,4.7497,4.7364,4.7103,4.6698,4.6389,4.6031,4.5603,4.5531,4.5627,4.5912,4.4907,4.476,3.1251,3.0218,2.917,2.7437,2.6813,2.6457,2.5672,2.5195,2.4797,2.4508,2.4247,0.0,0.0,0.0,2.3338,2.319,0.0,2.3764,2.3695,2.5081,2.7027,2.9298,3.0445,3.1341,3.219,3.4719,3.5776,3.4486,3.7448,3.8734,3.7476,3.8481,3.917,3.9308,3.9308,3.9308,3.9308,3.9308,3.9308,3.9308,4.0311,4.0793,4.0816,4.1848,4.2307,4.2307,4.2307,4.1925,4.1315,4.1315,4.0874,4.0225,4.0225,3.9506,3.847,3.847,3.8337,3.8191,3.8191,3.8191,3.8191,3.8191,3.8191,3.8191,3.8191,3.847,3.8946,3.9921,4.0743,4.1556,4.254,4.3817,4.4859,4.4859,4.5527,4.6287,4.6655,4.6774,4.7095,4.7912,4.8184,4.8367,4.8559,4.7938,4.749,4.7615,4.7563,4.7497,4.7497,4.7497,4.7497,4.7497,4.7497,4.7497,4.7497,4.7497,4.7497,4.7497,4.7497,4.7497,4.7497,4.7497,4.7425,4.7281,4.692,4.6631,4.6455,4.6214,4.6343,4.6671,4.5395,4.5311,3.39,3.256,3.0644,2.8718,2.8131,2.7671,2.6372,2.5559,2.5165,2.5486,2.4569,2.3641,2.3442,2.339,2.2765,0.0,2.1766,0.0,0.0,2.2261,2.4645,2.7711,2.9802,3.118,3.1684,3.4486,3.5477,3.3501,3.7035,3.8436,3.6465,3.7798,3.8826,3.9285,3.9308,3.9308,3.9308,3.9308,3.9308,3.9308,4.0311,4.0793,4.0816,4.1848,4.2307,4.2307,4.2307,4.1925,4.1315,4.1315,4.0874,4.0225,4.0225,3.9768,3.9177,3.9177,3.8769,3.8191,3.8191,3.8191,3.8191,3.8191,3.8191,3.8191,3.8191,3.9111,4.0127,4.0192,4.2129,4.4189,4.422,4.522,4.624,4.624,4.6667,4.7043,4.7068,4.7927,4.8736,4.8761,4.9213,4.9364,4.8706,4.8256,4.7969,4.7993,4.7696,4.7497,4.7497,4.7497,4.7497,4.7497,4.7497,4.7497,4.7497,4.7497,4.7497,4.7497,4.7497,4.7497,4.7497,4.7497,4.7257,4.6752,4.6728,4.6431,4.5926,4.6439,4.6704,4.6704,4.6647,4.6911,3.6817,3.5695,3.4364,3.257,3.2277,3.1896,2.9905,2.8836,2.7879,2.6693,2.476,2.3068,2.2501,2.2399,2.2094,0.0,0.0,2.1881,0.0,2.2104,2.358,2.5279,2.7851,2.9688,3.017,3.3315,3.4877,3.3843,3.6576,3.7862,3.6828,3.7586,3.8298,3.8826,3.9147,3.9308,3.9308,3.9308,3.9308,3.9308,4.0311,4.0793,4.0816,4.1848,4.2307,4.2307,4.2307,4.218,4.1956,4.1956,4.1806,4.1582,4.1582,4.1164,4.0485,3.9538,3.8769,3.8191,3.8191,3.8191,3.8191,3.8191,3.8191,3.8191,3.8191,3.9144,4.0387,4.1267,4.2855,4.4497,4.5403,4.5969,4.6401,4.6747,4.6973,4.7299,4.8058,4.8542,4.8919,4.9238,4.9464,4.9525,4.9324,4.8942,4.8486,4.7762,4.7563,4.7497,4.7497,4.7497,4.7497,4.7497,4.7497,4.7497,4.7497,4.7497,4.7497,4.7497,4.7497,4.7497,4.7497,4.7497,4.7425,4.7233,4.7233,4.7136,4.6968,4.7136,4.7233,4.7233,4.7233,4.7329,3.9058,3.8164,3.7105,3.5725,3.4922,3.4138,3.2744,3.111,2.9628,2.8649,2.6323,2.4365,2.41,2.3317,2.2702,0.0,0.0,0.0,0.0,2.2012,2.2731,2.3575,2.6014,2.8126,2.9366,3.2053,3.3729,3.3752,3.6094,3.7219,3.6502,3.7311,3.8074,3.8573,3.8895,3.9124,3.9308,3.9308,3.9308,3.9308,4.0311,4.0793,4.0816,4.1848,4.2307,4.2307,4.2307,4.2307,4.2307,4.2307,4.2307,4.2307,4.2307,4.1893,4.1187,4.029,3.9506,3.8868,3.8636,3.857,3.8503,3.8291,3.8536,3.8913,3.8913,4.0214,4.1843,4.2698,4.3941,4.522,4.609,4.6301,4.6451,4.6973,4.7249,4.7626,4.8617,4.8969,4.9195,4.9515,4.959,4.9558,4.9429,4.9234,4.8812,4.7993,4.7762,4.763,4.7497,4.7497,4.7497,4.7497,4.7497,4.7497,4.7497,4.7497,4.7497,4.7497,4.7329,4.7305,4.7497,4.7136,4.7209,4.7762,4.7425,4.7401,4.7786,4.7593,4.7497,4.7497,4.7497,4.7497]}]]